Wetterdaten: Freitag, 25.08.2017
Datum Zeit Temp. A. Pool Temp. Feuchte A. Luftdruck Regen Wind Richtung Richtung Sonnenschein ET UV Solar Taupunkt Windchill Windben Empfang
25.08.2017 00:00 20,2 C 22,8 C 71 % 1019,2 hPa 0,0 l/m 21,7 km/h (4 Bft) W 269 0 min 0,000 mm 0,0 UV-I 0 W/m 14,8 C 16,2 C 38,6 km/h (5 Bft) 96,23 %
25.08.2017 00:02 20,1 C 22,8 C 71 % 1019,1 hPa 0,0 l/m 19,3 km/h (3 Bft) W 274 0 min 0,000 mm 0,0 UV-I 0 W/m 14,7 C 16,5 C 29,0 km/h (5 Bft) 95,35 %
25.08.2017 00:04 20,1 C 22,8 C 71 % 1019,1 hPa 0,0 l/m 22,6 km/h (4 Bft) W 273 0 min 0,000 mm 0,0 UV-I 0 W/m 14,7 C 15,9 C 29,0 km/h (5 Bft) 95,12 %
25.08.2017 00:06 20,1 C 22,8 C 72 % 1019,2 hPa 0,0 l/m 19,9 km/h (4 Bft) W-SW 240 0 min 0,000 mm 0,0 UV-I 0 W/m 14,9 C 16,4 C 29,0 km/h (5 Bft) 96,43 %
25.08.2017 00:08 20,1 C 22,8 C 72 % 1019,2 hPa 0,0 l/m 23,3 km/h (4 Bft) W 261 0 min 0,000 mm 0,0 UV-I 0 W/m 14,9 C 15,8 C 30,6 km/h (5 Bft) 100,00 %
25.08.2017 00:10 20,0 C 22,8 C 72 % 1019,2 hPa 0,0 l/m 19,3 km/h (3 Bft) W 259 0 min 0,000 mm 0,0 UV-I 0 W/m 14,8 C 16,3 C 29,0 km/h (5 Bft) 96,23 %
25.08.2017 00:12 20,0 C 22,8 C 72 % 1019,2 hPa 0,0 l/m 21,8 km/h (4 Bft) W-SW 240 0 min 0,000 mm 0,0 UV-I 0 W/m 14,8 C 15,9 C 32,2 km/h (5 Bft) 97,87 %
25.08.2017 00:14 19,9 C 22,8 C 72 % 1019,2 hPa 0,0 l/m 17,6 km/h (3 Bft) W-SW 240 0 min 0,000 mm 0,0 UV-I 0 W/m 14,7 C 16,5 C 29,0 km/h (5 Bft) 92,11 %
25.08.2017 00:16 19,9 C 22,8 C 73 % 1019,3 hPa 0,0 l/m 15,6 km/h (3 Bft) W-SW 240 0 min 0,000 mm 0,0 UV-I 0 W/m 14,9 C 17,0 C 25,7 km/h (4 Bft) 98,11 %
25.08.2017 00:18 19,9 C 22,8 C 73 % 1019,3 hPa 0,0 l/m 18,3 km/h (3 Bft) W-SW 238 0 min 0,000 mm 0,0 UV-I 0 W/m 14,9 C 16,4 C 27,4 km/h (4 Bft) 98,11 %
25.08.2017 00:20 19,8 C 22,8 C 74 % 1019,4 hPa 0,0 l/m 16,7 km/h (3 Bft) W-SW 257 0 min 0,000 mm 0,0 UV-I 0 W/m 15,0 C 16,6 C 25,7 km/h (4 Bft) 94,74 %
25.08.2017 00:22 19,8 C 22,8 C 74 % 1019,3 hPa 0,0 l/m 17,3 km/h (3 Bft) W-SW 254 0 min 0,000 mm 0,0 UV-I 0 W/m 15,0 C 16,5 C 27,4 km/h (4 Bft) 98,11 %
25.08.2017 00:24 19,8 C 22,8 C 74 % 1019,4 hPa 0,0 l/m 18,5 km/h (3 Bft) W-SW 252 0 min 0,000 mm 0,0 UV-I 0 W/m 15,0 C 16,2 C 29,0 km/h (5 Bft) 97,37 %
25.08.2017 00:26 19,7 C 22,8 C 74 % 1019,4 hPa 0,0 l/m 19,1 km/h (3 Bft) W-SW 237 0 min 0,000 mm 0,0 UV-I 0 W/m 14,9 C 16,0 C 27,4 km/h (4 Bft) 100,00 %
25.08.2017 00:28 19,7 C 22,8 C 75 % 1019,3 hPa 0,0 l/m 23,5 km/h (4 Bft) W 261 0 min 0,000 mm 0,0 UV-I 0 W/m 15,1 C 15,2 C 30,6 km/h (5 Bft) 98,08 %
25.08.2017 00:30 19,7 C 22,8 C 75 % 1019,3 hPa 0,0 l/m 17,6 km/h (3 Bft) S-SW 213 0 min 0,000 mm 0,0 UV-I 0 W/m 15,1 C 16,3 C 25,7 km/h (4 Bft) 100,00 %
25.08.2017 00:32 19,7 C 22,8 C 75 % 1019,3 hPa 0,0 l/m 18,5 km/h (3 Bft) W-SW 241 0 min 0,000 mm 0,0 UV-I 0 W/m 15,1 C 16,1 C 24,1 km/h (4 Bft) 100,00 %
25.08.2017 00:34 19,6 C 22,8 C 76 % 1019,2 hPa 0,0 l/m 15,1 km/h (3 Bft) W-SW 253 0 min 0,000 mm 0,0 UV-I 0 W/m 15,2 C 16,7 C 22,5 km/h (4 Bft) 100,00 %
25.08.2017 00:36 19,5 C 22,8 C 76 % 1019,3 hPa 0,0 l/m 18,1 km/h (3 Bft) SW 223 0 min 0,000 mm 0,0 UV-I 0 W/m 15,2 C 15,9 C 29,0 km/h (5 Bft) 100,00 %
25.08.2017 00:38 19,4 C 22,8 C 76 % 1019,3 hPa 0,0 l/m 13,4 km/h (3 Bft) W 263 0 min 0,000 mm 0,0 UV-I 0 W/m 15,1 C 16,9 C 19,3 km/h (3 Bft) 100,00 %
25.08.2017 00:40 19,4 C 22,8 C 76 % 1019,4 hPa 0,0 l/m 14,6 km/h (3 Bft) SW 220 0 min 0,000 mm 0,0 UV-I 0 W/m 15,1 C 16,6 C 20,9 km/h (4 Bft) 100,00 %
25.08.2017 00:42 19,4 C 22,8 C 77 % 1019,4 hPa 0,0 l/m 12,1 km/h (2 Bft) W-SW 250 0 min 0,000 mm 0,0 UV-I 0 W/m 15,3 C 17,3 C 17,7 km/h (3 Bft) 100,00 %
25.08.2017 00:44 19,3 C 22,8 C 77 % 1019,4 hPa 0,0 l/m 13,3 km/h (3 Bft) W-SW 253 0 min 0,000 mm 0,0 UV-I 0 W/m 15,2 C 16,8 C 20,9 km/h (4 Bft) 97,37 %
25.08.2017 00:46 19,3 C 22,8 C 78 % 1019,6 hPa 0,0 l/m 11,5 km/h (2 Bft) SW 236 0 min 0,000 mm 0,0 UV-I 0 W/m 15,4 C 17,4 C 19,3 km/h (3 Bft) 100,00 %
25.08.2017 00:48 19,3 C 22,8 C 78 % 1019,5 hPa 0,0 l/m 10,9 km/h (2 Bft) SW 234 0 min 0,000 mm 0,0 UV-I 0 W/m 15,4 C 17,6 C 14,5 km/h (3 Bft) 100,00 %
25.08.2017 00:50 19,2 C 22,8 C 78 % 1019,6 hPa 0,0 l/m 10,6 km/h (2 Bft) S-SW 200 0 min 0,000 mm 0,0 UV-I 0 W/m 15,3 C 17,6 C 16,1 km/h (3 Bft) 100,00 %
25.08.2017 00:52 19,2 C 22,8 C 78 % 1019,5 hPa 0,0 l/m 11,5 km/h (2 Bft) S-SW 202 0 min 0,000 mm 0,0 UV-I 0 W/m 15,3 C 17,3 C 16,1 km/h (3 Bft) 98,11 %
25.08.2017 00:54 19,1 C 22,8 C 79 % 1019,5 hPa 0,0 l/m 11,6 km/h (2 Bft) S-SW 213 0 min 0,000 mm 0,0 UV-I 0 W/m 15,4 C 17,1 C 16,1 km/h (3 Bft) 100,00 %
25.08.2017 00:56 19,0 C 22,8 C 80 % 1019,5 hPa 0,0 l/m 11,6 km/h (2 Bft) SW 227 0 min 0,000 mm 0,0 UV-I 0 W/m 15,5 C 17,0 C 16,1 km/h (3 Bft) 100,00 %
25.08.2017 00:58 18,9 C 22,8 C 80 % 1019,5 hPa 0,0 l/m 9,3 km/h (2 Bft) S-SW 209 0 min 0,000 mm 0,0 UV-I 0 W/m 15,4 C 17,7 C 17,7 km/h (3 Bft) 98,00 %
25.08.2017 01:00 18,9 C 22,8 C 80 % 1019,4 hPa 0,0 l/m 6,8 km/h (2 Bft) S-SW 202 0 min 0,051 mm 0,0 UV-I 0 W/m 15,4 C 18,7 C 17,7 km/h (3 Bft) 100,00 %
25.08.2017 01:02 18,8 C 22,8 C 81 % 1019,5 hPa 0,0 l/m 6,2 km/h (2 Bft) S-SW 213 0 min 0,000 mm 0,0 UV-I 0 W/m 15,5 C 18,8 C 11,3 km/h (2 Bft) 100,00 %
25.08.2017 01:04 18,7 C 22,8 C 81 % 1019,4 hPa 0,0 l/m 6,2 km/h (2 Bft) SW 232 0 min 0,000 mm 0,0 UV-I 0 W/m 15,4 C 18,7 C 11,3 km/h (2 Bft) 100,00 %
25.08.2017 01:06 18,7 C 22,8 C 82 % 1019,5 hPa 0,0 l/m 5,7 km/h (1 Bft) S-SW 199 0 min 0,000 mm 0,0 UV-I 0 W/m 15,6 C 18,7 C 9,7 km/h (2 Bft) 100,00 %
25.08.2017 01:08 18,7 C 22,8 C 82 % 1019,4 hPa 0,0 l/m 7,0 km/h (2 Bft) S-SW 202 0 min 0,000 mm 0,0 UV-I 0 W/m 15,6 C 18,4 C 11,3 km/h (2 Bft) 100,00 %
25.08.2017 01:10 18,6 C 22,8 C 82 % 1019,4 hPa 0,0 l/m 6,1 km/h (2 Bft) S-SW 200 0 min 0,000 mm 0,0 UV-I 0 W/m 15,5 C 18,6 C 11,3 km/h (2 Bft) 100,00 %
25.08.2017 01:12 18,6 C 22,8 C 83 % 1019,3 hPa 0,0 l/m 6,1 km/h (2 Bft) S-SW 194 0 min 0,000 mm 0,0 UV-I 0 W/m 15,7 C 18,6 C 9,7 km/h (2 Bft) 100,00 %
25.08.2017 01:14 18,6 C 22,8 C 84 % 1019,3 hPa 0,0 l/m 4,8 km/h (1 Bft) S 171 0 min 0,000 mm 0,0 UV-I 0 W/m 15,8 C 18,6 C 9,7 km/h (2 Bft) 100,00 %
25.08.2017 01:16 18,5 C 22,8 C 84 % 1019,3 hPa 0,0 l/m 2,7 km/h (1 Bft) S 178 0 min 0,000 mm 0,0 UV-I 0 W/m 15,7 C 18,5 C 4,8 km/h (1 Bft) 100,00 %
25.08.2017 01:18 18,5 C 22,8 C 84 % 1019,2 hPa 0,0 l/m 6,7 km/h (2 Bft) SO 134 0 min 0,000 mm 0,0 UV-I 0 W/m 15,7 C 18,4 C 12,9 km/h (3 Bft) 100,00 %
25.08.2017 01:20 18,4 C 22,8 C 84 % 1019,0 hPa 0,0 l/m 9,4 km/h (2 Bft) SW 236 0 min 0,000 mm 0,0 UV-I 0 W/m 15,6 C 17,1 C 17,7 km/h (3 Bft) 97,56 %
25.08.2017 01:22 18,4 C 22,8 C 84 % 1019,0 hPa 0,0 l/m 4,9 km/h (1 Bft) S 182 0 min 0,000 mm 0,0 UV-I 0 W/m 15,6 C 18,4 C 8,0 km/h (2 Bft) 98,00 %
25.08.2017 01:24 18,4 C 22,8 C 84 % 1018,9 hPa 0,0 l/m 4,8 km/h (1 Bft) S 177 0 min 0,000 mm 0,0 UV-I 0 W/m 15,6 C 18,4 C 12,9 km/h (3 Bft) 98,11 %
25.08.2017 01:26 18,4 C 22,8 C 84 % 1018,7 hPa 0,0 l/m 7,7 km/h (2 Bft) SO 126 0 min 0,000 mm 0,0 UV-I 0 W/m 15,6 C 17,8 C 16,1 km/h (3 Bft) 98,00 %
25.08.2017 01:28 18,4 C 22,8 C 83 % 1018,7 hPa 0,0 l/m 8,6 km/h (2 Bft) S-SO 167 0 min 0,000 mm 0,0 UV-I 0 W/m 15,5 C 17,4 C 14,5 km/h (3 Bft) 97,14 %
25.08.2017 01:30 18,4 C 22,8 C 83 % 1018,7 hPa 0,0 l/m 6,0 km/h (2 Bft) S-SO 148 0 min 0,000 mm 0,0 UV-I 0 W/m 15,5 C 18,4 C 12,9 km/h (3 Bft) 98,21 %
25.08.2017 01:32 18,4 C 22,8 C 82 % 1018,6 hPa 0,0 l/m 5,7 km/h (1 Bft) S 190 0 min 0,000 mm 0,0 UV-I 0 W/m 15,3 C 18,4 C 11,3 km/h (2 Bft) 97,73 %
25.08.2017 01:34 18,4 C 22,8 C 82 % 1018,5 hPa 0,0 l/m 5,8 km/h (2 Bft) S-SW 208 0 min 0,000 mm 0,0 UV-I 0 W/m 15,3 C 18,4 C 9,7 km/h (2 Bft) 97,37 %
25.08.2017 01:36 18,4 C 22,8 C 82 % 1018,4 hPa 0,0 l/m 5,2 km/h (1 Bft) S-SO 165 0 min 0,000 mm 0,0 UV-I 0 W/m 15,3 C 18,4 C 8,0 km/h (2 Bft) 96,23 %
25.08.2017 01:38 18,4 C 22,8 C 82 % 1018,3 hPa 0,0 l/m 2,8 km/h (1 Bft) S 191 0 min 0,000 mm 0,0 UV-I 0 W/m 15,3 C 18,4 C 6,4 km/h (2 Bft) 96,00 %
25.08.2017 01:40 18,4 C 22,8 C 82 % 1018,1 hPa 0,0 l/m 2,7 km/h (1 Bft) S-SO 147 0 min 0,000 mm 0,0 UV-I 0 W/m 15,3 C 18,4 C 6,4 km/h (2 Bft) 98,00 %
25.08.2017 01:42 18,4 C 22,8 C 82 % 1018,0 hPa 0,0 l/m 2,1 km/h (1 Bft) O-SO 109 0 min 0,000 mm 0,0 UV-I 0 W/m 15,3 C 18,4 C 9,7 km/h (2 Bft) 97,56 %
25.08.2017 01:44 18,4 C 22,8 C 83 % 1017,8 hPa 0,0 l/m 5,1 km/h (1 Bft) O-NO 69 0 min 0,000 mm 0,0 UV-I 0 W/m 15,5 C 18,4 C 9,7 km/h (2 Bft) 98,00 %
25.08.2017 01:46 18,4 C 22,8 C 82 % 1017,7 hPa 0,0 l/m 6,7 km/h (2 Bft) O-NO 67 0 min 0,000 mm 0,0 UV-I 0 W/m 15,3 C 18,3 C 11,3 km/h (2 Bft) 97,62 %
25.08.2017 01:48 18,4 C 22,8 C 82 % 1017,7 hPa 0,0 l/m 10,1 km/h (2 Bft) O-NO 67 0 min 0,000 mm 0,0 UV-I 0 W/m 15,3 C 16,8 C 16,1 km/h (3 Bft) 98,08 %
25.08.2017 01:50 18,4 C 22,8 C 82 % 1017,4 hPa 0,0 l/m 11,7 km/h (2 Bft) O 81 0 min 0,000 mm 0,0 UV-I 0 W/m 15,3 C 16,3 C 17,7 km/h (3 Bft) 95,24 %
25.08.2017 01:52 18,4 C 22,8 C 82 % 1017,3 hPa 0,0 l/m 12,8 km/h (3 Bft) O-NO 65 0 min 0,000 mm 0,0 UV-I 0 W/m 15,3 C 15,9 C 19,3 km/h (3 Bft) 94,00 %
25.08.2017 01:54 18,4 C 22,8 C 83 % 1017,3 hPa 0,0 l/m 15,6 km/h (3 Bft) O 84 0 min 0,000 mm 0,0 UV-I 0 W/m 15,5 C 15,2 C 19,3 km/h (3 Bft) 97,56 %
25.08.2017 01:56 18,4 C 22,8 C 83 % 1017,1 hPa 0,0 l/m 13,8 km/h (3 Bft) O-SO 107 0 min 0,000 mm 0,0 UV-I 0 W/m 15,5 C 15,6 C 19,3 km/h (3 Bft) 96,43 %
25.08.2017 01:58 18,3 C 22,8 C 83 % 1017,1 hPa 0,0 l/m 13,0 km/h (3 Bft) O 100 0 min 0,000 mm 0,0 UV-I 0 W/m 15,4 C 15,8 C 20,9 km/h (4 Bft) 100,00 %
25.08.2017 02:00 18,3 C 22,8 C 83 % 1016,9 hPa 0,0 l/m 12,0 km/h (2 Bft) O-NO 73 0 min 0,025 mm 0,0 UV-I 0 W/m 15,4 C 16,1 C 17,7 km/h (3 Bft) 98,31 %
25.08.2017 02:03 18,3 C 22,8 C 83 % 1016,7 hPa 0,0 l/m 4,3 km/h (1 Bft) O 100 0 min 0,000 mm 0,0 UV-I 0 W/m 15,4 C 18,3 C 12,9 km/h (3 Bft) 100,00 %
25.08.2017 02:04 18,3 C 22,8 C 82 % 1016,7 hPa 0,0 l/m 3,2 km/h (1 Bft) N-NO 23 0 min 0,000 mm 0,0 UV-I 0 W/m 15,2 C 18,3 C 6,4 km/h (2 Bft) 100,00 %
25.08.2017 02:06 18,2 C 22,8 C 82 % 1016,6 hPa 0,0 l/m 6,5 km/h (2 Bft) NO 53 0 min 0,000 mm 0,0 UV-I 0 W/m 15,1 C 18,2 C 11,3 km/h (2 Bft) 100,00 %
25.08.2017 02:08 18,2 C 22,8 C 82 % 1016,5 hPa 0,0 l/m 9,4 km/h (2 Bft) NO 36 0 min 0,000 mm 0,0 UV-I 0 W/m 15,1 C 16,9 C 12,9 km/h (3 Bft) 100,00 %
25.08.2017 02:10 18,2 C 22,8 C 83 % 1016,6 hPa 0,0 l/m 4,7 km/h (1 Bft) O-NO 64 0 min 0,000 mm 0,0 UV-I 0 W/m 15,3 C 18,2 C 11,3 km/h (2 Bft) 97,87 %
25.08.2017 02:12 18,1 C 22,8 C 84 % 1016,7 hPa 0,0 l/m 6,1 km/h (2 Bft) N-NO 12 0 min 0,000 mm 0,0 UV-I 0 W/m 15,4 C 18,1 C 11,3 km/h (2 Bft) 98,11 %
25.08.2017 02:14 18,1 C 22,8 C 84 % 1016,8 hPa 0,0 l/m 4,5 km/h (1 Bft) NW 315 0 min 0,000 mm 0,0 UV-I 0 W/m 15,4 C 18,1 C 6,4 km/h (2 Bft) 97,37 %
25.08.2017 02:16 18,1 C 22,8 C 84 % 1016,9 hPa 0,0 l/m 4,2 km/h (1 Bft) N-NW 330 0 min 0,000 mm 0,0 UV-I 0 W/m 15,4 C 18,1 C 6,4 km/h (2 Bft) 95,74 %
25.08.2017 02:18 18,1 C 22,8 C 84 % 1016,8 hPa 0,0 l/m 2,8 km/h (1 Bft) N 11 0 min 0,000 mm 0,0 UV-I 0 W/m 15,4 C 18,1 C 6,4 km/h (2 Bft) 100,00 %
25.08.2017 02:20 18,0 C 22,8 C 85 % 1016,9 hPa 0,0 l/m 4,7 km/h (1 Bft) N-NO 32 0 min 0,000 mm 0,0 UV-I 0 W/m 15,4 C 18,0 C 8,0 km/h (2 Bft) 98,00 %
25.08.2017 02:22 17,9 C 22,8 C 85 % 1016,9 hPa 0,0 l/m 3,0 km/h (1 Bft) N-NW 343 0 min 0,000 mm 0,0 UV-I 0 W/m 15,3 C 17,9 C 6,4 km/h (2 Bft) 100,00 %
25.08.2017 02:24 17,9 C 22,8 C 85 % 1016,9 hPa 0,0 l/m 1,6 km/h (1 Bft) N 360 0 min 0,000 mm 0,0 UV-I 0 W/m 15,3 C 17,9 C 3,2 km/h (1 Bft) 100,00 %
25.08.2017 02:26 17,9 C 22,8 C 85 % 1017,3 hPa 0,0 l/m 2,9 km/h (1 Bft) W 270 0 min 0,000 mm 0,0 UV-I 0 W/m 15,3 C 17,9 C 4,8 km/h (1 Bft) 100,00 %
25.08.2017 02:28 17,9 C 22,8 C 85 % 1017,4 hPa 0,0 l/m 5,0 km/h (1 Bft) W-SW 247 0 min 0,000 mm 0,0 UV-I 0 W/m 15,3 C 17,9 C 6,4 km/h (2 Bft) 100,00 %
25.08.2017 02:30 17,9 C 22,8 C 85 % 1017,6 hPa 0,0 l/m 6,3 km/h (2 Bft) S-SW 207 0 min 0,000 mm 0,0 UV-I 0 W/m 15,3 C 17,9 C 9,7 km/h (2 Bft) 97,87 %
25.08.2017 02:32 17,9 C 22,8 C 85 % 1017,6 hPa 0,0 l/m 5,8 km/h (2 Bft) SW 221 0 min 0,000 mm 0,0 UV-I 0 W/m 15,3 C 17,9 C 9,7 km/h (2 Bft) 95,74 %
25.08.2017 02:34 17,9 C 22,8 C 86 % 1017,6 hPa 0,0 l/m 3,1 km/h (1 Bft) S-SW 211 0 min 0,000 mm 0,0 UV-I 0 W/m 15,5 C 17,9 C 6,4 km/h (2 Bft) 100,00 %
25.08.2017 02:36 17,9 C 22,8 C 86 % 1017,6 hPa 0,0 l/m 2,0 km/h (1 Bft) S-SW 211 0 min 0,000 mm 0,0 UV-I 0 W/m 15,5 C 17,9 C 6,4 km/h (2 Bft) 100,00 %
25.08.2017 02:38 17,8 C 22,8 C 86 % 1017,5 hPa 0,0 l/m 0,0 km/h (0 Bft) S-SW 211 0 min 0,000 mm 0,0 UV-I 0 W/m 15,4 C 17,8 C 1,6 km/h (1 Bft) 97,87 %
25.08.2017 02:40 17,8 C 22,8 C 86 % 1017,5 hPa 0,0 l/m 0,7 km/h (0 Bft) S-SW 211 0 min 0,000 mm 0,0 UV-I 0 W/m 15,4 C 17,8 C 3,2 km/h (1 Bft) 97,87 %
25.08.2017 02:42 17,8 C 22,8 C 86 % 1017,5 hPa 0,0 l/m 0,8 km/h (0 Bft) S-SW 211 0 min 0,000 mm 0,0 UV-I 0 W/m 15,4 C 17,8 C 3,2 km/h (1 Bft) 100,00 %
25.08.2017 02:44 17,8 C 22,8 C 86 % 1017,5 hPa 0,0 l/m 2,0 km/h (1 Bft) S-SW 211 0 min 0,000 mm 0,0 UV-I 0 W/m 15,4 C 17,8 C 3,2 km/h (1 Bft) 100,00 %
25.08.2017 02:46 17,7 C 22,8 C 86 % 1017,4 hPa 0,0 l/m 1,4 km/h (1 Bft) N-NW 336 0 min 0,000 mm 0,0 UV-I 0 W/m 15,3 C 17,7 C 3,2 km/h (1 Bft) 100,00 %
25.08.2017 02:48 17,6 C 22,8 C 86 % 1017,4 hPa 0,0 l/m 2,3 km/h (1 Bft) N 360 0 min 0,000 mm 0,0 UV-I 0 W/m 15,2 C 17,6 C 4,8 km/h (1 Bft) 100,00 %
25.08.2017 02:50 17,6 C 22,8 C 86 % 1017,4 hPa 0,0 l/m 2,5 km/h (1 Bft) N 9 0 min 0,000 mm 0,0 UV-I 0 W/m 15,2 C 17,6 C 4,8 km/h (1 Bft) 100,00 %
25.08.2017 02:52 17,6 C 22,8 C 87 % 1017,4 hPa 0,0 l/m 4,1 km/h (1 Bft) N-NO 29 0 min 0,000 mm 0,0 UV-I 0 W/m 15,4 C 17,6 C 6,4 km/h (2 Bft) 97,87 %
25.08.2017 02:54 17,6 C 22,2 C 87 % 1017,3 hPa 0,0 l/m 3,8 km/h (1 Bft) N-NO 30 0 min 0,000 mm 0,0 UV-I 0 W/m 15,4 C 17,6 C 4,8 km/h (1 Bft) 100,00 %
25.08.2017 02:56 17,6 C 22,2 C 87 % 1017,2 hPa 0,0 l/m 0,2 km/h (0 Bft) N-NO 30 0 min 0,000 mm 0,0 UV-I 0 W/m 15,4 C 17,6 C 1,6 km/h (1 Bft) 97,87 %
25.08.2017 02:58 17,6 C 22,2 C 87 % 1017,3 hPa 0,0 l/m 1,3 km/h (1 Bft) N 355 0 min 0,000 mm 0,0 UV-I 0 W/m 15,4 C 17,6 C 3,2 km/h (1 Bft) 97,87 %
25.08.2017 03:00 17,6 C 22,2 C 87 % 1017,3 hPa 0,0 l/m 0,3 km/h (0 Bft) N 355 0 min 0,000 mm 0,0 UV-I 0 W/m 15,4 C 17,6 C 1,6 km/h (1 Bft) 100,00 %
25.08.2017 03:02 17,6 C 22,2 C 87 % 1017,4 hPa 0,0 l/m 0,2 km/h (0 Bft) N 355 0 min 0,000 mm 0,0 UV-I 0 W/m 15,4 C 17,6 C 1,6 km/h (1 Bft) 100,00 %
25.08.2017 03:04 17,6 C 22,2 C 87 % 1017,4 hPa 0,0 l/m 1,6 km/h (1 Bft) N 355 0 min 0,000 mm 0,0 UV-I 0 W/m 15,4 C 17,6 C 3,2 km/h (1 Bft) 100,00 %
25.08.2017 03:06 17,6 C 22,2 C 87 % 1017,4 hPa 0,0 l/m 0,0 km/h (0 Bft) N 355 0 min 0,000 mm 0,0 UV-I 0 W/m 15,4 C 17,6 C 1,6 km/h (1 Bft) 100,00 %
25.08.2017 03:08 17,6 C 22,2 C 87 % 1017,5 hPa 0,0 l/m 1,9 km/h (1 Bft) N 355 0 min 0,000 mm 0,0 UV-I 0 W/m 15,4 C 17,6 C 3,2 km/h (1 Bft) 100,00 %
25.08.2017 03:10 17,6 C 22,2 C 86 % 1017,5 hPa 0,0 l/m 3,6 km/h (1 Bft) N 355 0 min 0,000 mm 0,0 UV-I 0 W/m 15,2 C 17,6 C 4,8 km/h (1 Bft) 97,87 %
25.08.2017 03:12 17,6 C 22,2 C 87 % 1017,4 hPa 0,0 l/m 3,7 km/h (1 Bft) W-NW 302 0 min 0,000 mm 0,0 UV-I 0 W/m 15,4 C 17,6 C 4,8 km/h (1 Bft) 97,87 %
25.08.2017 03:14 17,6 C 22,2 C 86 % 1017,5 hPa 0,0 l/m 2,4 km/h (1 Bft) W-NW 300 0 min 0,000 mm 0,0 UV-I 0 W/m 15,2 C 17,6 C 4,8 km/h (1 Bft) 95,74 %
25.08.2017 03:16 17,5 C 22,2 C 86 % 1017,5 hPa 0,0 l/m 2,0 km/h (1 Bft) W-NW 300 0 min 0,000 mm 0,0 UV-I 0 W/m 15,1 C 17,5 C 3,2 km/h (1 Bft) 96,00 %
25.08.2017 03:18 17,5 C 22,2 C 87 % 1017,5 hPa 0,0 l/m 2,3 km/h (1 Bft) W-NW 300 0 min 0,000 mm 0,0 UV-I 0 W/m 15,3 C 17,5 C 4,8 km/h (1 Bft) 95,74 %
25.08.2017 03:20 17,5 C 22,2 C 87 % 1017,5 hPa 0,0 l/m 3,5 km/h (1 Bft) W-NW 300 0 min 0,000 mm 0,0 UV-I 0 W/m 15,3 C 17,5 C 4,8 km/h (1 Bft) 97,37 %
25.08.2017 03:22 17,5 C 22,2 C 87 % 1017,6 hPa 0,0 l/m 2,8 km/h (1 Bft) W-NW 300 0 min 0,000 mm 0,0 UV-I 0 W/m 15,3 C 17,5 C 4,8 km/h (1 Bft) 95,74 %
25.08.2017 03:24 17,4 C 22,2 C 87 % 1017,6 hPa 0,0 l/m 1,8 km/h (1 Bft) W-NW 300 0 min 0,000 mm 0,0 UV-I 0 W/m 15,2 C 17,4 C 4,8 km/h (1 Bft) 93,62 %
25.08.2017 03:26 17,4 C 22,2 C 87 % 1017,6 hPa 0,0 l/m 3,3 km/h (1 Bft) W-NW 286 0 min 0,000 mm 0,0 UV-I 0 W/m 15,2 C 17,4 C 4,8 km/h (1 Bft) 93,62 %
25.08.2017 03:28 17,3 C 22,2 C 87 % 1017,6 hPa 0,0 l/m 3,9 km/h (1 Bft) W 261 0 min 0,000 mm 0,0 UV-I 0 W/m 15,1 C 17,3 C 6,4 km/h (2 Bft) 95,74 %
25.08.2017 03:30 17,3 C 22,2 C 87 % 1017,6 hPa 0,0 l/m 3,7 km/h (1 Bft) W 261 0 min 0,000 mm 0,0 UV-I 0 W/m 15,1 C 17,3 C 4,8 km/h (1 Bft) 95,74 %
25.08.2017 03:32 17,3 C 22,2 C 87 % 1017,6 hPa 0,0 l/m 3,7 km/h (1 Bft) W 261 0 min 0,000 mm 0,0 UV-I 0 W/m 15,1 C 17,3 C 4,8 km/h (1 Bft) 95,74 %
25.08.2017 03:34 17,3 C 22,2 C 87 % 1017,6 hPa 0,0 l/m 2,0 km/h (1 Bft) W 261 0 min 0,000 mm 0,0 UV-I 0 W/m 15,1 C 17,3 C 4,8 km/h (1 Bft) 95,74 %
25.08.2017 03:36 17,3 C 22,2 C 87 % 1017,7 hPa 0,0 l/m 1,6 km/h (1 Bft) W 260 0 min 0,000 mm 0,0 UV-I 0 W/m 15,1 C 17,3 C 3,2 km/h (1 Bft) 93,62 %
25.08.2017 03:38 17,3 C 22,2 C 87 % 1017,7 hPa 0,0 l/m 3,0 km/h (1 Bft) W-SW 257 0 min 0,000 mm 0,0 UV-I 0 W/m 15,1 C 17,3 C 4,8 km/h (1 Bft) 93,62 %
25.08.2017 03:40 17,2 C 22,2 C 87 % 1017,7 hPa 0,0 l/m 1,6 km/h (1 Bft) W-SW 257 0 min 0,000 mm 0,0 UV-I 0 W/m 15,0 C 17,2 C 4,8 km/h (1 Bft) 95,74 %
25.08.2017 03:42 17,2 C 22,2 C 87 % 1017,6 hPa 0,0 l/m 2,0 km/h (1 Bft) W-SW 256 0 min 0,000 mm 0,0 UV-I 0 W/m 15,0 C 17,2 C 4,8 km/h (1 Bft) 91,49 %
25.08.2017 03:44 17,1 C 22,2 C 87 % 1017,6 hPa 0,0 l/m 4,5 km/h (1 Bft) W-SW 256 0 min 0,000 mm 0,0 UV-I 0 W/m 14,9 C 17,1 C 4,8 km/h (1 Bft) 93,75 %
25.08.2017 03:46 17,1 C 22,2 C 88 % 1017,5 hPa 0,0 l/m 4,8 km/h (1 Bft) W-SW 246 0 min 0,000 mm 0,0 UV-I 0 W/m 15,1 C 17,1 C 6,4 km/h (2 Bft) 96,00 %
25.08.2017 03:48 17,0 C 22,2 C 88 % 1017,5 hPa 0,0 l/m 4,1 km/h (1 Bft) W-SW 243 0 min 0,000 mm 0,0 UV-I 0 W/m 15,0 C 17,0 C 6,4 km/h (2 Bft) 95,74 %
25.08.2017 03:50 16,9 C 22,2 C 88 % 1017,6 hPa 0,0 l/m 3,4 km/h (1 Bft) SW 221 0 min 0,000 mm 0,0 UV-I 0 W/m 14,9 C 16,9 C 6,4 km/h (2 Bft) 91,49 %
25.08.2017 03:52 16,9 C 22,2 C 88 % 1017,5 hPa 0,0 l/m 2,8 km/h (1 Bft) SW 217 0 min 0,000 mm 0,0 UV-I 0 W/m 14,9 C 16,9 C 4,8 km/h (1 Bft) 95,83 %
25.08.2017 03:54 16,8 C 22,2 C 89 % 1017,6 hPa 0,0 l/m 2,3 km/h (1 Bft) SW 215 0 min 0,000 mm 0,0 UV-I 0 W/m 15,0 C 16,8 C 4,8 km/h (1 Bft) 93,62 %
25.08.2017 03:56 16,8 C 22,2 C 89 % 1017,6 hPa 0,0 l/m 2,4 km/h (1 Bft) S-SW 212 0 min 0,000 mm 0,0 UV-I 0 W/m 15,0 C 16,8 C 4,8 km/h (1 Bft) 95,74 %
25.08.2017 03:58 16,8 C 22,2 C 89 % 1017,6 hPa 0,0 l/m 1,6 km/h (1 Bft) S-SW 212 0 min 0,000 mm 0,0 UV-I 0 W/m 15,0 C 16,8 C 3,2 km/h (1 Bft) 97,87 %
25.08.2017 04:00 16,8 C 22,2 C 89 % 1017,6 hPa 0,0 l/m 0,9 km/h (0 Bft) S-SW 212 0 min 0,000 mm 0,0 UV-I 0 W/m 15,0 C 16,8 C 3,2 km/h (1 Bft) 97,87 %
25.08.2017 04:02 16,7 C 22,2 C 89 % 1017,6 hPa 0,0 l/m 2,2 km/h (1 Bft) S-SW 209 0 min 0,000 mm 0,0 UV-I 0 W/m 14,9 C 16,7 C 4,8 km/h (1 Bft) 95,00 %
25.08.2017 04:04 16,7 C 22,2 C 89 % 1017,6 hPa 0,0 l/m 3,8 km/h (1 Bft) S-SW 209 0 min 0,000 mm 0,0 UV-I 0 W/m 14,9 C 16,7 C 6,4 km/h (2 Bft) 97,87 %
25.08.2017 04:06 16,7 C 22,2 C 89 % 1017,6 hPa 0,0 l/m 3,6 km/h (1 Bft) S-SW 209 0 min 0,000 mm 0,0 UV-I 0 W/m 14,9 C 16,7 C 6,4 km/h (2 Bft) 95,74 %
25.08.2017 04:08 16,7 C 22,2 C 89 % 1017,6 hPa 0,0 l/m 4,1 km/h (1 Bft) S-SW 209 0 min 0,000 mm 0,0 UV-I 0 W/m 14,9 C 16,7 C 8,0 km/h (2 Bft) 97,87 %
25.08.2017 04:10 16,7 C 22,2 C 90 % 1017,6 hPa 0,0 l/m 1,4 km/h (1 Bft) S-SW 203 0 min 0,000 mm 0,0 UV-I 0 W/m 15,0 C 16,7 C 3,2 km/h (1 Bft) 97,37 %
25.08.2017 04:12 16,6 C 22,2 C 90 % 1017,6 hPa 0,0 l/m 2,8 km/h (1 Bft) S-SW 200 0 min 0,000 mm 0,0 UV-I 0 W/m 15,0 C 16,6 C 4,8 km/h (1 Bft) 100,00 %
25.08.2017 04:14 16,6 C 22,2 C 90 % 1017,6 hPa 0,0 l/m 2,2 km/h (1 Bft) S-SW 200 0 min 0,000 mm 0,0 UV-I 0 W/m 15,0 C 16,6 C 4,8 km/h (1 Bft) 97,87 %
25.08.2017 04:16 16,6 C 22,2 C 90 % 1017,6 hPa 0,0 l/m 2,1 km/h (1 Bft) S-SW 198 0 min 0,000 mm 0,0 UV-I 0 W/m 15,0 C 16,6 C 3,2 km/h (1 Bft) 98,11 %
25.08.2017 04:18 16,6 C 22,2 C 90 % 1017,6 hPa 0,0 l/m 1,9 km/h (1 Bft) S-SW 198 0 min 0,000 mm 0,0 UV-I 0 W/m 15,0 C 16,6 C 6,4 km/h (2 Bft) 100,00 %
25.08.2017 04:20 16,5 C 22,2 C 90 % 1017,6 hPa 0,0 l/m 1,9 km/h (1 Bft) S-SW 198 0 min 0,000 mm 0,0 UV-I 0 W/m 14,9 C 16,5 C 3,2 km/h (1 Bft) 97,87 %
25.08.2017 04:22 16,5 C 22,2 C 90 % 1017,5 hPa 0,0 l/m 2,0 km/h (1 Bft) S-SW 198 0 min 0,000 mm 0,0 UV-I 0 W/m 14,9 C 16,5 C 4,8 km/h (1 Bft) 97,87 %
25.08.2017 04:24 16,5 C 22,2 C 90 % 1017,5 hPa 0,0 l/m 1,2 km/h (1 Bft) S-SW 198 0 min 0,000 mm 0,0 UV-I 0 W/m 14,9 C 16,5 C 3,2 km/h (1 Bft) 100,00 %
25.08.2017 04:26 16,4 C 22,2 C 90 % 1017,5 hPa 0,0 l/m 1,9 km/h (1 Bft) S-SW 198 0 min 0,000 mm 0,0 UV-I 0 W/m 14,8 C 16,4 C 4,8 km/h (1 Bft) 100,00 %
25.08.2017 04:28 16,4 C 22,2 C 90 % 1017,5 hPa 0,0 l/m 2,0 km/h (1 Bft) S-SW 198 0 min 0,000 mm 0,0 UV-I 0 W/m 14,8 C 16,4 C 4,8 km/h (1 Bft) 97,87 %
25.08.2017 04:30 16,4 C 22,2 C 90 % 1017,5 hPa 0,0 l/m 2,5 km/h (1 Bft) S-SW 196 0 min 0,000 mm 0,0 UV-I 0 W/m 14,8 C 16,4 C 4,8 km/h (1 Bft) 100,00 %
25.08.2017 04:32 16,4 C 22,2 C 90 % 1017,5 hPa 0,0 l/m 2,2 km/h (1 Bft) S-SW 193 0 min 0,000 mm 0,0 UV-I 0 W/m 14,8 C 16,4 C 4,8 km/h (1 Bft) 97,87 %
25.08.2017 04:34 16,3 C 22,2 C 90 % 1017,5 hPa 0,0 l/m 2,8 km/h (1 Bft) S-SW 193 0 min 0,000 mm 0,0 UV-I 0 W/m 14,7 C 16,3 C 4,8 km/h (1 Bft) 100,00 %
25.08.2017 04:36 16,3 C 22,2 C 90 % 1017,6 hPa 0,0 l/m 1,5 km/h (1 Bft) S-SW 193 0 min 0,000 mm 0,0 UV-I 0 W/m 14,7 C 16,3 C 4,8 km/h (1 Bft) 100,00 %
25.08.2017 04:38 16,3 C 22,2 C 90 % 1017,6 hPa 0,0 l/m 1,4 km/h (1 Bft) S-SW 193 0 min 0,000 mm 0,0 UV-I 0 W/m 14,7 C 16,3 C 3,2 km/h (1 Bft) 100,00 %
25.08.2017 04:40 16,3 C 22,2 C 90 % 1017,5 hPa 0,0 l/m 1,4 km/h (1 Bft) S-SW 193 0 min 0,000 mm 0,0 UV-I 0 W/m 14,7 C 16,3 C 4,8 km/h (1 Bft) 100,00 %
25.08.2017 04:42 16,3 C 22,2 C 90 % 1017,5 hPa 0,0 l/m 0,7 km/h (0 Bft) S-SW 193 0 min 0,000 mm 0,0 UV-I 0 W/m 14,7 C 16,3 C 4,8 km/h (1 Bft) 100,00 %
25.08.2017 04:44 16,3 C 22,2 C 90 % 1017,5 hPa 0,0 l/m 1,0 km/h (0 Bft) S-SW 193 0 min 0,000 mm 0,0 UV-I 0 W/m 14,7 C 16,3 C 3,2 km/h (1 Bft) 100,00 %
25.08.2017 04:46 16,2 C 22,2 C 90 % 1017,5 hPa 0,0 l/m 1,6 km/h (1 Bft) S-SW 193 0 min 0,000 mm 0,0 UV-I 0 W/m 14,6 C 16,2 C 3,2 km/h (1 Bft) 100,00 %
25.08.2017 04:48 16,2 C 22,2 C 90 % 1017,5 hPa 0,0 l/m 1,3 km/h (1 Bft) S-SW 193 0 min 0,000 mm 0,0 UV-I 0 W/m 14,6 C 16,2 C 3,2 km/h (1 Bft) 100,00 %
25.08.2017 04:50 16,2 C 22,2 C 90 % 1017,4 hPa 0,0 l/m 0,1 km/h (0 Bft) S-SW 193 0 min 0,000 mm 0,0 UV-I 0 W/m 14,6 C 16,2 C 1,6 km/h (1 Bft) 100,00 %
25.08.2017 04:52 16,2 C 22,2 C 91 % 1017,5 hPa 0,0 l/m 0,3 km/h (0 Bft) S-SW 193 0 min 0,000 mm 0,0 UV-I 0 W/m 14,7 C 16,2 C 1,6 km/h (1 Bft) 97,87 %
25.08.2017 04:54 16,1 C 22,2 C 91 % 1017,5 hPa 0,0 l/m 1,7 km/h (1 Bft) S-SW 193 0 min 0,000 mm 0,0 UV-I 0 W/m 14,6 C 16,1 C 3,2 km/h (1 Bft) 97,87 %
25.08.2017 04:56 16,1 C 22,2 C 91 % 1017,6 hPa 0,0 l/m 2,0 km/h (1 Bft) S-SW 193 0 min 0,000 mm 0,0 UV-I 0 W/m 14,6 C 16,1 C 3,2 km/h (1 Bft) 97,87 %
25.08.2017 04:58 16,1 C 22,2 C 91 % 1017,6 hPa 0,0 l/m 3,0 km/h (1 Bft) S-SW 193 0 min 0,000 mm 0,0 UV-I 0 W/m 14,6 C 16,1 C 4,8 km/h (1 Bft) 95,74 %
25.08.2017 05:00 16,1 C 22,2 C 91 % 1017,6 hPa 0,0 l/m 2,3 km/h (1 Bft) S-SW 193 0 min 0,000 mm 0,0 UV-I 0 W/m 14,6 C 16,1 C 3,2 km/h (1 Bft) 100,00 %
25.08.2017 05:02 16,0 C 22,2 C 91 % 1017,6 hPa 0,0 l/m 0,3 km/h (0 Bft) S-SW 193 0 min 0,000 mm 0,0 UV-I 0 W/m 14,5 C 16,0 C 1,6 km/h (1 Bft) 100,00 %
25.08.2017 05:04 15,9 C 22,2 C 91 % 1017,6 hPa 0,0 l/m 0,6 km/h (0 Bft) S-SW 193 0 min 0,000 mm 0,0 UV-I 0 W/m 14,4 C 15,9 C 1,6 km/h (1 Bft) 95,74 %
25.08.2017 05:06 15,9 C 22,2 C 91 % 1017,6 hPa 0,0 l/m 0,3 km/h (0 Bft) S-SW 193 0 min 0,000 mm 0,0 UV-I 0 W/m 14,4 C 15,9 C 1,6 km/h (1 Bft) 95,83 %
25.08.2017 05:08 15,8 C 22,2 C 91 % 1017,5 hPa 0,0 l/m 0,8 km/h (0 Bft) S-SW 193 0 min 0,000 mm 0,0 UV-I 0 W/m 14,3 C 15,8 C 3,2 km/h (1 Bft) 100,00 %
25.08.2017 05:10 15,8 C 22,2 C 91 % 1017,5 hPa 0,0 l/m 0,9 km/h (0 Bft) S-SW 193 0 min 0,000 mm 0,0 UV-I 0 W/m 14,3 C 15,8 C 3,2 km/h (1 Bft) 100,00 %
25.08.2017 05:12 15,8 C 22,2 C 92 % 1017,5 hPa 0,0 l/m 1,2 km/h (1 Bft) S-SW 193 0 min 0,000 mm 0,0 UV-I 0 W/m 14,5 C 15,8 C 4,8 km/h (1 Bft) 100,00 %
25.08.2017 05:14 15,7 C 22,2 C 92 % 1017,5 hPa 0,0 l/m 1,7 km/h (1 Bft) S-SW 193 0 min 0,000 mm 0,0 UV-I 0 W/m 14,4 C 15,7 C 3,2 km/h (1 Bft) 100,00 %
25.08.2017 05:16 15,7 C 22,2 C 92 % 1017,5 hPa 0,0 l/m 2,0 km/h (1 Bft) S-SW 193 0 min 0,000 mm 0,0 UV-I 0 W/m 14,4 C 15,7 C 3,2 km/h (1 Bft) 100,00 %
25.08.2017 05:18 15,7 C 22,2 C 92 % 1017,5 hPa 0,0 l/m 1,4 km/h (1 Bft) S-SW 193 0 min 0,000 mm 0,0 UV-I 0 W/m 14,4 C 15,7 C 3,2 km/h (1 Bft) 100,00 %
25.08.2017 05:20 15,7 C 22,2 C 92 % 1017,5 hPa 0,0 l/m 3,2 km/h (1 Bft) S-SW 193 0 min 0,000 mm 0,0 UV-I 0 W/m 14,4 C 15,7 C 4,8 km/h (1 Bft) 100,00 %
25.08.2017 05:22 15,7 C 22,2 C 92 % 1017,5 hPa 0,0 l/m 1,5 km/h (1 Bft) S-SW 193 0 min 0,000 mm 0,0 UV-I 0 W/m 14,4 C 15,7 C 4,8 km/h (1 Bft) 95,74 %
25.08.2017 05:24 15,6 C 22,2 C 92 % 1017,5 hPa 0,0 l/m 1,2 km/h (1 Bft) S-SW 193 0 min 0,000 mm 0,0 UV-I 0 W/m 14,3 C 15,6 C 3,2 km/h (1 Bft) 98,00 %
25.08.2017 05:26 15,6 C 22,2 C 92 % 1017,5 hPa 0,0 l/m 0,5 km/h (0 Bft) S-SW 193 0 min 0,000 mm 0,0 UV-I 0 W/m 14,3 C 15,6 C 1,6 km/h (1 Bft) 97,87 %
25.08.2017 05:28 15,5 C 22,2 C 92 % 1017,5 hPa 0,0 l/m 0,8 km/h (0 Bft) S-SW 193 0 min 0,000 mm 0,0 UV-I 0 W/m 14,2 C 15,5 C 3,2 km/h (1 Bft) 97,87 %
25.08.2017 05:30 15,4 C 22,2 C 92 % 1017,5 hPa 0,0 l/m 2,4 km/h (1 Bft) S-SW 193 0 min 0,000 mm 0,0 UV-I 0 W/m 14,1 C 15,4 C 4,8 km/h (1 Bft) 97,37 %
25.08.2017 05:32 15,4 C 22,2 C 92 % 1017,5 hPa 0,0 l/m 1,5 km/h (1 Bft) S-SW 193 0 min 0,000 mm 0,0 UV-I 0 W/m 14,1 C 15,4 C 3,2 km/h (1 Bft) 97,87 %
25.08.2017 05:34 15,5 C 22,2 C 92 % 1017,5 hPa 0,0 l/m 3,4 km/h (1 Bft) S-SW 193 0 min 0,000 mm 0,0 UV-I 0 W/m 14,2 C 15,5 C 6,4 km/h (2 Bft) 95,92 %
25.08.2017 05:36 15,5 C 22,2 C 93 % 1017,5 hPa 0,0 l/m 1,4 km/h (1 Bft) S 176 0 min 0,000 mm 0,0 UV-I 0 W/m 14,4 C 15,5 C 4,8 km/h (1 Bft) 95,74 %
25.08.2017 05:38 15,6 C 22,2 C 92 % 1017,5 hPa 0,0 l/m 2,0 km/h (1 Bft) S 176 0 min 0,000 mm 0,0 UV-I 0 W/m 14,3 C 15,6 C 6,4 km/h (2 Bft) 95,74 %
25.08.2017 05:40 15,6 C 22,2 C 92 % 1017,5 hPa 0,0 l/m 3,1 km/h (1 Bft) S 173 0 min 0,000 mm 0,0 UV-I 0 W/m 14,3 C 15,6 C 8,0 km/h (2 Bft) 95,74 %
25.08.2017 05:42 15,6 C 22,2 C 92 % 1017,5 hPa 0,0 l/m 4,5 km/h (1 Bft) S 170 0 min 0,000 mm 0,0 UV-I 0 W/m 14,3 C 15,6 C 11,3 km/h (2 Bft) 96,00 %
25.08.2017 05:44 15,7 C 22,2 C 92 % 1017,6 hPa 0,0 l/m 3,8 km/h (1 Bft) S 178 0 min 0,000 mm 0,0 UV-I 0 W/m 14,4 C 15,7 C 8,0 km/h (2 Bft) 97,56 %
25.08.2017 05:46 15,7 C 22,2 C 92 % 1017,6 hPa 0,0 l/m 2,0 km/h (1 Bft) S 178 0 min 0,000 mm 0,0 UV-I 0 W/m 14,4 C 15,7 C 4,8 km/h (1 Bft) 97,87 %
25.08.2017 05:48 15,7 C 22,2 C 93 % 1017,6 hPa 0,0 l/m 2,7 km/h (1 Bft) S 178 0 min 0,000 mm 0,0 UV-I 0 W/m 14,6 C 15,7 C 6,4 km/h (2 Bft) 98,00 %
25.08.2017 05:50 15,8 C 22,2 C 92 % 1017,7 hPa 0,0 l/m 3,9 km/h (1 Bft) S 180 0 min 0,000 mm 0,0 UV-I 0 W/m 14,5 C 15,8 C 6,4 km/h (2 Bft) 93,62 %
25.08.2017 05:52 15,8 C 22,2 C 92 % 1017,7 hPa 0,0 l/m 4,3 km/h (1 Bft) S 188 0 min 0,000 mm 0,0 UV-I 0 W/m 14,5 C 15,8 C 6,4 km/h (2 Bft) 95,74 %
25.08.2017 05:54 15,8 C 22,2 C 92 % 1017,7 hPa 0,0 l/m 4,5 km/h (1 Bft) S-SW 192 0 min 0,000 mm 0,0 UV-I 0 W/m 14,5 C 15,8 C 9,7 km/h (2 Bft) 93,88 %
25.08.2017 05:56 15,8 C 22,2 C 92 % 1017,7 hPa 0,0 l/m 5,3 km/h (1 Bft) S-SW 198 0 min 0,000 mm 0,0 UV-I 0 W/m 14,5 C 15,8 C 9,7 km/h (2 Bft) 100,00 %
25.08.2017 05:58 15,8 C 22,2 C 92 % 1017,7 hPa 0,0 l/m 4,2 km/h (1 Bft) S 173 0 min 0,000 mm 0,0 UV-I 0 W/m 14,5 C 15,8 C 8,0 km/h (2 Bft) 100,00 %
25.08.2017 06:00 15,8 C 22,2 C 92 % 1017,7 hPa 0,0 l/m 3,3 km/h (1 Bft) S 183 0 min 0,000 mm 0,0 UV-I 4 W/m 14,5 C 15,8 C 6,4 km/h (2 Bft) 100,00 %
25.08.2017 06:02 15,8 C 22,2 C 92 % 1017,7 hPa 0,0 l/m 3,7 km/h (1 Bft) S 185 0 min 0,000 mm 0,0 UV-I 5 W/m 14,5 C 15,8 C 4,8 km/h (1 Bft) 97,87 %
25.08.2017 06:04 15,8 C 22,2 C 92 % 1017,7 hPa 0,0 l/m 3,3 km/h (1 Bft) S 185 0 min 0,000 mm 0,0 UV-I 5 W/m 14,5 C 15,8 C 4,8 km/h (1 Bft) 100,00 %
25.08.2017 06:06 15,7 C 22,2 C 92 % 1017,7 hPa 0,0 l/m 4,5 km/h (1 Bft) S 180 0 min 0,000 mm 0,0 UV-I 5 W/m 14,4 C 15,7 C 8,0 km/h (2 Bft) 100,00 %
25.08.2017 06:08 15,7 C 22,2 C 92 % 1017,7 hPa 0,0 l/m 3,2 km/h (1 Bft) S 176 0 min 0,000 mm 0,0 UV-I 5 W/m 14,4 C 15,7 C 4,8 km/h (1 Bft) 100,00 %
25.08.2017 06:10 15,7 C 22,2 C 92 % 1017,7 hPa 0,0 l/m 3,6 km/h (1 Bft) S 189 0 min 0,000 mm 0,0 UV-I 6 W/m 14,4 C 15,7 C 6,4 km/h (2 Bft) 100,00 %
25.08.2017 06:12 15,7 C 22,2 C 92 % 1017,7 hPa 0,0 l/m 3,5 km/h (1 Bft) S-SW 195 0 min 0,000 mm 0,0 UV-I 7 W/m 14,4 C 15,7 C 6,4 km/h (2 Bft) 100,00 %
25.08.2017 06:14 15,7 C 22,2 C 92 % 1017,7 hPa 0,0 l/m 3,3 km/h (1 Bft) S 186 0 min 0,000 mm 0,0 UV-I 7 W/m 14,4 C 15,7 C 8,0 km/h (2 Bft) 100,00 %
25.08.2017 06:16 15,7 C 22,2 C 92 % 1017,8 hPa 0,0 l/m 4,3 km/h (1 Bft) S 186 0 min 0,000 mm 0,0 UV-I 7 W/m 14,4 C 15,7 C 6,4 km/h (2 Bft) 97,96 %
25.08.2017 06:18 15,7 C 22,2 C 92 % 1017,8 hPa 0,0 l/m 2,7 km/h (1 Bft) S 186 0 min 0,000 mm 0,0 UV-I 9 W/m 14,4 C 15,7 C 4,8 km/h (1 Bft) 100,00 %
25.08.2017 06:20 15,7 C 22,2 C 92 % 1017,8 hPa 0,0 l/m 3,9 km/h (1 Bft) S 187 0 min 0,000 mm 0,0 UV-I 9 W/m 14,4 C 15,7 C 6,4 km/h (2 Bft) 100,00 %
25.08.2017 06:22 15,7 C 22,2 C 92 % 1017,9 hPa 0,0 l/m 4,1 km/h (1 Bft) S-SW 196 0 min 0,000 mm 0,0 UV-I 11 W/m 14,4 C 15,7 C 6,4 km/h (2 Bft) 100,00 %
25.08.2017 06:24 15,7 C 22,2 C 92 % 1018,0 hPa 0,0 l/m 4,9 km/h (1 Bft) S-SW 209 2 min 0,000 mm 0,0 UV-I 12 W/m 14,4 C 15,7 C 6,4 km/h (2 Bft) 100,00 %
25.08.2017 06:26 15,7 C 22,2 C 92 % 1017,9 hPa 0,0 l/m 4,2 km/h (1 Bft) S-SW 209 0 min 0,000 mm 0,0 UV-I 12 W/m 14,4 C 15,7 C 6,4 km/h (2 Bft) 100,00 %
25.08.2017 06:28 15,7 C 22,2 C 92 % 1017,9 hPa 0,0 l/m 4,5 km/h (1 Bft) S-SW 209 0 min 0,000 mm 0,0 UV-I 14 W/m 14,4 C 15,7 C 6,4 km/h (2 Bft) 100,00 %
25.08.2017 06:30 15,6 C 22,2 C 92 % 1017,9 hPa 0,0 l/m 2,9 km/h (1 Bft) S-SW 209 0 min 0,000 mm 0,0 UV-I 17 W/m 14,3 C 15,6 C 6,4 km/h (2 Bft) 97,87 %
25.08.2017 06:32 15,6 C 22,2 C 92 % 1018,0 hPa 0,0 l/m 3,9 km/h (1 Bft) S-SW 209 0 min 0,000 mm 0,0 UV-I 15 W/m 14,3 C 15,6 C 8,0 km/h (2 Bft) 100,00 %
25.08.2017 06:34 15,6 C 22,2 C 92 % 1018,0 hPa 0,0 l/m 4,1 km/h (1 Bft) S-SW 210 0 min 0,000 mm 0,0 UV-I 16 W/m 14,3 C 15,6 C 6,4 km/h (2 Bft) 100,00 %
25.08.2017 06:36 15,6 C 22,2 C 93 % 1018,0 hPa 0,0 l/m 4,1 km/h (1 Bft) S-SW 210 0 min 0,000 mm 0,0 UV-I 16 W/m 14,5 C 15,6 C 6,4 km/h (2 Bft) 100,00 %
25.08.2017 06:38 15,6 C 22,2 C 93 % 1018,0 hPa 0,0 l/m 3,8 km/h (1 Bft) S-SW 211 0 min 0,000 mm 0,0 UV-I 18 W/m 14,5 C 15,6 C 4,8 km/h (1 Bft) 100,00 %
25.08.2017 06:40 15,6 C 22,2 C 93 % 1018,0 hPa 0,0 l/m 4,6 km/h (1 Bft) S-SW 211 0 min 0,000 mm 0,0 UV-I 19 W/m 14,5 C 15,6 C 6,4 km/h (2 Bft) 98,00 %
25.08.2017 06:42 15,6 C 22,2 C 93 % 1018,0 hPa 0,0 l/m 4,7 km/h (1 Bft) S-SW 209 0 min 0,000 mm 0,0 UV-I 20 W/m 14,5 C 15,6 C 8,0 km/h (2 Bft) 100,00 %
25.08.2017 06:44 15,6 C 22,2 C 93 % 1018,0 hPa 0,0 l/m 5,8 km/h (2 Bft) SW 221 0 min 0,000 mm 0,0 UV-I 21 W/m 14,5 C 15,6 C 8,0 km/h (2 Bft) 100,00 %
25.08.2017 06:46 15,6 C 22,2 C 93 % 1018,1 hPa 0,0 l/m 5,9 km/h (2 Bft) SW 220 0 min 0,000 mm 0,0 UV-I 23 W/m 14,5 C 15,6 C 9,7 km/h (2 Bft) 100,00 %
25.08.2017 06:48 15,6 C 22,2 C 93 % 1018,0 hPa 0,0 l/m 6,4 km/h (2 Bft) S-SW 210 0 min 0,000 mm 0,0 UV-I 25 W/m 14,5 C 15,6 C 9,7 km/h (2 Bft) 97,87 %
25.08.2017 06:50 15,7 C 22,2 C 93 % 1018,0 hPa 0,0 l/m 6,0 km/h (2 Bft) S-SW 207 0 min 0,000 mm 0,0 UV-I 26 W/m 14,6 C 15,7 C 9,7 km/h (2 Bft) 91,49 %
25.08.2017 06:52 15,7 C 22,2 C 93 % 1018,0 hPa 0,0 l/m 4,9 km/h (1 Bft) S 170 0 min 0,000 mm 0,0 UV-I 27 W/m 14,6 C 15,7 C 8,0 km/h (2 Bft) 98,00 %
25.08.2017 06:54 15,7 C 22,2 C 93 % 1018,0 hPa 0,0 l/m 4,5 km/h (1 Bft) S-SW 211 0 min 0,000 mm 0,0 UV-I 28 W/m 14,6 C 15,7 C 8,0 km/h (2 Bft) 97,14 %
25.08.2017 06:56 15,7 C 22,2 C 93 % 1018,0 hPa 0,0 l/m 3,6 km/h (1 Bft) SW 223 0 min 0,000 mm 0,0 UV-I 30 W/m 14,6 C 15,7 C 9,7 km/h (2 Bft) 94,00 %
25.08.2017 06:58 15,7 C 22,2 C 93 % 1018,1 hPa 0,0 l/m 4,8 km/h (1 Bft) S-SW 206 0 min 0,000 mm 0,0 UV-I 32 W/m 14,6 C 15,7 C 6,4 km/h (2 Bft) 97,92 %
25.08.2017 07:00 15,7 C 22,2 C 93 % 1018,1 hPa 0,0 l/m 5,3 km/h (1 Bft) SW 231 0 min 0,026 mm 0,0 UV-I 33 W/m 14,6 C 15,7 C 8,0 km/h (2 Bft) 95,74 %
25.08.2017 07:02 15,7 C 22,2 C 93 % 1018,1 hPa 0,0 l/m 3,9 km/h (1 Bft) SW 230 0 min 0,000 mm 0,0 UV-I 36 W/m 14,6 C 15,7 C 6,4 km/h (2 Bft) 95,74 %
25.08.2017 07:04 15,7 C 22,2 C 93 % 1018,1 hPa 0,0 l/m 2,5 km/h (1 Bft) SW 230 0 min 0,000 mm 0,0 UV-I 58 W/m 14,6 C 15,7 C 3,2 km/h (1 Bft) 97,87 %
25.08.2017 07:06 15,7 C 22,2 C 93 % 1018,2 hPa 0,0 l/m 2,6 km/h (1 Bft) SW 230 0 min 0,000 mm 0,0 UV-I 71 W/m 14,6 C 15,7 C 4,8 km/h (1 Bft) 95,74 %
25.08.2017 07:08 15,8 C 22,2 C 93 % 1018,2 hPa 0,0 l/m 1,6 km/h (1 Bft) SW 230 0 min 0,000 mm 0,0 UV-I 44 W/m 14,7 C 15,8 C 4,8 km/h (1 Bft) 97,87 %
25.08.2017 07:10 15,8 C 22,2 C 93 % 1018,2 hPa 0,0 l/m 2,9 km/h (1 Bft) SW 230 0 min 0,000 mm 0,0 UV-I 41 W/m 14,7 C 15,8 C 4,8 km/h (1 Bft) 96,00 %
25.08.2017 07:12 15,8 C 22,2 C 93 % 1018,2 hPa 0,0 l/m 3,3 km/h (1 Bft) SW 230 0 min 0,000 mm 0,0 UV-I 43 W/m 14,7 C 15,8 C 4,8 km/h (1 Bft) 95,74 %
25.08.2017 07:14 15,8 C 22,2 C 93 % 1018,2 hPa 0,0 l/m 2,5 km/h (1 Bft) SW 230 0 min 0,000 mm 0,0 UV-I 60 W/m 14,7 C 15,8 C 4,8 km/h (1 Bft) 93,62 %
25.08.2017 07:16 15,8 C 22,2 C 93 % 1018,2 hPa 0,0 l/m 2,1 km/h (1 Bft) SW 230 0 min 0,000 mm 0,0 UV-I 84 W/m 14,7 C 15,8 C 3,2 km/h (1 Bft) 97,87 %
25.08.2017 07:18 15,8 C 22,2 C 93 % 1018,2 hPa 0,0 l/m 2,1 km/h (1 Bft) SW 230 0 min 0,000 mm 0,0 UV-I 47 W/m 14,7 C 15,8 C 3,2 km/h (1 Bft) 95,74 %
25.08.2017 07:20 15,8 C 22,2 C 93 % 1018,2 hPa 0,0 l/m 3,3 km/h (1 Bft) SW 230 0 min 0,000 mm 0,0 UV-I 48 W/m 14,7 C 15,8 C 4,8 km/h (1 Bft) 95,74 %
25.08.2017 07:22 15,8 C 22,2 C 93 % 1018,2 hPa 0,0 l/m 2,7 km/h (1 Bft) SW 230 0 min 0,000 mm 0,0 UV-I 52 W/m 14,7 C 15,8 C 4,8 km/h (1 Bft) 97,87 %
25.08.2017 07:24 15,8 C 22,2 C 93 % 1018,2 hPa 0,0 l/m 0,7 km/h (0 Bft) SW 230 0 min 0,000 mm 0,0 UV-I 94 W/m 14,7 C 15,8 C 1,6 km/h (1 Bft) 95,74 %
25.08.2017 07:26 15,8 C 22,2 C 93 % 1018,3 hPa 0,0 l/m 0,5 km/h (0 Bft) SW 230 2 min 0,000 mm 0,0 UV-I 146 W/m 14,7 C 15,8 C 3,2 km/h (1 Bft) 93,62 %
25.08.2017 07:28 15,9 C 22,2 C 93 % 1018,3 hPa 0,0 l/m 0,4 km/h (0 Bft) SW 230 2 min 0,000 mm 0,0 UV-I 149 W/m 14,8 C 15,9 C 1,6 km/h (1 Bft) 93,62 %
25.08.2017 07:30 15,9 C 22,2 C 92 % 1018,3 hPa 0,0 l/m 0,0 km/h (0 Bft) SW 230 2 min 0,000 mm 0,0 UV-I 142 W/m 14,6 C 15,9 C 0,0 km/h (0 Bft) 93,62 %
25.08.2017 07:32 16,1 C 22,2 C 92 % 1018,4 hPa 0,0 l/m 0,0 km/h (0 Bft) SW 230 2 min 0,000 mm 0,0 UV-I 161 W/m 14,8 C 16,1 C 0,0 km/h (0 Bft) 95,74 %
25.08.2017 07:34 16,2 C 22,2 C 92 % 1018,3 hPa 0,0 l/m 0,8 km/h (0 Bft) SW 230 2 min 0,000 mm 0,0 UV-I 166 W/m 14,9 C 16,2 C 1,6 km/h (1 Bft) 91,49 %
25.08.2017 07:36 16,3 C 22,2 C 92 % 1018,3 hPa 0,0 l/m 3,2 km/h (1 Bft) SW 230 2 min 0,000 mm 0,0 UV-I 171 W/m 15,0 C 16,3 C 4,8 km/h (1 Bft) 95,74 %
25.08.2017 07:38 16,3 C 22,2 C 92 % 1018,3 hPa 0,0 l/m 1,4 km/h (1 Bft) SW 230 2 min 0,000 mm 0,0 UV-I 153 W/m 15,0 C 16,3 C 4,8 km/h (1 Bft) 93,62 %
25.08.2017 07:40 16,3 C 22,2 C 92 % 1018,2 hPa 0,0 l/m 1,3 km/h (1 Bft) SW 230 0 min 0,000 mm 0,0 UV-I 85 W/m 15,0 C 16,3 C 3,2 km/h (1 Bft) 95,83 %
25.08.2017 07:42 16,4 C 22,2 C 92 % 1018,3 hPa 0,0 l/m 2,6 km/h (1 Bft) S-SW 192 0 min 0,000 mm 0,0 UV-I 69 W/m 15,1 C 16,4 C 4,8 km/h (1 Bft) 93,62 %
25.08.2017 07:44 16,4 C 22,2 C 92 % 1018,3 hPa 0,0 l/m 2,9 km/h (1 Bft) S-SW 192 0 min 0,000 mm 0,0 UV-I 87 W/m 15,1 C 16,4 C 4,8 km/h (1 Bft) 95,74 %
25.08.2017 07:46 16,5 C 22,2 C 91 % 1018,3 hPa 0,0 l/m 3,5 km/h (1 Bft) S-SW 192 0 min 0,000 mm 0,0 UV-I 120 W/m 15,0 C 16,5 C 4,8 km/h (1 Bft) 95,74 %
25.08.2017 07:48 16,6 C 22,2 C 91 % 1018,3 hPa 0,0 l/m 2,6 km/h (1 Bft) S-SW 192 2 min 0,000 mm 0,0 UV-I 179 W/m 15,1 C 16,6 C 4,8 km/h (1 Bft) 94,29 %
25.08.2017 07:50 16,6 C 22,2 C 91 % 1018,3 hPa 0,0 l/m 3,8 km/h (1 Bft) S-SW 192 2 min 0,000 mm 0,0 UV-I 167 W/m 15,1 C 16,6 C 4,8 km/h (1 Bft) 97,87 %
25.08.2017 07:52 16,7 C 22,2 C 91 % 1018,2 hPa 0,0 l/m 2,7 km/h (1 Bft) S-SW 192 2 min 0,000 mm 0,0 UV-I 217 W/m 15,2 C 16,7 C 4,8 km/h (1 Bft) 95,74 %
25.08.2017 07:54 16,8 C 22,2 C 91 % 1018,2 hPa 0,0 l/m 3,4 km/h (1 Bft) S-SW 192 2 min 0,000 mm 0,0 UV-I 221 W/m 15,3 C 16,8 C 6,4 km/h (2 Bft) 100,00 %
25.08.2017 07:56 16,9 C 22,2 C 91 % 1018,2 hPa 0,0 l/m 5,6 km/h (1 Bft) S-SW 194 2 min 0,000 mm 0,0 UV-I 225 W/m 15,4 C 16,9 C 6,4 km/h (2 Bft) 94,00 %
25.08.2017 07:58 17,1 C 22,2 C 90 % 1018,2 hPa 0,0 l/m 4,8 km/h (1 Bft) S-SW 213 2 min 0,000 mm 0,0 UV-I 233 W/m 15,4 C 17,1 C 6,4 km/h (2 Bft) 95,74 %
25.08.2017 08:00 17,2 C 22,2 C 91 % 1018,2 hPa 0,0 l/m 3,2 km/h (1 Bft) SW 221 2 min 0,076 mm 0,3 UV-I 238 W/m 15,7 C 17,2 C 4,8 km/h (1 Bft) 97,87 %
25.08.2017 08:02 17,3 C 22,2 C 90 % 1018,3 hPa 0,0 l/m 2,4 km/h (1 Bft) SW 221 2 min 0,000 mm 0,5 UV-I 244 W/m 15,6 C 17,3 C 4,8 km/h (1 Bft) 100,00 %
25.08.2017 08:04 17,3 C 22,2 C 90 % 1018,3 hPa 0,0 l/m 3,3 km/h (1 Bft) SW 221 2 min 0,000 mm 0,5 UV-I 251 W/m 15,6 C 17,3 C 4,8 km/h (1 Bft) 100,00 %
25.08.2017 08:06 17,4 C 22,2 C 89 % 1018,3 hPa 0,0 l/m 2,8 km/h (1 Bft) SW 221 2 min 0,000 mm 0,5 UV-I 257 W/m 15,6 C 17,4 C 4,8 km/h (1 Bft) 100,00 %
25.08.2017 08:08 17,5 C 22,2 C 89 % 1018,3 hPa 0,0 l/m 2,4 km/h (1 Bft) SW 221 2 min 0,000 mm 0,5 UV-I 261 W/m 15,7 C 17,5 C 4,8 km/h (1 Bft) 95,74 %
25.08.2017 08:10 17,6 C 22,2 C 89 % 1018,3 hPa 0,0 l/m 4,2 km/h (1 Bft) SW 221 2 min 0,000 mm 0,6 UV-I 269 W/m 15,8 C 17,6 C 4,8 km/h (1 Bft) 100,00 %
25.08.2017 08:12 17,6 C 22,2 C 88 % 1018,4 hPa 0,0 l/m 4,0 km/h (1 Bft) SW 223 2 min 0,000 mm 0,6 UV-I 275 W/m 15,6 C 17,6 C 6,4 km/h (2 Bft) 100,00 %
25.08.2017 08:14 17,7 C 22,2 C 89 % 1018,3 hPa 0,0 l/m 2,4 km/h (1 Bft) SW 223 2 min 0,000 mm 0,6 UV-I 282 W/m 15,9 C 17,7 C 4,8 km/h (1 Bft) 100,00 %
25.08.2017 08:16 17,8 C 22,2 C 88 % 1018,4 hPa 0,0 l/m 3,3 km/h (1 Bft) SW 223 2 min 0,000 mm 0,6 UV-I 289 W/m 15,8 C 17,8 C 4,8 km/h (1 Bft) 100,00 %
25.08.2017 08:18 17,8 C 22,2 C 88 % 1018,4 hPa 0,0 l/m 3,9 km/h (1 Bft) SW 223 2 min 0,000 mm 0,7 UV-I 296 W/m 15,8 C 17,8 C 4,8 km/h (1 Bft) 100,00 %
25.08.2017 08:20 17,9 C 22,2 C 88 % 1018,3 hPa 0,0 l/m 3,3 km/h (1 Bft) SW 223 2 min 0,000 mm 0,7 UV-I 301 W/m 15,9 C 17,9 C 4,8 km/h (1 Bft) 97,87 %
25.08.2017 08:22 17,9 C 22,2 C 87 % 1018,4 hPa 0,0 l/m 2,7 km/h (1 Bft) SW 223 2 min 0,000 mm 0,7 UV-I 305 W/m 15,7 C 17,9 C 4,8 km/h (1 Bft) 100,00 %
25.08.2017 08:24 18,1 C 22,2 C 88 % 1018,4 hPa 0,0 l/m 1,2 km/h (1 Bft) SW 223 2 min 0,000 mm 0,7 UV-I 302 W/m 16,1 C 18,1 C 3,2 km/h (1 Bft) 100,00 %
25.08.2017 08:26 18,2 C 22,2 C 87 % 1018,4 hPa 0,0 l/m 2,4 km/h (1 Bft) SW 223 2 min 0,000 mm 0,8 UV-I 316 W/m 16,0 C 18,2 C 4,8 km/h (1 Bft) 98,00 %
25.08.2017 08:28 18,3 C 22,2 C 87 % 1018,3 hPa 0,0 l/m 3,8 km/h (1 Bft) S-SW 195 2 min 0,000 mm 0,8 UV-I 323 W/m 16,1 C 18,3 C 8,0 km/h (2 Bft) 100,00 %
25.08.2017 08:30 18,4 C 22,2 C 87 % 1018,3 hPa 0,0 l/m 1,9 km/h (1 Bft) S-SW 195 2 min 0,000 mm 0,8 UV-I 325 W/m 16,2 C 18,4 C 4,8 km/h (1 Bft) 100,00 %
25.08.2017 08:32 18,6 C 22,2 C 86 % 1018,3 hPa 0,0 l/m 3,4 km/h (1 Bft) S-SW 195 2 min 0,000 mm 0,9 UV-I 333 W/m 16,2 C 18,6 C 6,4 km/h (2 Bft) 100,00 %
25.08.2017 08:34 18,7 C 22,2 C 86 % 1018,3 hPa 0,0 l/m 1,6 km/h (1 Bft) S-SW 195 2 min 0,000 mm 0,9 UV-I 338 W/m 16,3 C 18,7 C 3,2 km/h (1 Bft) 97,87 %
25.08.2017 08:36 18,8 C 22,2 C 85 % 1018,4 hPa 0,0 l/m 3,5 km/h (1 Bft) S 184 2 min 0,000 mm 0,9 UV-I 345 W/m 16,2 C 18,8 C 6,4 km/h (2 Bft) 100,00 %
25.08.2017 08:38 18,8 C 22,2 C 84 % 1018,4 hPa 0,0 l/m 3,9 km/h (1 Bft) S 180 2 min 0,000 mm 0,9 UV-I 352 W/m 16,0 C 18,8 C 6,4 km/h (2 Bft) 100,00 %
25.08.2017 08:40 18,8 C 22,2 C 85 % 1018,4 hPa 0,0 l/m 2,9 km/h (1 Bft) S 174 2 min 0,000 mm 1,0 UV-I 353 W/m 16,2 C 18,8 C 4,8 km/h (1 Bft) 97,87 %
25.08.2017 08:42 18,8 C 22,2 C 84 % 1018,4 hPa 0,0 l/m 3,5 km/h (1 Bft) S 173 2 min 0,000 mm 1,0 UV-I 357 W/m 16,0 C 18,8 C 8,0 km/h (2 Bft) 97,87 %
25.08.2017 08:44 18,8 C 22,2 C 84 % 1018,4 hPa 0,0 l/m 3,4 km/h (1 Bft) S-SO 168 2 min 0,000 mm 1,0 UV-I 356 W/m 16,0 C 18,8 C 6,4 km/h (2 Bft) 97,87 %
25.08.2017 08:46 18,9 C 22,2 C 84 % 1018,5 hPa 0,0 l/m 1,6 km/h (1 Bft) S-SO 168 2 min 0,000 mm 1,1 UV-I 372 W/m 16,1 C 18,9 C 3,2 km/h (1 Bft) 97,87 %
25.08.2017 08:48 19,0 C 22,2 C 84 % 1018,4 hPa 0,0 l/m 1,0 km/h (0 Bft) S-SO 168 2 min 0,000 mm 1,1 UV-I 377 W/m 16,2 C 19,0 C 3,2 km/h (1 Bft) 97,87 %
25.08.2017 08:50 19,1 C 22,2 C 84 % 1018,5 hPa 0,0 l/m 4,6 km/h (1 Bft) S-SW 192 2 min 0,000 mm 1,1 UV-I 379 W/m 16,3 C 19,1 C 8,0 km/h (2 Bft) 100,00 %
25.08.2017 08:52 19,1 C 22,2 C 83 % 1018,5 hPa 0,0 l/m 4,4 km/h (1 Bft) S-SW 196 2 min 0,000 mm 1,2 UV-I 381 W/m 16,1 C 19,1 C 6,4 km/h (2 Bft) 100,00 %
25.08.2017 08:54 19,2 C 22,2 C 82 % 1018,5 hPa 0,0 l/m 3,3 km/h (1 Bft) S-SW 196 2 min 0,000 mm 1,2 UV-I 382 W/m 16,0 C 19,2 C 6,4 km/h (2 Bft) 100,00 %
25.08.2017 08:56 19,2 C 22,2 C 83 % 1018,5 hPa 0,0 l/m 0,5 km/h (0 Bft) S-SW 196 2 min 0,000 mm 1,2 UV-I 376 W/m 16,2 C 19,2 C 3,2 km/h (1 Bft) 97,87 %
25.08.2017 08:58 19,3 C 22,2 C 83 % 1018,5 hPa 0,0 l/m 2,2 km/h (1 Bft) S-SW 196 2 min 0,000 mm 1,2 UV-I 378 W/m 16,3 C 19,3 C 4,8 km/h (1 Bft) 100,00 %
25.08.2017 09:00 19,4 C 22,2 C 82 % 1018,5 hPa 0,0 l/m 2,0 km/h (1 Bft) S-SW 196 2 min 0,178 mm 1,3 UV-I 387 W/m 16,2 C 19,4 C 3,2 km/h (1 Bft) 95,83 %
25.08.2017 09:02 19,4 C 22,2 C 82 % 1018,5 hPa 0,0 l/m 1,0 km/h (0 Bft) S-SW 196 2 min 0,000 mm 1,3 UV-I 393 W/m 16,2 C 19,4 C 3,2 km/h (1 Bft) 100,00 %
25.08.2017 09:04 19,5 C 22,2 C 82 % 1018,4 hPa 0,0 l/m 1,0 km/h (0 Bft) S-SW 196 2 min 0,000 mm 1,3 UV-I 395 W/m 16,3 C 19,5 C 3,2 km/h (1 Bft) 95,74 %
25.08.2017 09:06 19,6 C 22,2 C 82 % 1018,4 hPa 0,0 l/m 0,6 km/h (0 Bft) S-SW 196 2 min 0,000 mm 1,4 UV-I 411 W/m 16,4 C 19,6 C 3,2 km/h (1 Bft) 100,00 %
25.08.2017 09:08 19,7 C 22,2 C 83 % 1018,5 hPa 0,0 l/m 1,3 km/h (1 Bft) S-SW 196 2 min 0,000 mm 1,4 UV-I 420 W/m 16,7 C 19,7 C 3,2 km/h (1 Bft) 100,00 %
25.08.2017 09:10 19,8 C 22,2 C 80 % 1018,5 hPa 0,0 l/m 2,2 km/h (1 Bft) S-SW 196 2 min 0,000 mm 1,4 UV-I 422 W/m 16,2 C 19,8 C 6,4 km/h (2 Bft) 95,83 %
25.08.2017 09:12 19,8 C 22,2 C 80 % 1018,5 hPa 0,0 l/m 3,1 km/h (1 Bft) S-SO 165 2 min 0,000 mm 1,5 UV-I 426 W/m 16,2 C 19,8 C 8,0 km/h (2 Bft) 97,87 %
25.08.2017 09:14 19,9 C 22,2 C 80 % 1018,5 hPa 0,0 l/m 1,2 km/h (1 Bft) S-SO 165 2 min 0,000 mm 1,5 UV-I 432 W/m 16,3 C 19,9 C 3,2 km/h (1 Bft) 97,87 %
25.08.2017 09:16 20,0 C 22,2 C 80 % 1018,5 hPa 0,0 l/m 2,3 km/h (1 Bft) S-SO 165 2 min 0,000 mm 1,5 UV-I 437 W/m 16,4 C 20,0 C 3,2 km/h (1 Bft) 97,87 %
25.08.2017 09:18 20,1 C 22,2 C 79 % 1018,6 hPa 0,0 l/m 0,6 km/h (0 Bft) S-SO 165 2 min 0,000 mm 1,6 UV-I 433 W/m 16,3 C 20,1 C 3,2 km/h (1 Bft) 100,00 %
25.08.2017 09:20 20,1 C 22,2 C 79 % 1018,6 hPa 0,0 l/m 0,4 km/h (0 Bft) S-SO 165 2 min 0,000 mm 1,6 UV-I 424 W/m 16,3 C 20,1 C 1,6 km/h (1 Bft) 100,00 %
25.08.2017 09:22 20,1 C 22,2 C 80 % 1018,6 hPa 0,0 l/m 0,1 km/h (0 Bft) S-SO 165 2 min 0,000 mm 1,6 UV-I 421 W/m 16,5 C 20,1 C 1,6 km/h (1 Bft) 95,74 %
25.08.2017 09:24 20,2 C 22,2 C 81 % 1018,6 hPa 0,0 l/m 0,5 km/h (0 Bft) S-SO 165 2 min 0,000 mm 1,7 UV-I 426 W/m 16,8 C 20,2 C 1,6 km/h (1 Bft) 95,74 %
25.08.2017 09:26 20,3 C 22,2 C 79 % 1018,6 hPa 0,0 l/m 0,8 km/h (0 Bft) S-SO 165 2 min 0,000 mm 1,7 UV-I 439 W/m 16,5 C 20,3 C 1,6 km/h (1 Bft) 95,74 %
25.08.2017 09:28 20,4 C 22,2 C 79 % 1018,6 hPa 0,0 l/m 0,6 km/h (0 Bft) S-SO 165 2 min 0,000 mm 1,7 UV-I 447 W/m 16,6 C 20,4 C 3,2 km/h (1 Bft) 95,74 %
25.08.2017 09:30 20,5 C 22,2 C 79 % 1018,6 hPa 0,0 l/m 0,5 km/h (0 Bft) S-SO 165 2 min 0,000 mm 1,8 UV-I 447 W/m 16,7 C 20,5 C 1,6 km/h (1 Bft) 95,74 %
25.08.2017 09:32 20,6 C 22,2 C 78 % 1018,6 hPa 0,0 l/m 2,1 km/h (1 Bft) S-SO 165 2 min 0,000 mm 1,8 UV-I 456 W/m 16,6 C 20,6 C 3,2 km/h (1 Bft) 97,87 %
25.08.2017 09:34 20,6 C 22,2 C 78 % 1018,6 hPa 0,0 l/m 1,8 km/h (1 Bft) S-SO 165 2 min 0,000 mm 1,8 UV-I 459 W/m 16,6 C 20,6 C 6,4 km/h (2 Bft) 97,87 %
25.08.2017 09:36 20,6 C 22,2 C 77 % 1018,6 hPa 0,0 l/m 1,8 km/h (1 Bft) SO 146 2 min 0,000 mm 1,9 UV-I 458 W/m 16,4 C 20,6 C 4,8 km/h (1 Bft) 97,44 %
25.08.2017 09:38 20,6 C 22,2 C 78 % 1018,6 hPa 0,0 l/m 3,0 km/h (1 Bft) O 94 2 min 0,000 mm 1,9 UV-I 443 W/m 16,6 C 20,6 C 6,4 km/h (2 Bft) 97,96 %
25.08.2017 09:40 20,7 C 22,2 C 78 % 1018,6 hPa 0,0 l/m 4,1 km/h (1 Bft) N-NW 331 2 min 0,000 mm 1,9 UV-I 457 W/m 16,7 C 20,7 C 12,9 km/h (3 Bft) 97,87 %
25.08.2017 09:42 20,8 C 22,2 C 77 % 1018,6 hPa 0,0 l/m 0,9 km/h (0 Bft) N-NW 331 2 min 0,000 mm 2,0 UV-I 474 W/m 16,6 C 20,8 C 3,2 km/h (1 Bft) 94,00 %
25.08.2017 09:44 20,8 C 22,2 C 74 % 1018,6 hPa 0,0 l/m 0,6 km/h (0 Bft) N-NW 331 2 min 0,000 mm 2,0 UV-I 467 W/m 16,0 C 20,8 C 1,6 km/h (1 Bft) 97,87 %
25.08.2017 09:46 20,8 C 22,2 C 73 % 1018,6 hPa 0,0 l/m 0,2 km/h (0 Bft) N-NW 331 2 min 0,000 mm 2,1 UV-I 492 W/m 15,8 C 20,8 C 1,6 km/h (1 Bft) 97,87 %
25.08.2017 09:48 20,9 C 22,2 C 75 % 1018,5 hPa 0,0 l/m 0,8 km/h (0 Bft) N-NW 331 2 min 0,000 mm 2,1 UV-I 504 W/m 16,3 C 20,9 C 3,2 km/h (1 Bft) 97,30 %
25.08.2017 09:50 21,1 C 22,2 C 77 % 1018,6 hPa 0,0 l/m 1,7 km/h (1 Bft) N-NW 340 2 min 0,000 mm 2,2 UV-I 517 W/m 16,9 C 21,1 C 4,8 km/h (1 Bft) 98,00 %
25.08.2017 09:52 21,2 C 22,2 C 78 % 1018,6 hPa 0,0 l/m 2,3 km/h (1 Bft) N-NW 340 2 min 0,000 mm 2,2 UV-I 512 W/m 17,2 C 21,2 C 4,8 km/h (1 Bft) 97,87 %
25.08.2017 09:54 21,3 C 22,2 C 75 % 1018,5 hPa 0,0 l/m 1,1 km/h (1 Bft) N-NW 341 2 min 0,000 mm 2,2 UV-I 509 W/m 16,7 C 21,3 C 3,2 km/h (1 Bft) 97,87 %
25.08.2017 09:56 21,2 C 22,2 C 73 % 1018,6 hPa 0,0 l/m 1,2 km/h (1 Bft) N-NW 341 2 min 0,000 mm 2,3 UV-I 524 W/m 16,2 C 21,2 C 3,2 km/h (1 Bft) 100,00 %
25.08.2017 09:58 21,2 C 22,2 C 73 % 1018,5 hPa 0,0 l/m 0,3 km/h (0 Bft) N-NW 341 2 min 0,000 mm 2,3 UV-I 519 W/m 16,2 C 21,2 C 1,6 km/h (1 Bft) 100,00 %
25.08.2017 10:00 21,2 C 22,2 C 73 % 1018,6 hPa 0,0 l/m 0,3 km/h (0 Bft) N-NW 341 2 min 0,000 mm 2,4 UV-I 522 W/m 16,2 C 21,2 C 1,6 km/h (1 Bft) 100,00 %
25.08.2017 10:02 21,2 C 22,2 C 75 % 1018,6 hPa 0,0 l/m 1,6 km/h (1 Bft) N-NW 341 2 min 0,279 mm 2,4 UV-I 516 W/m 16,6 C 21,2 C 3,2 km/h (1 Bft) 98,00 %
25.08.2017 10:04 21,2 C 22,2 C 74 % 1018,6 hPa 0,0 l/m 1,5 km/h (1 Bft) N-NW 341 2 min 0,000 mm 2,4 UV-I 520 W/m 16,4 C 21,2 C 3,2 km/h (1 Bft) 100,00 %
25.08.2017 10:06 21,3 C 22,2 C 77 % 1018,6 hPa 0,0 l/m 1,7 km/h (1 Bft) N-NW 341 2 min 0,000 mm 2,5 UV-I 553 W/m 17,1 C 21,3 C 3,2 km/h (1 Bft) 97,37 %
25.08.2017 10:08 21,4 C 22,2 C 74 % 1018,6 hPa 0,0 l/m 2,1 km/h (1 Bft) N-NW 341 2 min 0,000 mm 2,6 UV-I 569 W/m 16,6 C 21,4 C 4,8 km/h (1 Bft) 100,00 %
25.08.2017 10:10 21,6 C 22,2 C 76 % 1018,6 hPa 0,0 l/m 0,6 km/h (0 Bft) N-NW 341 2 min 0,000 mm 2,6 UV-I 571 W/m 17,2 C 21,6 C 3,2 km/h (1 Bft) 100,00 %
25.08.2017 10:12 21,6 C 22,2 C 72 % 1018,6 hPa 0,0 l/m 2,5 km/h (1 Bft) NW 313 2 min 0,000 mm 2,7 UV-I 574 W/m 16,3 C 21,6 C 4,8 km/h (1 Bft) 97,87 %
25.08.2017 10:14 21,6 C 22,2 C 72 % 1018,6 hPa 0,0 l/m 1,2 km/h (1 Bft) NW 313 2 min 0,000 mm 2,7 UV-I 578 W/m 16,3 C 21,6 C 3,2 km/h (1 Bft) 100,00 %
25.08.2017 10:16 21,7 C 22,2 C 71 % 1018,5 hPa 0,0 l/m 0,9 km/h (0 Bft) NW 313 2 min 0,000 mm 2,7 UV-I 578 W/m 16,2 C 21,7 C 3,2 km/h (1 Bft) 100,00 %
25.08.2017 10:18 21,6 C 22,2 C 72 % 1018,5 hPa 0,0 l/m 0,8 km/h (0 Bft) NW 313 2 min 0,000 mm 2,8 UV-I 584 W/m 16,3 C 21,6 C 3,2 km/h (1 Bft) 100,00 %
25.08.2017 10:20 21,7 C 22,2 C 73 % 1018,5 hPa 0,0 l/m 1,5 km/h (1 Bft) NW 313 2 min 0,000 mm 2,8 UV-I 586 W/m 16,6 C 21,7 C 3,2 km/h (1 Bft) 100,00 %
25.08.2017 10:22 21,8 C 22,2 C 72 % 1018,5 hPa 0,0 l/m 2,7 km/h (1 Bft) W-NW 303 2 min 0,000 mm 2,9 UV-I 590 W/m 16,5 C 21,8 C 4,8 km/h (1 Bft) 100,00 %
25.08.2017 10:24 21,8 C 22,2 C 72 % 1018,5 hPa 0,0 l/m 4,2 km/h (1 Bft) W 277 2 min 0,000 mm 2,9 UV-I 596 W/m 16,5 C 21,8 C 6,4 km/h (2 Bft) 100,00 %
25.08.2017 10:26 21,8 C 22,2 C 72 % 1018,5 hPa 0,0 l/m 2,3 km/h (1 Bft) W 277 2 min 0,000 mm 3,0 UV-I 603 W/m 16,5 C 21,8 C 4,8 km/h (1 Bft) 97,87 %
25.08.2017 10:28 21,8 C 22,2 C 74 % 1018,5 hPa 0,0 l/m 0,9 km/h (0 Bft) W 277 2 min 0,000 mm 3,0 UV-I 606 W/m 17,0 C 21,8 C 3,2 km/h (1 Bft) 97,87 %
25.08.2017 10:30 21,9 C 22,2 C 73 % 1018,5 hPa 0,0 l/m 1,2 km/h (1 Bft) N-NO 22 2 min 0,000 mm 3,0 UV-I 609 W/m 16,8 C 21,9 C 3,2 km/h (1 Bft) 97,87 %
25.08.2017 10:32 22,0 C 22,2 C 73 % 1018,5 hPa 0,0 l/m 2,1 km/h (1 Bft) N-NO 22 2 min 0,000 mm 3,1 UV-I 615 W/m 16,9 C 22,0 C 4,8 km/h (1 Bft) 97,56 %
25.08.2017 10:34 22,1 C 22,2 C 72 % 1018,5 hPa 0,0 l/m 2,0 km/h (1 Bft) N-NO 22 2 min 0,000 mm 3,1 UV-I 619 W/m 16,8 C 22,1 C 4,8 km/h (1 Bft) 96,00 %
25.08.2017 10:36 22,2 C 22,2 C 75 % 1018,4 hPa 0,0 l/m 0,2 km/h (0 Bft) N-NO 22 2 min 0,000 mm 3,2 UV-I 622 W/m 17,5 C 22,2 C 1,6 km/h (1 Bft) 97,87 %
25.08.2017 10:38 22,4 C 22,2 C 75 % 1018,4 hPa 0,0 l/m 2,5 km/h (1 Bft) N-NO 32 2 min 0,000 mm 3,2 UV-I 626 W/m 17,7 C 22,4 C 6,4 km/h (2 Bft) 98,00 %
25.08.2017 10:40 22,4 C 22,2 C 70 % 1018,5 hPa 0,0 l/m 0,3 km/h (0 Bft) N-NO 32 2 min 0,000 mm 3,1 UV-I 627 W/m 16,7 C 22,4 C 1,6 km/h (1 Bft) 94,74 %
25.08.2017 10:42 22,3 C 22,2 C 69 % 1018,5 hPa 0,0 l/m 0,2 km/h (0 Bft) N-NO 32 2 min 0,000 mm 3,2 UV-I 617 W/m 16,3 C 22,3 C 1,6 km/h (1 Bft) 97,87 %
25.08.2017 10:44 22,2 C 22,2 C 72 % 1018,5 hPa 0,0 l/m 1,1 km/h (1 Bft) NW 307 2 min 0,000 mm 3,3 UV-I 620 W/m 16,9 C 22,2 C 4,8 km/h (1 Bft) 97,87 %
25.08.2017 10:46 22,3 C 22,2 C 70 % 1018,4 hPa 0,0 l/m 1,9 km/h (1 Bft) W-NW 292 2 min 0,000 mm 3,4 UV-I 638 W/m 16,6 C 22,3 C 4,8 km/h (1 Bft) 97,87 %
25.08.2017 10:48 22,3 C 22,2 C 70 % 1018,4 hPa 0,0 l/m 1,8 km/h (1 Bft) W-NW 292 2 min 0,000 mm 3,4 UV-I 637 W/m 16,6 C 22,3 C 3,2 km/h (1 Bft) 93,62 %
25.08.2017 10:50 22,4 C 22,2 C 72 % 1018,4 hPa 0,0 l/m 0,2 km/h (0 Bft) W-NW 293 2 min 0,000 mm 3,4 UV-I 642 W/m 17,1 C 22,4 C 1,6 km/h (1 Bft) 95,83 %
25.08.2017 10:52 22,6 C 22,2 C 69 % 1018,4 hPa 0,0 l/m 0,3 km/h (0 Bft) W-NW 300 2 min 0,000 mm 3,5 UV-I 652 W/m 16,6 C 22,6 C 3,2 km/h (1 Bft) 97,87 %
25.08.2017 10:54 22,7 C 22,2 C 70 % 1018,4 hPa 0,0 l/m 0,8 km/h (0 Bft) W-NW 300 2 min 0,000 mm 3,5 UV-I 654 W/m 16,9 C 22,7 C 1,6 km/h (1 Bft) 97,87 %
25.08.2017 10:56 22,8 C 22,2 C 71 % 1018,4 hPa 0,0 l/m 1,0 km/h (0 Bft) W-NW 300 2 min 0,000 mm 3,6 UV-I 651 W/m 17,3 C 22,8 C 3,2 km/h (1 Bft) 95,74 %
25.08.2017 10:58 22,9 C 22,2 C 69 % 1018,3 hPa 0,0 l/m 1,1 km/h (1 Bft) NO 56 2 min 0,000 mm 3,6 UV-I 646 W/m 16,9 C 22,9 C 4,8 km/h (1 Bft) 98,00 %
25.08.2017 11:00 23,0 C 22,2 C 70 % 1018,3 hPa 0,0 l/m 4,5 km/h (1 Bft) NO 56 2 min 0,356 mm 3,6 UV-I 660 W/m 17,2 C 23,0 C 6,4 km/h (2 Bft) 97,87 %
25.08.2017 11:02 23,1 C 22,8 C 69 % 1018,4 hPa 0,0 l/m 2,9 km/h (1 Bft) NO 56 2 min 0,000 mm 3,7 UV-I 662 W/m 17,1 C 23,1 C 4,8 km/h (1 Bft) 97,87 %
25.08.2017 11:04 22,9 C 22,2 C 69 % 1018,4 hPa 0,0 l/m 4,9 km/h (1 Bft) O-SO 103 2 min 0,000 mm 3,7 UV-I 662 W/m 16,9 C 22,9 C 6,4 km/h (2 Bft) 98,00 %
25.08.2017 11:06 23,0 C 22,2 C 68 % 1018,4 hPa 0,0 l/m 4,1 km/h (1 Bft) O-NO 71 2 min 0,000 mm 3,7 UV-I 665 W/m 16,8 C 23,0 C 8,0 km/h (2 Bft) 97,87 %
25.08.2017 11:08 23,1 C 22,8 C 68 % 1018,4 hPa 0,0 l/m 4,6 km/h (1 Bft) O-SO 107 2 min 0,000 mm 3,8 UV-I 670 W/m 16,9 C 23,1 C 9,7 km/h (2 Bft) 95,74 %
25.08.2017 11:10 23,1 C 22,8 C 67 % 1018,4 hPa 0,0 l/m 4,1 km/h (1 Bft) O 84 2 min 0,000 mm 3,8 UV-I 669 W/m 16,6 C 23,1 C 6,4 km/h (2 Bft) 97,87 %
25.08.2017 11:12 23,2 C 22,8 C 69 % 1018,4 hPa 0,0 l/m 3,9 km/h (1 Bft) O 79 2 min 0,000 mm 3,8 UV-I 671 W/m 17,2 C 23,2 C 4,8 km/h (1 Bft) 97,87 %
25.08.2017 11:14 23,2 C 22,8 C 69 % 1018,4 hPa 0,0 l/m 3,3 km/h (1 Bft) NO 40 2 min 0,000 mm 3,9 UV-I 672 W/m 17,2 C 23,2 C 6,4 km/h (2 Bft) 97,87 %
25.08.2017 11:16 23,4 C 22,8 C 69 % 1018,3 hPa 0,0 l/m 4,5 km/h (1 Bft) NO 40 2 min 0,000 mm 3,9 UV-I 675 W/m 17,4 C 23,4 C 6,4 km/h (2 Bft) 97,37 %
25.08.2017 11:18 23,5 C 22,8 C 69 % 1018,3 hPa 0,0 l/m 3,0 km/h (1 Bft) NO 44 2 min 0,000 mm 3,9 UV-I 683 W/m 17,5 C 23,5 C 6,4 km/h (2 Bft) 95,74 %
25.08.2017 11:20 23,6 C 22,8 C 70 % 1018,2 hPa 0,0 l/m 1,5 km/h (1 Bft) O-NO 57 2 min 0,000 mm 4,0 UV-I 664 W/m 17,8 C 23,6 C 4,8 km/h (1 Bft) 95,74 %
25.08.2017 11:22 23,8 C 22,8 C 67 % 1018,2 hPa 0,0 l/m 2,0 km/h (1 Bft) NO 55 2 min 0,000 mm 4,1 UV-I 658 W/m 17,3 C 23,8 C 6,4 km/h (2 Bft) 93,62 %
25.08.2017 11:24 23,7 C 22,8 C 64 % 1018,2 hPa 0,0 l/m 1,9 km/h (1 Bft) NO 55 2 min 0,000 mm 4,1 UV-I 698 W/m 16,5 C 23,7 C 4,8 km/h (1 Bft) 95,74 %
25.08.2017 11:26 23,6 C 22,8 C 69 % 1018,2 hPa 0,0 l/m 1,7 km/h (1 Bft) NO 40 2 min 0,000 mm 4,1 UV-I 673 W/m 17,6 C 23,6 C 3,2 km/h (1 Bft) 93,62 %
25.08.2017 11:28 23,7 C 22,8 C 66 % 1018,2 hPa 0,0 l/m 1,2 km/h (1 Bft) N-NO 27 2 min 0,000 mm 4,1 UV-I 697 W/m 17,0 C 23,7 C 3,2 km/h (1 Bft) 91,49 %
25.08.2017 11:30 23,6 C 22,8 C 67 % 1018,2 hPa 0,0 l/m 1,7 km/h (1 Bft) N-NO 27 2 min 0,000 mm 4,2 UV-I 704 W/m 17,1 C 23,6 C 3,2 km/h (1 Bft) 95,74 %
25.08.2017 11:32 23,6 C 22,8 C 68 % 1018,2 hPa 0,0 l/m 1,6 km/h (1 Bft) N-NO 22 2 min 0,000 mm 4,2 UV-I 698 W/m 17,3 C 23,6 C 4,8 km/h (1 Bft) 95,83 %
25.08.2017 11:34 23,7 C 22,8 C 67 % 1018,2 hPa 0,0 l/m 0,5 km/h (0 Bft) N-NO 13 2 min 0,000 mm 4,2 UV-I 701 W/m 17,2 C 23,7 C 1,6 km/h (1 Bft) 95,74 %
25.08.2017 11:36 23,6 C 22,8 C 67 % 1018,2 hPa 0,0 l/m 0,9 km/h (0 Bft) N 5 2 min 0,000 mm 4,3 UV-I 692 W/m 17,1 C 23,6 C 3,2 km/h (1 Bft) 95,74 %
25.08.2017 11:38 23,6 C 22,8 C 68 % 1018,2 hPa 0,0 l/m 1,0 km/h (0 Bft) N-NW 343 2 min 0,000 mm 4,3 UV-I 647 W/m 17,3 C 23,6 C 4,8 km/h (1 Bft) 96,00 %
25.08.2017 11:40 23,5 C 22,8 C 67 % 1018,2 hPa 0,0 l/m 0,6 km/h (0 Bft) N-NW 346 2 min 0,000 mm 4,3 UV-I 714 W/m 17,0 C 23,5 C 3,2 km/h (1 Bft) 97,87 %
25.08.2017 11:42 23,4 C 22,8 C 66 % 1018,2 hPa 0,0 l/m 0,2 km/h (0 Bft) N-NW 346 2 min 0,000 mm 4,4 UV-I 695 W/m 16,7 C 23,4 C 1,6 km/h (1 Bft) 95,74 %
25.08.2017 11:44 23,5 C 22,8 C 69 % 1018,2 hPa 0,0 l/m 1,2 km/h (1 Bft) N 355 2 min 0,000 mm 4,4 UV-I 716 W/m 17,5 C 23,5 C 4,8 km/h (1 Bft) 97,87 %
25.08.2017 11:46 23,6 C 22,8 C 66 % 1018,2 hPa 0,0 l/m 0,4 km/h (0 Bft) N 355 2 min 0,000 mm 4,4 UV-I 715 W/m 16,9 C 23,6 C 1,6 km/h (1 Bft) 95,74 %
25.08.2017 11:48 23,6 C 22,8 C 66 % 1018,2 hPa 0,0 l/m 2,0 km/h (1 Bft) O 96 2 min 0,000 mm 4,5 UV-I 724 W/m 16,9 C 23,6 C 6,4 km/h (2 Bft) 97,87 %
25.08.2017 11:50 23,8 C 22,8 C 66 % 1018,2 hPa 0,0 l/m 3,5 km/h (1 Bft) NO 48 2 min 0,000 mm 4,5 UV-I 726 W/m 17,1 C 23,8 C 6,4 km/h (2 Bft) 97,87 %
25.08.2017 11:52 24,0 C 22,8 C 69 % 1018,2 hPa 0,0 l/m 4,2 km/h (1 Bft) N-NO 26 2 min 0,000 mm 4,5 UV-I 704 W/m 18,0 C 24,0 C 12,9 km/h (3 Bft) 100,00 %
25.08.2017 11:54 24,1 C 22,8 C 65 % 1018,2 hPa 0,0 l/m 5,4 km/h (1 Bft) N-NO 32 2 min 0,000 mm 4,5 UV-I 728 W/m 17,1 C 24,1 C 9,7 km/h (2 Bft) 95,74 %
25.08.2017 11:56 24,1 C 22,8 C 67 % 1018,2 hPa 0,0 l/m 4,2 km/h (1 Bft) O-NO 60 2 min 0,000 mm 4,6 UV-I 731 W/m 17,6 C 24,1 C 6,4 km/h (2 Bft) 100,00 %
25.08.2017 11:58 24,1 C 22,8 C 64 % 1018,1 hPa 0,0 l/m 2,7 km/h (1 Bft) O-NO 57 2 min 0,000 mm 4,6 UV-I 733 W/m 16,9 C 24,1 C 4,8 km/h (1 Bft) 97,87 %
25.08.2017 12:00 24,3 C 22,8 C 66 % 1018,1 hPa 0,0 l/m 2,2 km/h (1 Bft) N-NO 33 2 min 0,431 mm 4,6 UV-I 728 W/m 17,5 C 24,3 C 4,8 km/h (1 Bft) 98,00 %
25.08.2017 12:02 24,3 C 22,8 C 69 % 1018,0 hPa 0,0 l/m 5,4 km/h (1 Bft) N-NO 26 2 min 0,000 mm 4,6 UV-I 732 W/m 18,2 C 24,3 C 8,0 km/h (2 Bft) 100,00 %
25.08.2017 12:04 24,2 C 22,8 C 64 % 1018,0 hPa 0,0 l/m 3,1 km/h (1 Bft) O-NO 65 2 min 0,000 mm 4,7 UV-I 738 W/m 16,9 C 24,2 C 9,7 km/h (2 Bft) 100,00 %
25.08.2017 12:06 23,9 C 22,8 C 62 % 1018,1 hPa 0,0 l/m 3,5 km/h (1 Bft) N-NO 30 2 min 0,000 mm 4,7 UV-I 727 W/m 16,2 C 23,9 C 6,4 km/h (2 Bft) 100,00 %
25.08.2017 12:08 23,9 C 22,8 C 66 % 1018,1 hPa 0,0 l/m 3,5 km/h (1 Bft) NO 42 2 min 0,000 mm 4,7 UV-I 734 W/m 17,1 C 23,9 C 6,4 km/h (2 Bft) 100,00 %
25.08.2017 12:10 23,9 C 22,8 C 63 % 1018,0 hPa 0,0 l/m 2,3 km/h (1 Bft) NO 55 2 min 0,000 mm 4,7 UV-I 732 W/m 16,4 C 23,9 C 8,0 km/h (2 Bft) 98,00 %
25.08.2017 12:12 24,1 C 22,8 C 65 % 1018,1 hPa 0,0 l/m 4,4 km/h (1 Bft) N-NO 32 2 min 0,000 mm 4,8 UV-I 736 W/m 17,1 C 24,1 C 6,4 km/h (2 Bft) 97,92 %
25.08.2017 12:14 24,2 C 22,8 C 62 % 1018,0 hPa 0,0 l/m 2,8 km/h (1 Bft) O-SO 115 2 min 0,000 mm 4,8 UV-I 735 W/m 16,4 C 24,2 C 4,8 km/h (1 Bft) 100,00 %
25.08.2017 12:16 24,0 C 22,8 C 62 % 1018,0 hPa 0,0 l/m 1,3 km/h (1 Bft) SO 140 2 min 0,000 mm 4,4 UV-I 744 W/m 16,3 C 24,0 C 4,8 km/h (1 Bft) 100,00 %
25.08.2017 12:18 24,1 C 22,8 C 65 % 1017,9 hPa 0,0 l/m 2,9 km/h (1 Bft) O-SO 107 2 min 0,000 mm 4,2 UV-I 721 W/m 17,1 C 24,1 C 6,4 km/h (2 Bft) 100,00 %
25.08.2017 12:20 24,3 C 22,8 C 63 % 1017,9 hPa 0,0 l/m 1,9 km/h (1 Bft) O-SO 107 2 min 0,000 mm 4,8 UV-I 749 W/m 16,8 C 24,3 C 4,8 km/h (1 Bft) 97,87 %
25.08.2017 12:22 24,4 C 22,8 C 62 % 1017,9 hPa 0,0 l/m 3,2 km/h (1 Bft) W 273 2 min 0,000 mm 4,9 UV-I 750 W/m 16,6 C 24,4 C 4,8 km/h (1 Bft) 100,00 %
25.08.2017 12:24 24,4 C 22,8 C 61 % 1017,9 hPa 0,0 l/m 3,3 km/h (1 Bft) W 272 2 min 0,000 mm 4,9 UV-I 749 W/m 16,4 C 24,4 C 4,8 km/h (1 Bft) 100,00 %
25.08.2017 12:26 24,3 C 22,8 C 62 % 1017,9 hPa 0,0 l/m 0,6 km/h (0 Bft) W 273 2 min 0,000 mm 4,9 UV-I 751 W/m 16,5 C 24,3 C 3,2 km/h (1 Bft) 97,87 %
25.08.2017 12:28 24,3 C 22,8 C 65 % 1017,9 hPa 0,0 l/m 4,6 km/h (1 Bft) N-NO 26 2 min 0,000 mm 4,9 UV-I 737 W/m 17,3 C 24,3 C 6,4 km/h (2 Bft) 100,00 %
25.08.2017 12:30 24,6 C 22,8 C 66 % 1017,9 hPa 0,0 l/m 1,6 km/h (1 Bft) N-NW 327 2 min 0,000 mm 4,9 UV-I 757 W/m 17,8 C 24,6 C 4,8 km/h (1 Bft) 98,11 %
25.08.2017 12:32 24,5 C 22,8 C 63 % 1017,9 hPa 0,0 l/m 0,1 km/h (0 Bft) N-NW 327 2 min 0,000 mm 4,9 UV-I 758 W/m 17,0 C 24,5 C 1,6 km/h (1 Bft) 100,00 %
25.08.2017 12:34 24,5 C 22,8 C 62 % 1017,9 hPa 0,0 l/m 1,1 km/h (1 Bft) N-NW 327 2 min 0,000 mm 4,9 UV-I 747 W/m 16,7 C 24,5 C 1,6 km/h (1 Bft) 100,00 %
25.08.2017 12:36 24,6 C 22,8 C 62 % 1017,8 hPa 0,0 l/m 1,6 km/h (1 Bft) NW 325 2 min 0,000 mm 4,9 UV-I 741 W/m 16,8 C 24,6 C 3,2 km/h (1 Bft) 100,00 %
25.08.2017 12:38 24,6 C 22,8 C 61 % 1017,8 hPa 0,0 l/m 3,0 km/h (1 Bft) N-NO 24 2 min 0,000 mm 4,9 UV-I 735 W/m 16,6 C 24,6 C 4,8 km/h (1 Bft) 100,00 %
25.08.2017 12:40 24,9 C 22,8 C 64 % 1017,9 hPa 0,0 l/m 1,9 km/h (1 Bft) N-NO 24 2 min 0,000 mm 4,9 UV-I 729 W/m 17,6 C 24,9 C 6,4 km/h (2 Bft) 100,00 %
25.08.2017 12:42 25,1 C 22,8 C 64 % 1017,9 hPa 0,0 l/m 3,3 km/h (1 Bft) NO 36 2 min 0,000 mm 4,9 UV-I 732 W/m 17,8 C 25,1 C 6,4 km/h (2 Bft) 100,00 %
25.08.2017 12:44 25,1 C 22,8 C 63 % 1017,8 hPa 0,0 l/m 2,3 km/h (1 Bft) NO 47 2 min 0,000 mm 4,9 UV-I 734 W/m 17,5 C 25,1 C 4,8 km/h (1 Bft) 100,00 %
25.08.2017 12:46 25,2 C 22,8 C 62 % 1017,8 hPa 0,0 l/m 3,8 km/h (1 Bft) NO 46 2 min 0,000 mm 4,9 UV-I 739 W/m 17,4 C 25,2 C 6,4 km/h (2 Bft) 100,00 %
25.08.2017 12:48 25,3 C 22,8 C 64 % 1017,9 hPa 0,0 l/m 6,2 km/h (2 Bft) N-NO 22 2 min 0,000 mm 4,9 UV-I 745 W/m 18,0 C 25,3 C 8,0 km/h (2 Bft) 100,00 %
25.08.2017 12:50 25,2 C 22,8 C 63 % 1017,8 hPa 0,0 l/m 5,0 km/h (1 Bft) NO 46 2 min 0,000 mm 5,0 UV-I 753 W/m 17,6 C 25,2 C 9,7 km/h (2 Bft) 97,87 %
25.08.2017 12:52 25,2 C 22,8 C 64 % 1017,8 hPa 0,0 l/m 6,3 km/h (2 Bft) NO 49 2 min 0,000 mm 5,0 UV-I 758 W/m 17,9 C 25,2 C 9,7 km/h (2 Bft) 97,92 %
25.08.2017 12:54 25,3 C 22,8 C 67 % 1017,8 hPa 0,0 l/m 5,6 km/h (1 Bft) O-NO 70 2 min 0,000 mm 5,0 UV-I 763 W/m 18,7 C 25,3 C 8,0 km/h (2 Bft) 100,00 %
25.08.2017 12:56 25,2 C 23,3 C 59 % 1017,8 hPa 0,0 l/m 3,8 km/h (1 Bft) O 87 2 min 0,000 mm 5,0 UV-I 762 W/m 16,6 C 25,2 C 6,4 km/h (2 Bft) 100,00 %
25.08.2017 12:58 25,2 C 23,3 C 63 % 1017,7 hPa 0,0 l/m 2,3 km/h (1 Bft) O-NO 59 2 min 0,000 mm 5,0 UV-I 762 W/m 17,6 C 25,2 C 4,8 km/h (1 Bft) 100,00 %
25.08.2017 13:00 25,1 C 23,3 C 62 % 1017,8 hPa 0,0 l/m 1,1 km/h (1 Bft) NO 52 2 min 0,483 mm 5,0 UV-I 760 W/m 17,3 C 25,1 C 4,8 km/h (1 Bft) 97,87 %
25.08.2017 13:02 25,1 C 23,3 C 63 % 1017,7 hPa 0,0 l/m 1,8 km/h (1 Bft) NO 51 2 min 0,000 mm 5,0 UV-I 762 W/m 17,5 C 25,1 C 3,2 km/h (1 Bft) 100,00 %
25.08.2017 13:04 25,1 C 23,3 C 62 % 1017,8 hPa 0,0 l/m 1,5 km/h (1 Bft) NO 40 2 min 0,000 mm 5,0 UV-I 762 W/m 17,3 C 25,1 C 4,8 km/h (1 Bft) 100,00 %
25.08.2017 13:06 25,1 C 23,3 C 64 % 1017,8 hPa 0,0 l/m 0,9 km/h (0 Bft) NO 36 2 min 0,000 mm 5,0 UV-I 763 W/m 17,8 C 25,1 C 3,2 km/h (1 Bft) 100,00 %
25.08.2017 13:08 25,3 C 23,3 C 64 % 1017,8 hPa 0,0 l/m 1,1 km/h (1 Bft) N-NW 333 2 min 0,000 mm 5,0 UV-I 761 W/m 18,0 C 25,3 C 3,2 km/h (1 Bft) 97,87 %
25.08.2017 13:10 25,4 C 23,3 C 64 % 1017,8 hPa 0,0 l/m 1,1 km/h (1 Bft) NW 309 2 min 0,000 mm 5,0 UV-I 764 W/m 18,1 C 25,4 C 3,2 km/h (1 Bft) 97,87 %
25.08.2017 13:12 25,6 C 23,3 C 61 % 1017,8 hPa 0,0 l/m 1,7 km/h (1 Bft) NW 322 2 min 0,000 mm 5,0 UV-I 736 W/m 17,5 C 25,6 C 4,8 km/h (1 Bft) 97,87 %
25.08.2017 13:14 25,5 C 23,3 C 59 % 1017,7 hPa 0,0 l/m 0,7 km/h (0 Bft) NW 322 2 min 0,000 mm 5,0 UV-I 757 W/m 16,9 C 25,5 C 3,2 km/h (1 Bft) 93,62 %
25.08.2017 13:16 25,6 C 23,3 C 60 % 1017,7 hPa 0,0 l/m 2,9 km/h (1 Bft) W-SW 246 2 min 0,000 mm 5,0 UV-I 759 W/m 17,2 C 25,6 C 6,4 km/h (2 Bft) 95,74 %
25.08.2017 13:18 25,4 C 23,3 C 59 % 1017,7 hPa 0,0 l/m 2,0 km/h (1 Bft) NW 317 2 min 0,000 mm 5,0 UV-I 758 W/m 16,8 C 25,4 C 4,8 km/h (1 Bft) 93,62 %
25.08.2017 13:20 25,3 C 23,3 C 58 % 1017,7 hPa 0,0 l/m 0,8 km/h (0 Bft) NW 318 2 min 0,000 mm 5,0 UV-I 730 W/m 16,4 C 25,3 C 3,2 km/h (1 Bft) 97,37 %
25.08.2017 13:22 25,5 C 23,3 C 60 % 1017,6 hPa 0,0 l/m 2,6 km/h (1 Bft) O 99 2 min 0,000 mm 5,0 UV-I 755 W/m 17,2 C 25,5 C 9,7 km/h (2 Bft) 96,00 %
25.08.2017 13:24 25,7 C 23,3 C 61 % 1017,6 hPa 0,0 l/m 5,2 km/h (1 Bft) O-NO 64 2 min 0,000 mm 5,0 UV-I 757 W/m 17,6 C 25,7 C 8,0 km/h (2 Bft) 97,87 %
25.08.2017 13:26 25,8 C 23,3 C 60 % 1017,6 hPa 0,0 l/m 6,3 km/h (2 Bft) SO 128 2 min 0,000 mm 5,0 UV-I 757 W/m 17,4 C 25,8 C 11,3 km/h (2 Bft) 96,00 %
25.08.2017 13:28 25,9 C 23,3 C 61 % 1017,5 hPa 0,0 l/m 3,2 km/h (1 Bft) O-NO 62 2 min 0,000 mm 4,9 UV-I 757 W/m 17,8 C 25,9 C 6,4 km/h (2 Bft) 96,00 %
25.08.2017 13:30 26,1 C 23,3 C 59 % 1017,5 hPa 0,0 l/m 6,4 km/h (2 Bft) NO 54 2 min 0,000 mm 4,9 UV-I 759 W/m 17,4 C 26,1 C 8,0 km/h (2 Bft) 97,44 %
25.08.2017 13:32 26,2 C 23,3 C 57 % 1017,5 hPa 0,0 l/m 6,1 km/h (2 Bft) O-NO 67 2 min 0,000 mm 4,9 UV-I 756 W/m 17,0 C 26,2 C 11,3 km/h (2 Bft) 95,92 %
25.08.2017 13:34 26,1 C 23,3 C 58 % 1017,5 hPa 0,0 l/m 1,5 km/h (1 Bft) O-NO 75 2 min 0,000 mm 4,9 UV-I 755 W/m 17,2 C 26,1 C 4,8 km/h (1 Bft) 97,87 %
25.08.2017 13:36 26,2 C 23,3 C 56 % 1017,4 hPa 0,0 l/m 2,7 km/h (1 Bft) SO 136 2 min 0,000 mm 4,9 UV-I 752 W/m 16,7 C 26,2 C 4,8 km/h (1 Bft) 97,87 %
25.08.2017 13:38 26,2 C 23,3 C 56 % 1017,4 hPa 0,0 l/m 1,8 km/h (1 Bft) S 178 2 min 0,000 mm 4,8 UV-I 748 W/m 16,7 C 26,2 C 4,8 km/h (1 Bft) 97,87 %
25.08.2017 13:40 26,0 C 23,3 C 56 % 1017,4 hPa 0,0 l/m 3,6 km/h (1 Bft) S-SO 160 2 min 0,000 mm 4,8 UV-I 746 W/m 16,5 C 26,0 C 6,4 km/h (2 Bft) 98,00 %
25.08.2017 13:42 25,9 C 23,3 C 56 % 1017,3 hPa 0,0 l/m 2,0 km/h (1 Bft) S-SO 160 2 min 0,000 mm 4,8 UV-I 745 W/m 16,4 C 25,9 C 6,4 km/h (2 Bft) 95,12 %
25.08.2017 13:44 26,1 C 23,3 C 58 % 1017,3 hPa 0,0 l/m 3,1 km/h (1 Bft) SO 144 2 min 0,000 mm 4,8 UV-I 744 W/m 17,2 C 26,1 C 6,4 km/h (2 Bft) 100,00 %
25.08.2017 13:46 26,3 C 23,3 C 55 % 1017,3 hPa 0,0 l/m 3,4 km/h (1 Bft) O-NO 71 2 min 0,000 mm 4,7 UV-I 743 W/m 16,5 C 26,3 C 8,0 km/h (2 Bft) 97,87 %
25.08.2017 13:48 26,2 C 23,3 C 58 % 1017,3 hPa 0,0 l/m 6,7 km/h (2 Bft) O-NO 63 2 min 0,000 mm 4,7 UV-I 740 W/m 17,3 C 26,1 C 11,3 km/h (2 Bft) 97,87 %
25.08.2017 13:50 26,3 C 23,3 C 57 % 1017,3 hPa 0,0 l/m 6,1 km/h (2 Bft) NO 56 2 min 0,000 mm 4,7 UV-I 741 W/m 17,1 C 26,3 C 9,7 km/h (2 Bft) 100,00 %
25.08.2017 13:52 26,3 C 23,3 C 57 % 1017,2 hPa 0,0 l/m 5,5 km/h (1 Bft) NO 53 2 min 0,000 mm 4,7 UV-I 739 W/m 17,1 C 26,3 C 8,0 km/h (2 Bft) 100,00 %
25.08.2017 13:54 26,3 C 23,3 C 58 % 1017,2 hPa 0,0 l/m 2,9 km/h (1 Bft) NO 53 2 min 0,000 mm 4,7 UV-I 737 W/m 17,4 C 26,3 C 4,8 km/h (1 Bft) 97,87 %
25.08.2017 13:56 26,4 C 23,3 C 60 % 1017,2 hPa 0,0 l/m 3,3 km/h (1 Bft) NO 53 2 min 0,000 mm 4,7 UV-I 736 W/m 18,0 C 26,4 C 8,0 km/h (2 Bft) 100,00 %
25.08.2017 13:58 26,5 C 23,3 C 59 % 1017,2 hPa 0,0 l/m 4,5 km/h (1 Bft) O 84 2 min 0,000 mm 4,6 UV-I 732 W/m 17,8 C 26,5 C 6,4 km/h (2 Bft) 100,00 %
25.08.2017 14:00 26,6 C 23,3 C 55 % 1017,2 hPa 0,0 l/m 5,2 km/h (1 Bft) O-SO 111 2 min 0,483 mm 4,6 UV-I 732 W/m 16,8 C 26,6 C 8,0 km/h (2 Bft) 100,00 %
25.08.2017 14:03 26,3 C 23,3 C 54 % 1017,2 hPa 0,0 l/m 3,4 km/h (1 Bft) SO 128 3 min 0,000 mm 4,6 UV-I 731 W/m 16,2 C 26,3 C 11,3 km/h (2 Bft) 96,92 %
25.08.2017 14:04 26,3 C 23,3 C 55 % 1017,2 hPa 0,0 l/m 3,1 km/h (1 Bft) SO 128 1 min 0,000 mm 4,6 UV-I 728 W/m 16,5 C 26,3 C 4,8 km/h (1 Bft) 96,15 %
25.08.2017 14:06 26,3 C 23,3 C 56 % 1017,2 hPa 0,0 l/m 3,8 km/h (1 Bft) O-NO 76 2 min 0,000 mm 4,5 UV-I 725 W/m 16,8 C 26,3 C 6,4 km/h (2 Bft) 97,96 %
25.08.2017 14:08 26,4 C 23,3 C 57 % 1017,2 hPa 0,0 l/m 6,2 km/h (2 Bft) O-NO 64 2 min 0,000 mm 4,5 UV-I 725 W/m 17,2 C 26,4 C 9,7 km/h (2 Bft) 97,87 %
25.08.2017 14:10 26,3 C 23,3 C 54 % 1017,2 hPa 0,0 l/m 4,1 km/h (1 Bft) O-NO 76 2 min 0,000 mm 4,5 UV-I 724 W/m 16,2 C 26,3 C 8,0 km/h (2 Bft) 97,62 %
25.08.2017 14:12 26,4 C 23,3 C 55 % 1017,1 hPa 0,0 l/m 1,3 km/h (1 Bft) O-NO 76 2 min 0,000 mm 4,5 UV-I 723 W/m 16,6 C 26,4 C 3,2 km/h (1 Bft) 95,74 %
25.08.2017 14:14 26,7 C 23,3 C 58 % 1017,1 hPa 0,0 l/m 3,7 km/h (1 Bft) O-NO 76 2 min 0,000 mm 4,4 UV-I 718 W/m 17,7 C 26,7 C 12,9 km/h (3 Bft) 97,87 %
25.08.2017 14:16 26,8 C 23,3 C 54 % 1017,0 hPa 0,0 l/m 7,1 km/h (2 Bft) O 81 2 min 0,000 mm 4,4 UV-I 713 W/m 16,7 C 26,7 C 12,9 km/h (3 Bft) 93,62 %
25.08.2017 14:18 26,8 C 23,3 C 54 % 1017,1 hPa 0,0 l/m 4,0 km/h (1 Bft) SO 126 2 min 0,000 mm 4,4 UV-I 710 W/m 16,7 C 26,8 C 6,4 km/h (2 Bft) 98,00 %
25.08.2017 14:20 26,9 C 23,3 C 55 % 1017,1 hPa 0,0 l/m 2,2 km/h (1 Bft) SO 126 2 min 0,000 mm 4,3 UV-I 709 W/m 17,1 C 26,9 C 4,8 km/h (1 Bft) 95,74 %
25.08.2017 14:22 27,1 C 23,3 C 55 % 1017,1 hPa 0,0 l/m 2,8 km/h (1 Bft) O 94 2 min 0,000 mm 4,3 UV-I 709 W/m 17,3 C 27,1 C 6,4 km/h (2 Bft) 95,74 %
25.08.2017 14:24 27,1 C 23,3 C 53 % 1017,0 hPa 0,0 l/m 2,3 km/h (1 Bft) O-SO 111 2 min 0,000 mm 4,3 UV-I 706 W/m 16,7 C 27,1 C 4,8 km/h (1 Bft) 97,87 %
25.08.2017 14:26 27,1 C 23,3 C 52 % 1017,1 hPa 0,0 l/m 0,7 km/h (0 Bft) O-SO 111 2 min 0,000 mm 4,3 UV-I 705 W/m 16,4 C 27,1 C 1,6 km/h (1 Bft) 97,87 %
25.08.2017 14:28 27,1 C 23,3 C 54 % 1017,0 hPa 0,0 l/m 1,5 km/h (1 Bft) N-NW 340 2 min 0,000 mm 4,3 UV-I 702 W/m 17,0 C 27,1 C 3,2 km/h (1 Bft) 93,62 %
25.08.2017 14:30 27,1 C 23,3 C 54 % 1017,0 hPa 0,0 l/m 2,3 km/h (1 Bft) NW 306 2 min 0,000 mm 4,2 UV-I 700 W/m 17,0 C 27,1 C 4,8 km/h (1 Bft) 95,74 %
25.08.2017 14:32 27,1 C 23,3 C 55 % 1017,0 hPa 0,0 l/m 1,1 km/h (1 Bft) NW 307 2 min 0,000 mm 4,2 UV-I 695 W/m 17,3 C 27,1 C 3,2 km/h (1 Bft) 97,87 %
25.08.2017 14:34 27,1 C 23,3 C 54 % 1017,0 hPa 0,0 l/m 1,3 km/h (1 Bft) N-NW 329 2 min 0,000 mm 4,2 UV-I 694 W/m 17,0 C 27,1 C 4,8 km/h (1 Bft) 95,74 %
25.08.2017 14:36 27,1 C 23,3 C 54 % 1017,0 hPa 0,0 l/m 2,4 km/h (1 Bft) N-NO 29 2 min 0,000 mm 4,1 UV-I 693 W/m 17,0 C 27,1 C 4,8 km/h (1 Bft) 97,87 %
25.08.2017 14:38 27,2 C 23,3 C 55 % 1017,0 hPa 0,0 l/m 0,6 km/h (0 Bft) N-NO 29 2 min 0,000 mm 4,1 UV-I 691 W/m 17,4 C 27,2 C 1,6 km/h (1 Bft) 95,74 %
25.08.2017 14:40 27,2 C 23,3 C 50 % 1016,9 hPa 0,0 l/m 1,9 km/h (1 Bft) W-NW 286 2 min 0,000 mm 4,1 UV-I 689 W/m 15,9 C 27,2 C 4,8 km/h (1 Bft) 93,62 %
25.08.2017 14:42 27,2 C 23,9 C 52 % 1016,9 hPa 0,0 l/m 3,3 km/h (1 Bft) SW 236 2 min 0,000 mm 4,1 UV-I 688 W/m 16,5 C 27,2 C 6,4 km/h (2 Bft) 95,74 %
25.08.2017 14:44 27,4 C 23,9 C 52 % 1016,9 hPa 0,0 l/m 3,1 km/h (1 Bft) W 273 2 min 0,000 mm 4,0 UV-I 687 W/m 16,7 C 27,4 C 4,8 km/h (1 Bft) 100,00 %
25.08.2017 14:46 27,4 C 23,9 C 50 % 1016,9 hPa 0,0 l/m 4,1 km/h (1 Bft) W 265 2 min 0,000 mm 4,0 UV-I 685 W/m 16,0 C 27,4 C 6,4 km/h (2 Bft) 93,62 %
25.08.2017 14:48 27,3 C 23,9 C 49 % 1016,8 hPa 0,0 l/m 1,3 km/h (1 Bft) W 265 2 min 0,000 mm 4,0 UV-I 681 W/m 15,6 C 27,3 C 4,8 km/h (1 Bft) 93,62 %
25.08.2017 14:50 27,2 C 23,9 C 49 % 1016,8 hPa 0,0 l/m 1,1 km/h (1 Bft) W 272 2 min 0,000 mm 3,9 UV-I 679 W/m 15,5 C 27,2 C 4,8 km/h (1 Bft) 95,74 %
25.08.2017 14:52 27,2 C 23,9 C 48 % 1016,8 hPa 0,0 l/m 2,2 km/h (1 Bft) W 281 2 min 0,000 mm 3,9 UV-I 677 W/m 15,2 C 27,2 C 4,8 km/h (1 Bft) 95,74 %
25.08.2017 14:54 27,2 C 23,9 C 48 % 1016,8 hPa 0,0 l/m 0,1 km/h (0 Bft) W-NW 282 2 min 0,000 mm 3,9 UV-I 675 W/m 15,2 C 27,2 C 1,6 km/h (1 Bft) 100,00 %
25.08.2017 14:56 27,2 C 23,9 C 51 % 1016,7 hPa 0,0 l/m 0,8 km/h (0 Bft) W-NW 282 2 min 0,000 mm 3,8 UV-I 668 W/m 16,2 C 27,2 C 3,2 km/h (1 Bft) 97,87 %
25.08.2017 14:58 27,3 C 23,9 C 53 % 1016,7 hPa 0,0 l/m 2,0 km/h (1 Bft) W-NW 296 2 min 0,000 mm 3,8 UV-I 664 W/m 16,9 C 27,3 C 3,2 km/h (1 Bft) 98,00 %
25.08.2017 15:00 27,3 C 23,9 C 52 % 1016,7 hPa 0,0 l/m 0,8 km/h (0 Bft) W-NW 297 2 min 0,457 mm 3,8 UV-I 660 W/m 16,6 C 27,3 C 3,2 km/h (1 Bft) 97,87 %
25.08.2017 15:02 27,3 C 23,9 C 50 % 1016,7 hPa 0,0 l/m 1,2 km/h (1 Bft) N-NW 348 2 min 0,000 mm 3,7 UV-I 659 W/m 15,9 C 27,3 C 4,8 km/h (1 Bft) 95,74 %
25.08.2017 15:04 27,4 C 23,9 C 51 % 1016,7 hPa 0,0 l/m 1,1 km/h (1 Bft) N-NW 347 2 min 0,000 mm 3,7 UV-I 658 W/m 16,3 C 27,4 C 3,2 km/h (1 Bft) 97,87 %
25.08.2017 15:06 27,3 C 23,9 C 50 % 1016,7 hPa 0,0 l/m 1,0 km/h (0 Bft) N-NW 348 2 min 0,000 mm 3,7 UV-I 656 W/m 15,9 C 27,3 C 3,2 km/h (1 Bft) 95,74 %
25.08.2017 15:08 27,4 C 23,9 C 51 % 1016,7 hPa 0,0 l/m 0,6 km/h (0 Bft) N-NW 348 2 min 0,000 mm 3,6 UV-I 656 W/m 16,3 C 27,4 C 1,6 km/h (1 Bft) 95,74 %
25.08.2017 15:10 27,6 C 23,9 C 52 % 1016,7 hPa 0,0 l/m 0,1 km/h (0 Bft) N-NW 348 2 min 0,000 mm 3,6 UV-I 650 W/m 16,8 C 27,6 C 1,6 km/h (1 Bft) 93,62 %
25.08.2017 15:12 27,6 C 23,9 C 51 % 1016,6 hPa 0,0 l/m 0,8 km/h (0 Bft) N-NW 346 2 min 0,000 mm 3,5 UV-I 644 W/m 16,5 C 27,6 C 3,2 km/h (1 Bft) 97,87 %
25.08.2017 15:14 27,6 C 23,9 C 48 % 1016,6 hPa 0,0 l/m 2,6 km/h (1 Bft) W-NW 295 2 min 0,000 mm 3,5 UV-I 642 W/m 15,6 C 27,6 C 6,4 km/h (2 Bft) 97,37 %
25.08.2017 15:16 27,6 C 23,9 C 49 % 1016,6 hPa 0,0 l/m 1,9 km/h (1 Bft) W-NW 295 2 min 0,000 mm 3,5 UV-I 640 W/m 15,9 C 27,6 C 4,8 km/h (1 Bft) 97,87 %
25.08.2017 15:18 27,6 C 23,9 C 50 % 1016,6 hPa 0,0 l/m 1,1 km/h (1 Bft) W-NW 293 2 min 0,000 mm 3,4 UV-I 636 W/m 16,2 C 27,6 C 3,2 km/h (1 Bft) 97,87 %
25.08.2017 15:20 27,7 C 23,9 C 51 % 1016,6 hPa 0,0 l/m 1,3 km/h (1 Bft) W-SW 244 2 min 0,000 mm 3,4 UV-I 634 W/m 16,6 C 27,7 C 4,8 km/h (1 Bft) 95,74 %
25.08.2017 15:22 27,7 C 23,9 C 51 % 1016,6 hPa 0,0 l/m 1,8 km/h (1 Bft) S 175 2 min 0,000 mm 3,4 UV-I 632 W/m 16,6 C 27,7 C 6,4 km/h (2 Bft) 97,92 %
25.08.2017 15:24 27,9 C 23,9 C 55 % 1016,6 hPa 0,0 l/m 3,3 km/h (1 Bft) S-SW 207 2 min 0,000 mm 3,3 UV-I 627 W/m 18,0 C 27,9 C 6,4 km/h (2 Bft) 95,74 %
25.08.2017 15:26 27,9 C 23,9 C 47 % 1016,6 hPa 0,0 l/m 1,8 km/h (1 Bft) S-SW 192 2 min 0,000 mm 3,3 UV-I 622 W/m 15,5 C 27,9 C 4,8 km/h (1 Bft) 100,00 %
25.08.2017 15:28 27,8 C 23,9 C 49 % 1016,6 hPa 0,0 l/m 3,5 km/h (1 Bft) S 175 2 min 0,000 mm 3,2 UV-I 618 W/m 16,1 C 27,8 C 4,8 km/h (1 Bft) 100,00 %
25.08.2017 15:30 27,7 C 23,9 C 48 % 1016,5 hPa 0,0 l/m 1,0 km/h (0 Bft) S 175 2 min 0,000 mm 3,2 UV-I 615 W/m 15,7 C 27,7 C 3,2 km/h (1 Bft) 100,00 %
25.08.2017 15:32 27,8 C 23,9 C 48 % 1016,5 hPa 0,0 l/m 1,6 km/h (1 Bft) O-SO 105 2 min 0,000 mm 3,2 UV-I 609 W/m 15,8 C 27,8 C 6,4 km/h (2 Bft) 97,87 %
25.08.2017 15:34 27,8 C 23,9 C 49 % 1016,5 hPa 0,0 l/m 4,2 km/h (1 Bft) O 99 2 min 0,000 mm 3,1 UV-I 606 W/m 16,1 C 27,8 C 6,4 km/h (2 Bft) 100,00 %
25.08.2017 15:36 27,9 C 23,9 C 48 % 1016,4 hPa 0,0 l/m 3,7 km/h (1 Bft) SO 141 2 min 0,000 mm 3,1 UV-I 602 W/m 15,9 C 27,9 C 8,0 km/h (2 Bft) 100,00 %
25.08.2017 15:38 27,7 C 23,9 C 49 % 1016,4 hPa 0,0 l/m 2,7 km/h (1 Bft) SO 129 2 min 0,000 mm 3,0 UV-I 597 W/m 16,0 C 27,7 C 4,8 km/h (1 Bft) 100,00 %
25.08.2017 15:40 27,7 C 23,9 C 49 % 1016,4 hPa 0,0 l/m 2,3 km/h (1 Bft) SO 128 2 min 0,000 mm 3,0 UV-I 592 W/m 16,0 C 27,7 C 4,8 km/h (1 Bft) 100,00 %
25.08.2017 15:42 27,8 C 23,9 C 49 % 1016,4 hPa 0,0 l/m 1,8 km/h (1 Bft) SO 128 2 min 0,000 mm 3,0 UV-I 586 W/m 16,1 C 27,8 C 3,2 km/h (1 Bft) 100,00 %
25.08.2017 15:44 27,9 C 23,9 C 48 % 1016,4 hPa 0,0 l/m 0,7 km/h (0 Bft) SO 128 2 min 0,000 mm 2,9 UV-I 581 W/m 15,9 C 27,9 C 1,6 km/h (1 Bft) 100,00 %
25.08.2017 15:46 27,8 C 23,9 C 48 % 1016,4 hPa 0,0 l/m 0,3 km/h (0 Bft) SO 128 2 min 0,000 mm 2,9 UV-I 578 W/m 15,8 C 27,8 C 1,6 km/h (1 Bft) 100,00 %
25.08.2017 15:48 27,8 C 23,9 C 50 % 1016,3 hPa 0,0 l/m 1,2 km/h (1 Bft) SO 131 2 min 0,000 mm 2,8 UV-I 573 W/m 16,4 C 27,8 C 4,8 km/h (1 Bft) 95,74 %
25.08.2017 15:50 27,8 C 23,9 C 49 % 1016,3 hPa 0,0 l/m 2,8 km/h (1 Bft) S-SW 198 2 min 0,000 mm 2,8 UV-I 569 W/m 16,1 C 27,8 C 6,4 km/h (2 Bft) 100,00 %
25.08.2017 15:52 28,1 C 23,9 C 46 % 1016,3 hPa 0,0 l/m 2,4 km/h (1 Bft) SW 223 2 min 0,000 mm 2,7 UV-I 556 W/m 15,4 C 28,1 C 6,4 km/h (2 Bft) 97,87 %
25.08.2017 15:54 28,1 C 23,9 C 47 % 1016,3 hPa 0,0 l/m 0,3 km/h (0 Bft) SW 223 2 min 0,000 mm 2,7 UV-I 560 W/m 15,7 C 28,1 C 1,6 km/h (1 Bft) 100,00 %
25.08.2017 15:56 28,0 C 23,9 C 48 % 1016,3 hPa 0,0 l/m 0,3 km/h (0 Bft) SW 223 2 min 0,000 mm 2,6 UV-I 556 W/m 15,9 C 28,0 C 1,6 km/h (1 Bft) 100,00 %
25.08.2017 15:58 28,1 C 23,9 C 48 % 1016,3 hPa 0,0 l/m 2,3 km/h (1 Bft) SW 223 2 min 0,000 mm 2,6 UV-I 552 W/m 16,0 C 28,1 C 4,8 km/h (1 Bft) 100,00 %
25.08.2017 16:00 28,1 C 23,9 C 48 % 1016,2 hPa 0,0 l/m 2,0 km/h (1 Bft) SW 233 2 min 0,406 mm 2,5 UV-I 547 W/m 16,0 C 28,1 C 4,8 km/h (1 Bft) 97,87 %
25.08.2017 16:02 28,1 C 23,9 C 48 % 1016,2 hPa 0,0 l/m 1,2 km/h (1 Bft) SW 233 2 min 0,000 mm 2,5 UV-I 542 W/m 16,0 C 28,1 C 3,2 km/h (1 Bft) 95,83 %
25.08.2017 16:04 28,1 C 23,9 C 47 % 1016,2 hPa 0,0 l/m 0,7 km/h (0 Bft) SW 233 2 min 0,000 mm 2,5 UV-I 537 W/m 15,7 C 28,1 C 3,2 km/h (1 Bft) 100,00 %
25.08.2017 16:06 28,1 C 23,9 C 49 % 1016,2 hPa 0,0 l/m 0,5 km/h (0 Bft) SW 234 2 min 0,000 mm 2,4 UV-I 532 W/m 16,4 C 28,1 C 3,2 km/h (1 Bft) 100,00 %
25.08.2017 16:08 28,2 C 23,9 C 48 % 1016,2 hPa 0,0 l/m 2,3 km/h (1 Bft) O-NO 59 2 min 0,000 mm 2,4 UV-I 526 W/m 16,1 C 28,2 C 4,8 km/h (1 Bft) 100,00 %
25.08.2017 16:10 28,3 C 23,9 C 48 % 1016,2 hPa 0,0 l/m 2,7 km/h (1 Bft) O-NO 59 2 min 0,000 mm 2,3 UV-I 521 W/m 16,2 C 28,3 C 4,8 km/h (1 Bft) 98,00 %
25.08.2017 16:12 28,3 C 23,9 C 45 % 1016,1 hPa 0,0 l/m 0,3 km/h (0 Bft) O-NO 59 2 min 0,000 mm 2,3 UV-I 517 W/m 15,2 C 28,3 C 1,6 km/h (1 Bft) 100,00 %
25.08.2017 16:14 28,3 C 23,9 C 48 % 1016,1 hPa 0,0 l/m 0,3 km/h (0 Bft) O-NO 59 2 min 0,000 mm 2,2 UV-I 511 W/m 16,2 C 28,3 C 3,2 km/h (1 Bft) 100,00 %
25.08.2017 16:16 28,4 C 23,9 C 48 % 1016,2 hPa 0,0 l/m 3,6 km/h (1 Bft) W-SW 254 2 min 0,000 mm 2,2 UV-I 507 W/m 16,3 C 28,4 C 4,8 km/h (1 Bft) 100,00 %
25.08.2017 16:18 28,3 C 23,9 C 46 % 1016,1 hPa 0,0 l/m 3,1 km/h (1 Bft) W-SW 251 2 min 0,000 mm 2,2 UV-I 504 W/m 15,6 C 28,3 C 4,8 km/h (1 Bft) 100,00 %
25.08.2017 16:20 28,2 C 23,9 C 45 % 1016,1 hPa 0,0 l/m 0,8 km/h (0 Bft) SW 231 2 min 0,000 mm 2,1 UV-I 500 W/m 15,1 C 28,2 C 3,2 km/h (1 Bft) 97,87 %
25.08.2017 16:22 28,1 C 23,9 C 46 % 1016,1 hPa 0,0 l/m 2,3 km/h (1 Bft) S-SO 157 2 min 0,000 mm 2,1 UV-I 494 W/m 15,4 C 28,1 C 4,8 km/h (1 Bft) 100,00 %
25.08.2017 16:24 28,1 C 23,9 C 47 % 1016,1 hPa 0,0 l/m 1,3 km/h (1 Bft) S-SO 157 2 min 0,000 mm 2,1 UV-I 489 W/m 15,7 C 28,1 C 3,2 km/h (1 Bft) 95,74 %
25.08.2017 16:26 28,0 C 23,9 C 47 % 1016,1 hPa 0,0 l/m 0,3 km/h (0 Bft) S-SO 157 2 min 0,000 mm 2,0 UV-I 483 W/m 15,6 C 28,0 C 1,6 km/h (1 Bft) 100,00 %
25.08.2017 16:28 28,1 C 23,9 C 49 % 1016,1 hPa 0,0 l/m 1,8 km/h (1 Bft) S-SO 157 2 min 0,000 mm 2,0 UV-I 475 W/m 16,4 C 28,1 C 4,8 km/h (1 Bft) 98,00 %
25.08.2017 16:30 28,1 C 23,9 C 47 % 1016,1 hPa 0,0 l/m 1,0 km/h (0 Bft) S-SO 157 2 min 0,000 mm 1,9 UV-I 470 W/m 15,7 C 28,1 C 3,2 km/h (1 Bft) 97,87 %
25.08.2017 16:32 28,2 C 23,9 C 47 % 1016,1 hPa 0,0 l/m 3,4 km/h (1 Bft) S-SW 205 2 min 0,000 mm 1,9 UV-I 463 W/m 15,8 C 28,2 C 4,8 km/h (1 Bft) 97,87 %
25.08.2017 16:34 28,1 C 23,9 C 46 % 1016,1 hPa 0,0 l/m 1,3 km/h (1 Bft) S 179 2 min 0,000 mm 1,8 UV-I 458 W/m 15,4 C 28,1 C 4,8 km/h (1 Bft) 95,74 %
25.08.2017 16:36 28,1 C 23,9 C 47 % 1016,1 hPa 0,0 l/m 3,1 km/h (1 Bft) S 179 2 min 0,000 mm 1,8 UV-I 451 W/m 15,7 C 28,1 C 4,8 km/h (1 Bft) 97,87 %
25.08.2017 16:38 28,2 C 23,9 C 46 % 1016,1 hPa 0,0 l/m 2,0 km/h (1 Bft) S 179 2 min 0,000 mm 1,8 UV-I 446 W/m 15,5 C 28,2 C 4,8 km/h (1 Bft) 96,00 %
25.08.2017 16:40 28,2 C 23,9 C 46 % 1016,1 hPa 0,0 l/m 3,0 km/h (1 Bft) S 169 2 min 0,000 mm 1,7 UV-I 442 W/m 15,5 C 28,2 C 8,0 km/h (2 Bft) 95,74 %
25.08.2017 16:42 28,2 C 23,9 C 48 % 1016,1 hPa 0,0 l/m 2,2 km/h (1 Bft) S 169 2 min 0,000 mm 1,7 UV-I 436 W/m 16,1 C 28,2 C 3,2 km/h (1 Bft) 97,87 %
25.08.2017 16:44 28,2 C 23,9 C 46 % 1016,0 hPa 0,0 l/m 2,8 km/h (1 Bft) S-SO 167 2 min 0,000 mm 1,6 UV-I 432 W/m 15,5 C 28,2 C 4,8 km/h (1 Bft) 94,44 %
25.08.2017 16:46 28,2 C 23,9 C 45 % 1016,0 hPa 0,0 l/m 1,5 km/h (1 Bft) S-SO 167 2 min 0,000 mm 1,6 UV-I 428 W/m 15,1 C 28,2 C 4,8 km/h (1 Bft) 92,00 %
25.08.2017 16:48 28,2 C 23,9 C 46 % 1016,0 hPa 0,0 l/m 0,7 km/h (0 Bft) S-SO 167 2 min 0,000 mm 1,6 UV-I 423 W/m 15,5 C 28,2 C 4,8 km/h (1 Bft) 95,74 %
25.08.2017 16:50 28,2 C 23,9 C 45 % 1016,0 hPa 0,0 l/m 0,0 km/h (0 Bft) S-SO 167 2 min 0,000 mm 1,5 UV-I 419 W/m 15,1 C 28,2 C 1,6 km/h (1 Bft) 98,00 %
25.08.2017 16:52 28,2 C 23,9 C 49 % 1016,1 hPa 0,0 l/m 0,8 km/h (0 Bft) S-SO 167 2 min 0,000 mm 1,5 UV-I 410 W/m 16,5 C 28,2 C 4,8 km/h (1 Bft) 97,56 %
25.08.2017 16:54 28,2 C 23,9 C 49 % 1016,0 hPa 0,0 l/m 0,7 km/h (0 Bft) S-SO 167 2 min 0,000 mm 1,5 UV-I 404 W/m 16,5 C 28,2 C 4,8 km/h (1 Bft) 98,00 %
25.08.2017 16:56 28,3 C 23,9 C 50 % 1015,9 hPa 0,0 l/m 1,5 km/h (1 Bft) S-SO 165 2 min 0,000 mm 1,4 UV-I 398 W/m 16,9 C 28,3 C 3,2 km/h (1 Bft) 95,74 %
25.08.2017 16:58 28,2 C 23,9 C 49 % 1015,9 hPa 0,0 l/m 1,0 km/h (0 Bft) N-NO 23 2 min 0,000 mm 1,4 UV-I 393 W/m 16,5 C 28,2 C 4,8 km/h (1 Bft) 95,74 %
25.08.2017 17:00 28,2 C 23,9 C 48 % 1015,9 hPa 0,0 l/m 2,9 km/h (1 Bft) N-NO 23 2 min 0,330 mm 1,4 UV-I 388 W/m 16,1 C 28,2 C 4,8 km/h (1 Bft) 95,74 %
25.08.2017 17:02 28,1 C 23,9 C 46 % 1015,8 hPa 0,0 l/m 0,1 km/h (0 Bft) N-NO 23 2 min 0,000 mm 1,3 UV-I 384 W/m 15,4 C 28,1 C 1,6 km/h (1 Bft) 95,74 %
25.08.2017 17:04 28,0 C 23,9 C 49 % 1015,8 hPa 0,0 l/m 0,3 km/h (0 Bft) N-NO 22 2 min 0,000 mm 1,3 UV-I 379 W/m 16,3 C 28,0 C 1,6 km/h (1 Bft) 97,87 %
25.08.2017 17:06 28,1 C 23,9 C 47 % 1015,9 hPa 0,0 l/m 0,4 km/h (0 Bft) N-NO 22 2 min 0,000 mm 1,3 UV-I 376 W/m 15,7 C 28,1 C 3,2 km/h (1 Bft) 96,00 %
25.08.2017 17:08 28,0 C 23,9 C 48 % 1015,9 hPa 0,0 l/m 0,6 km/h (0 Bft) N-NO 22 2 min 0,000 mm 1,3 UV-I 369 W/m 15,9 C 28,0 C 1,6 km/h (1 Bft) 95,74 %
25.08.2017 17:10 28,1 C 23,9 C 48 % 1015,8 hPa 0,0 l/m 0,2 km/h (0 Bft) N-NO 22 2 min 0,000 mm 1,2 UV-I 366 W/m 16,0 C 28,1 C 1,6 km/h (1 Bft) 95,74 %
25.08.2017 17:12 28,1 C 24,4 C 47 % 1015,8 hPa 0,0 l/m 0,0 km/h (0 Bft) N-NO 22 2 min 0,000 mm 1,2 UV-I 359 W/m 15,7 C 28,1 C 1,6 km/h (1 Bft) 97,87 %
25.08.2017 17:14 28,1 C 23,9 C 48 % 1015,9 hPa 0,0 l/m 0,2 km/h (0 Bft) N-NO 22 2 min 0,000 mm 1,2 UV-I 354 W/m 16,0 C 28,1 C 1,6 km/h (1 Bft) 96,00 %
25.08.2017 17:16 28,1 C 23,9 C 50 % 1015,8 hPa 0,0 l/m 0,2 km/h (0 Bft) N-NO 22 2 min 0,000 mm 1,1 UV-I 350 W/m 16,7 C 28,1 C 1,6 km/h (1 Bft) 97,14 %
25.08.2017 17:18 28,0 C 24,4 C 51 % 1015,9 hPa 0,0 l/m 0,7 km/h (0 Bft) N-NO 22 2 min 0,000 mm 1,1 UV-I 343 W/m 16,9 C 28,0 C 3,2 km/h (1 Bft) 98,00 %
25.08.2017 17:20 27,9 C 24,4 C 51 % 1015,9 hPa 0,0 l/m 0,2 km/h (0 Bft) N-NO 20 2 min 0,000 mm 1,1 UV-I 336 W/m 16,8 C 27,9 C 1,6 km/h (1 Bft) 97,92 %
25.08.2017 17:22 27,9 C 24,4 C 49 % 1015,9 hPa 0,0 l/m 0,9 km/h (0 Bft) N-NO 33 2 min 0,000 mm 1,0 UV-I 331 W/m 16,2 C 27,9 C 6,4 km/h (2 Bft) 97,87 %
25.08.2017 17:24 27,9 C 24,4 C 48 % 1015,9 hPa 0,0 l/m 2,4 km/h (1 Bft) NO 36 2 min 0,000 mm 1,0 UV-I 327 W/m 15,9 C 27,9 C 4,8 km/h (1 Bft) 93,62 %
25.08.2017 17:26 27,9 C 24,4 C 50 % 1015,9 hPa 0,0 l/m 1,8 km/h (1 Bft) N-NO 19 2 min 0,000 mm 1,0 UV-I 321 W/m 16,5 C 27,9 C 4,8 km/h (1 Bft) 95,74 %
25.08.2017 17:28 27,9 C 24,4 C 48 % 1015,9 hPa 0,0 l/m 0,4 km/h (0 Bft) N-NO 19 2 min 0,000 mm 0,9 UV-I 316 W/m 15,9 C 27,9 C 3,2 km/h (1 Bft) 97,87 %
25.08.2017 17:30 28,0 C 24,4 C 50 % 1015,9 hPa 0,0 l/m 0,0 km/h (0 Bft) N-NO 19 2 min 0,000 mm 0,9 UV-I 311 W/m 16,6 C 28,0 C 0,0 km/h (0 Bft) 95,74 %
25.08.2017 17:32 28,1 C 24,4 C 49 % 1015,8 hPa 0,0 l/m 1,5 km/h (1 Bft) O-NO 61 2 min 0,000 mm 0,9 UV-I 305 W/m 16,4 C 28,1 C 4,8 km/h (1 Bft) 97,87 %
25.08.2017 17:34 28,2 C 24,4 C 49 % 1015,8 hPa 0,0 l/m 2,6 km/h (1 Bft) O-NO 61 2 min 0,000 mm 0,9 UV-I 298 W/m 16,5 C 28,2 C 4,8 km/h (1 Bft) 95,74 %
25.08.2017 17:36 28,2 C 24,4 C 46 % 1015,9 hPa 0,0 l/m 5,0 km/h (1 Bft) O 93 2 min 0,000 mm 0,8 UV-I 294 W/m 15,5 C 28,2 C 8,0 km/h (2 Bft) 97,87 %
25.08.2017 17:38 28,2 C 24,4 C 47 % 1015,8 hPa 0,0 l/m 3,7 km/h (1 Bft) O 99 2 min 0,000 mm 0,8 UV-I 289 W/m 15,8 C 28,2 C 4,8 km/h (1 Bft) 94,00 %
25.08.2017 17:40 28,1 C 24,4 C 49 % 1015,8 hPa 0,0 l/m 1,2 km/h (1 Bft) O 99 2 min 0,000 mm 0,8 UV-I 284 W/m 16,4 C 28,1 C 4,8 km/h (1 Bft) 98,00 %
25.08.2017 17:42 28,1 C 24,4 C 46 % 1015,7 hPa 0,0 l/m 0,1 km/h (0 Bft) O 99 2 min 0,000 mm 0,8 UV-I 278 W/m 15,4 C 28,1 C 1,6 km/h (1 Bft) 97,87 %
25.08.2017 17:44 28,1 C 24,4 C 46 % 1015,8 hPa 0,0 l/m 0,7 km/h (0 Bft) O 99 2 min 0,000 mm 0,7 UV-I 272 W/m 15,4 C 28,1 C 3,2 km/h (1 Bft) 100,00 %
25.08.2017 17:46 28,1 C 24,4 C 47 % 1015,8 hPa 0,0 l/m 0,1 km/h (0 Bft) O 99 2 min 0,000 mm 0,7 UV-I 266 W/m 15,7 C 28,1 C 1,6 km/h (1 Bft) 97,87 %
25.08.2017 17:48 27,9 C 24,4 C 47 % 1015,7 hPa 0,0 l/m 0,0 km/h (0 Bft) O 99 2 min 0,000 mm 0,7 UV-I 261 W/m 15,5 C 27,9 C 1,6 km/h (1 Bft) 97,87 %
25.08.2017 17:50 27,9 C 24,4 C 48 % 1015,8 hPa 0,0 l/m 0,5 km/h (0 Bft) O 99 2 min 0,000 mm 0,7 UV-I 255 W/m 15,9 C 27,9 C 3,2 km/h (1 Bft) 97,87 %
25.08.2017 17:52 27,9 C 24,4 C 48 % 1015,7 hPa 0,0 l/m 0,1 km/h (0 Bft) O 99 2 min 0,000 mm 0,6 UV-I 250 W/m 15,9 C 27,9 C 3,2 km/h (1 Bft) 100,00 %
25.08.2017 17:54 27,9 C 24,4 C 49 % 1015,7 hPa 0,0 l/m 2,8 km/h (1 Bft) O-NO 65 2 min 0,000 mm 0,6 UV-I 244 W/m 16,2 C 27,9 C 6,4 km/h (2 Bft) 100,00 %
25.08.2017 17:56 27,8 C 24,4 C 50 % 1015,7 hPa 0,0 l/m 3,0 km/h (1 Bft) O-NO 65 2 min 0,000 mm 0,6 UV-I 241 W/m 16,4 C 27,8 C 4,8 km/h (1 Bft) 97,87 %
25.08.2017 17:58 27,8 C 24,4 C 52 % 1015,7 hPa 0,0 l/m 4,1 km/h (1 Bft) O-NO 72 2 min 0,000 mm 0,6 UV-I 233 W/m 17,0 C 27,8 C 6,4 km/h (2 Bft) 100,00 %
25.08.2017 18:00 27,8 C 24,4 C 49 % 1015,6 hPa 0,0 l/m 4,3 km/h (1 Bft) O 86 2 min 0,229 mm 0,5 UV-I 224 W/m 16,1 C 27,8 C 6,4 km/h (2 Bft) 100,00 %
25.08.2017 18:02 27,8 C 24,4 C 50 % 1015,6 hPa 0,0 l/m 2,0 km/h (1 Bft) O 86 2 min 0,000 mm 0,5 UV-I 218 W/m 16,4 C 27,8 C 3,2 km/h (1 Bft) 95,74 %
25.08.2017 18:04 27,8 C 24,4 C 51 % 1015,6 hPa 0,0 l/m 1,5 km/h (1 Bft) O 86 2 min 0,000 mm 0,5 UV-I 209 W/m 16,7 C 27,8 C 4,8 km/h (1 Bft) 100,00 %
25.08.2017 18:06 27,8 C 24,4 C 53 % 1015,6 hPa 0,0 l/m 1,8 km/h (1 Bft) O 83 2 min 0,000 mm 0,5 UV-I 204 W/m 17,3 C 27,8 C 4,8 km/h (1 Bft) 97,87 %
25.08.2017 18:08 27,8 C 24,4 C 52 % 1015,6 hPa 0,0 l/m 3,6 km/h (1 Bft) O 83 2 min 0,000 mm 0,5 UV-I 198 W/m 17,0 C 27,8 C 4,8 km/h (1 Bft) 97,37 %
25.08.2017 18:10 27,8 C 24,4 C 53 % 1015,6 hPa 0,0 l/m 3,7 km/h (1 Bft) O 83 2 min 0,000 mm 0,2 UV-I 193 W/m 17,3 C 27,8 C 6,4 km/h (2 Bft) 97,96 %
25.08.2017 18:12 27,8 C 24,4 C 53 % 1015,6 hPa 0,0 l/m 2,1 km/h (1 Bft) O 83 2 min 0,000 mm 0,0 UV-I 190 W/m 17,3 C 27,8 C 6,4 km/h (2 Bft) 97,87 %
25.08.2017 18:14 27,7 C 24,4 C 55 % 1015,6 hPa 0,0 l/m 3,8 km/h (1 Bft) O-NO 74 2 min 0,000 mm 0,0 UV-I 185 W/m 17,8 C 27,7 C 6,4 km/h (2 Bft) 97,87 %
25.08.2017 18:16 27,8 C 24,4 C 54 % 1015,6 hPa 0,0 l/m 5,1 km/h (1 Bft) O-NO 73 2 min 0,000 mm 0,0 UV-I 181 W/m 17,6 C 27,8 C 8,0 km/h (2 Bft) 97,87 %
25.08.2017 18:18 27,7 C 24,4 C 53 % 1015,7 hPa 0,0 l/m 5,5 km/h (1 Bft) O-NO 72 2 min 0,000 mm 0,0 UV-I 176 W/m 17,2 C 27,7 C 8,0 km/h (2 Bft) 97,87 %
25.08.2017 18:20 27,7 C 24,4 C 52 % 1015,6 hPa 0,0 l/m 3,9 km/h (1 Bft) O-NO 72 2 min 0,000 mm 0,0 UV-I 171 W/m 16,9 C 27,7 C 6,4 km/h (2 Bft) 95,74 %
25.08.2017 18:22 27,7 C 24,4 C 52 % 1015,7 hPa 0,0 l/m 4,5 km/h (1 Bft) O-NO 72 2 min 0,000 mm 0,0 UV-I 166 W/m 16,9 C 27,7 C 6,4 km/h (2 Bft) 95,74 %
25.08.2017 18:24 27,6 C 24,4 C 52 % 1015,6 hPa 0,0 l/m 4,0 km/h (1 Bft) O-NO 72 2 min 0,000 mm 0,0 UV-I 160 W/m 16,8 C 27,6 C 6,4 km/h (2 Bft) 98,00 %
25.08.2017 18:26 27,5 C 24,4 C 52 % 1015,7 hPa 0,0 l/m 3,7 km/h (1 Bft) O-NO 72 2 min 0,000 mm 0,0 UV-I 157 W/m 16,7 C 27,5 C 6,4 km/h (2 Bft) 97,87 %
25.08.2017 18:28 27,6 C 24,4 C 53 % 1015,7 hPa 0,0 l/m 3,6 km/h (1 Bft) O-NO 72 2 min 0,000 mm 0,0 UV-I 153 W/m 17,1 C 27,6 C 6,4 km/h (2 Bft) 97,87 %
25.08.2017 18:30 27,5 C 24,4 C 54 % 1015,7 hPa 0,0 l/m 2,3 km/h (1 Bft) O-NO 72 2 min 0,000 mm 0,0 UV-I 149 W/m 17,3 C 27,5 C 4,8 km/h (1 Bft) 96,00 %
25.08.2017 18:32 27,5 C 24,4 C 54 % 1015,7 hPa 0,0 l/m 2,6 km/h (1 Bft) O-NO 72 2 min 0,000 mm 0,0 UV-I 143 W/m 17,3 C 27,5 C 4,8 km/h (1 Bft) 95,74 %
25.08.2017 18:34 27,4 C 24,4 C 55 % 1015,6 hPa 0,0 l/m 2,1 km/h (1 Bft) O-NO 72 2 min 0,000 mm 0,0 UV-I 137 W/m 17,5 C 27,4 C 3,2 km/h (1 Bft) 93,62 %
25.08.2017 18:36 27,3 C 24,4 C 51 % 1015,6 hPa 0,0 l/m 1,2 km/h (1 Bft) O-NO 72 2 min 0,000 mm 0,0 UV-I 131 W/m 16,3 C 27,3 C 3,2 km/h (1 Bft) 94,74 %
25.08.2017 18:38 27,3 C 24,4 C 53 % 1015,6 hPa 0,0 l/m 3,2 km/h (1 Bft) O-NO 72 2 min 0,000 mm 0,0 UV-I 127 W/m 16,9 C 27,3 C 4,8 km/h (1 Bft) 97,92 %
25.08.2017 18:40 27,2 C 24,4 C 53 % 1015,6 hPa 0,0 l/m 3,1 km/h (1 Bft) O-NO 72 2 min 0,000 mm 0,0 UV-I 122 W/m 16,8 C 27,2 C 4,8 km/h (1 Bft) 100,00 %
25.08.2017 18:42 27,1 C 24,4 C 57 % 1015,6 hPa 0,0 l/m 3,1 km/h (1 Bft) O-NO 72 2 min 0,000 mm 0,0 UV-I 116 W/m 17,8 C 27,1 C 4,8 km/h (1 Bft) 98,00 %
25.08.2017 18:44 26,9 C 24,4 C 59 % 1015,6 hPa 0,0 l/m 1,8 km/h (1 Bft) O-NO 72 2 min 0,000 mm 0,0 UV-I 111 W/m 18,2 C 26,9 C 3,2 km/h (1 Bft) 94,44 %
25.08.2017 18:46 26,8 C 24,4 C 57 % 1015,6 hPa 0,0 l/m 1,6 km/h (1 Bft) O-NO 72 2 min 0,000 mm 0,0 UV-I 106 W/m 17,6 C 26,8 C 4,8 km/h (1 Bft) 97,87 %
25.08.2017 18:48 26,8 C 24,4 C 57 % 1015,6 hPa 0,0 l/m 2,3 km/h (1 Bft) O-NO 71 0 min 0,000 mm 0,0 UV-I 101 W/m 17,6 C 26,8 C 4,8 km/h (1 Bft) 98,11 %
25.08.2017 18:50 26,8 C 24,4 C 58 % 1015,5 hPa 0,0 l/m 2,8 km/h (1 Bft) O-NO 71 0 min 0,000 mm 0,0 UV-I 97 W/m 17,8 C 26,8 C 4,8 km/h (1 Bft) 95,74 %
25.08.2017 18:52 26,8 C 24,4 C 58 % 1015,6 hPa 0,0 l/m 3,5 km/h (1 Bft) O-NO 71 0 min 0,000 mm 0,0 UV-I 93 W/m 17,8 C 26,8 C 4,8 km/h (1 Bft) 100,00 %
25.08.2017 18:54 26,7 C 24,4 C 57 % 1015,6 hPa 0,0 l/m 3,8 km/h (1 Bft) O-NO 71 0 min 0,000 mm 0,0 UV-I 89 W/m 17,5 C 26,7 C 4,8 km/h (1 Bft) 100,00 %
25.08.2017 18:56 26,7 C 24,4 C 58 % 1015,6 hPa 0,0 l/m 3,4 km/h (1 Bft) O-NO 71 0 min 0,000 mm 0,0 UV-I 85 W/m 17,7 C 26,7 C 6,4 km/h (2 Bft) 100,00 %
25.08.2017 18:58 26,6 C 24,4 C 59 % 1015,6 hPa 0,0 l/m 3,7 km/h (1 Bft) O-NO 71 0 min 0,000 mm 0,0 UV-I 82 W/m 17,9 C 26,6 C 4,8 km/h (1 Bft) 100,00 %
25.08.2017 19:00 26,5 C 24,4 C 60 % 1015,6 hPa 0,0 l/m 2,9 km/h (1 Bft) O-NO 71 0 min 0,127 mm 0,0 UV-I 78 W/m 18,1 C 26,5 C 4,8 km/h (1 Bft) 100,00 %
25.08.2017 19:02 26,4 C 24,4 C 62 % 1015,6 hPa 0,0 l/m 3,2 km/h (1 Bft) O-NO 71 0 min 0,000 mm 0,0 UV-I 76 W/m 18,5 C 26,4 C 4,8 km/h (1 Bft) 100,00 %
25.08.2017 19:04 26,3 C 24,4 C 62 % 1015,5 hPa 0,0 l/m 2,6 km/h (1 Bft) O-NO 71 0 min 0,000 mm 0,0 UV-I 72 W/m 18,4 C 26,3 C 3,2 km/h (1 Bft) 100,00 %
25.08.2017 19:06 26,2 C 24,4 C 65 % 1015,5 hPa 0,0 l/m 3,2 km/h (1 Bft) O-NO 71 0 min 0,000 mm 0,0 UV-I 69 W/m 19,1 C 26,2 C 4,8 km/h (1 Bft) 97,87 %
25.08.2017 19:08 26,0 C 24,4 C 63 % 1015,5 hPa 0,0 l/m 3,6 km/h (1 Bft) O-NO 71 0 min 0,000 mm 0,0 UV-I 65 W/m 18,4 C 26,0 C 6,4 km/h (2 Bft) 100,00 %
25.08.2017 19:10 25,9 C 24,4 C 65 % 1015,5 hPa 0,0 l/m 4,0 km/h (1 Bft) O-NO 71 0 min 0,000 mm 0,0 UV-I 62 W/m 18,8 C 25,9 C 4,8 km/h (1 Bft) 100,00 %
25.08.2017 19:12 25,8 C 24,4 C 61 % 1015,5 hPa 0,0 l/m 2,8 km/h (1 Bft) O-NO 71 0 min 0,000 mm 0,0 UV-I 59 W/m 17,7 C 25,8 C 4,8 km/h (1 Bft) 100,00 %
25.08.2017 19:14 25,9 C 24,4 C 60 % 1015,5 hPa 0,0 l/m 3,7 km/h (1 Bft) O-NO 71 0 min 0,000 mm 0,0 UV-I 56 W/m 17,5 C 25,9 C 4,8 km/h (1 Bft) 97,87 %
25.08.2017 19:16 25,9 C 24,4 C 60 % 1015,5 hPa 0,0 l/m 4,7 km/h (1 Bft) O-NO 71 0 min 0,000 mm 0,0 UV-I 52 W/m 17,5 C 25,9 C 6,4 km/h (2 Bft) 97,56 %
25.08.2017 19:18 25,9 C 24,4 C 63 % 1015,4 hPa 0,0 l/m 4,4 km/h (1 Bft) O-NO 71 0 min 0,000 mm 0,0 UV-I 50 W/m 18,3 C 25,9 C 6,4 km/h (2 Bft) 97,92 %
25.08.2017 19:20 25,8 C 24,4 C 62 % 1015,4 hPa 0,0 l/m 3,8 km/h (1 Bft) O-NO 71 0 min 0,000 mm 0,0 UV-I 46 W/m 18,0 C 25,8 C 6,4 km/h (2 Bft) 100,00 %
25.08.2017 19:22 25,6 C 24,4 C 65 % 1015,5 hPa 0,0 l/m 1,9 km/h (1 Bft) O-NO 71 0 min 0,000 mm 0,0 UV-I 42 W/m 18,5 C 25,6 C 3,2 km/h (1 Bft) 97,87 %
25.08.2017 19:24 25,4 C 24,4 C 65 % 1015,5 hPa 0,0 l/m 1,5 km/h (1 Bft) O-NO 71 0 min 0,000 mm 0,0 UV-I 39 W/m 18,3 C 25,4 C 3,2 km/h (1 Bft) 97,87 %
25.08.2017 19:26 25,2 C 24,4 C 68 % 1015,4 hPa 0,0 l/m 2,8 km/h (1 Bft) O-NO 71 0 min 0,000 mm 0,0 UV-I 36 W/m 18,9 C 25,2 C 3,2 km/h (1 Bft) 100,00 %
25.08.2017 19:28 25,0 C 24,4 C 70 % 1015,4 hPa 0,0 l/m 3,7 km/h (1 Bft) O-NO 71 0 min 0,000 mm 0,0 UV-I 33 W/m 19,1 C 25,0 C 4,8 km/h (1 Bft) 100,00 %
25.08.2017 19:30 24,8 C 24,4 C 71 % 1015,5 hPa 0,0 l/m 3,2 km/h (1 Bft) O-NO 71 0 min 0,000 mm 0,0 UV-I 32 W/m 19,2 C 24,8 C 4,8 km/h (1 Bft) 100,00 %
25.08.2017 19:32 24,6 C 24,4 C 72 % 1015,4 hPa 0,0 l/m 3,8 km/h (1 Bft) O-NO 71 0 min 0,000 mm 0,0 UV-I 31 W/m 19,2 C 24,6 C 4,8 km/h (1 Bft) 97,87 %
25.08.2017 19:34 24,3 C 24,4 C 71 % 1015,5 hPa 0,0 l/m 4,0 km/h (1 Bft) O-NO 71 0 min 0,000 mm 0,0 UV-I 28 W/m 18,7 C 24,3 C 4,8 km/h (1 Bft) 97,87 %
25.08.2017 19:36 24,2 C 23,9 C 73 % 1015,5 hPa 0,0 l/m 4,2 km/h (1 Bft) O-NO 71 0 min 0,000 mm 0,0 UV-I 26 W/m 19,0 C 24,2 C 6,4 km/h (2 Bft) 100,00 %
25.08.2017 19:38 24,1 C 23,9 C 71 % 1015,5 hPa 0,0 l/m 4,8 km/h (1 Bft) O-NO 73 2 min 0,000 mm 0,0 UV-I 25 W/m 18,5 C 24,1 C 6,4 km/h (2 Bft) 100,00 %
25.08.2017 19:40 24,1 C 23,9 C 68 % 1015,5 hPa 0,0 l/m 4,7 km/h (1 Bft) O-NO 74 2 min 0,000 mm 0,0 UV-I 23 W/m 17,8 C 24,1 C 6,4 km/h (2 Bft) 100,00 %
25.08.2017 19:42 24,2 C 23,9 C 69 % 1015,4 hPa 0,0 l/m 4,6 km/h (1 Bft) O 82 2 min 0,000 mm 0,0 UV-I 21 W/m 18,1 C 24,2 C 8,0 km/h (2 Bft) 100,00 %
25.08.2017 19:44 24,2 C 23,9 C 68 % 1015,5 hPa 0,0 l/m 4,1 km/h (1 Bft) O 82 2 min 0,000 mm 0,0 UV-I 19 W/m 17,9 C 24,2 C 6,4 km/h (2 Bft) 100,00 %
25.08.2017 19:46 24,2 C 23,9 C 68 % 1015,5 hPa 0,0 l/m 4,1 km/h (1 Bft) O 82 2 min 0,000 mm 0,0 UV-I 18 W/m 17,9 C 24,2 C 6,4 km/h (2 Bft) 100,00 %
25.08.2017 19:48 24,2 C 23,9 C 69 % 1015,4 hPa 0,0 l/m 3,8 km/h (1 Bft) O 82 2 min 0,000 mm 0,0 UV-I 16 W/m 18,1 C 24,2 C 4,8 km/h (1 Bft) 100,00 %
25.08.2017 19:50 24,1 C 23,9 C 70 % 1015,5 hPa 0,0 l/m 3,5 km/h (1 Bft) O 82 0 min 0,000 mm 0,0 UV-I 13 W/m 18,3 C 24,1 C 6,4 km/h (2 Bft) 100,00 %
25.08.2017 19:52 23,9 C 23,9 C 70 % 1015,5 hPa 0,0 l/m 2,9 km/h (1 Bft) O 82 0 min 0,000 mm 0,0 UV-I 12 W/m 18,1 C 23,9 C 4,8 km/h (1 Bft) 97,87 %
25.08.2017 19:54 23,8 C 23,9 C 72 % 1015,5 hPa 0,0 l/m 4,3 km/h (1 Bft) O 82 0 min 0,000 mm 0,0 UV-I 11 W/m 18,4 C 23,8 C 6,4 km/h (2 Bft) 100,00 %
25.08.2017 19:56 23,5 C 23,9 C 73 % 1015,5 hPa 0,0 l/m 4,4 km/h (1 Bft) O 82 0 min 0,000 mm 0,0 UV-I 9 W/m 18,4 C 23,5 C 6,4 km/h (2 Bft) 97,87 %
25.08.2017 19:58 23,3 C 23,9 C 74 % 1015,5 hPa 0,0 l/m 3,9 km/h (1 Bft) O 82 0 min 0,000 mm 0,0 UV-I 7 W/m 18,4 C 23,3 C 4,8 km/h (1 Bft) 97,92 %
25.08.2017 20:00 23,1 C 23,9 C 75 % 1015,5 hPa 0,0 l/m 4,2 km/h (1 Bft) O 82 0 min 0,051 mm 0,0 UV-I 7 W/m 18,4 C 23,1 C 6,4 km/h (2 Bft) 97,87 %
25.08.2017 20:02 23,0 C 23,9 C 75 % 1015,5 hPa 0,0 l/m 3,2 km/h (1 Bft) O 82 0 min 0,000 mm 0,0 UV-I 6 W/m 18,3 C 23,0 C 4,8 km/h (1 Bft) 97,87 %
25.08.2017 20:04 22,9 C 23,9 C 75 % 1015,4 hPa 0,0 l/m 1,1 km/h (1 Bft) O 82 0 min 0,000 mm 0,0 UV-I 5 W/m 18,2 C 22,9 C 4,8 km/h (1 Bft) 95,74 %
25.08.2017 20:06 22,9 C 24,4 C 74 % 1015,5 hPa 0,0 l/m 1,3 km/h (1 Bft) O 82 0 min 0,000 mm 0,0 UV-I 5 W/m 18,0 C 22,9 C 3,2 km/h (1 Bft) 97,87 %
25.08.2017 20:08 22,9 C 23,9 C 73 % 1015,5 hPa 0,0 l/m 1,9 km/h (1 Bft) O 82 0 min 0,000 mm 0,0 UV-I 5 W/m 17,8 C 22,9 C 4,8 km/h (1 Bft) 98,08 %
25.08.2017 20:10 23,1 C 23,9 C 70 % 1015,5 hPa 0,0 l/m 2,7 km/h (1 Bft) O 82 0 min 0,000 mm 0,0 UV-I 5 W/m 17,3 C 23,1 C 4,8 km/h (1 Bft) 97,87 %
25.08.2017 20:12 23,3 C 23,9 C 69 % 1015,6 hPa 0,0 l/m 2,6 km/h (1 Bft) O 82 0 min 0,000 mm 0,0 UV-I 0 W/m 17,3 C 23,3 C 4,8 km/h (1 Bft) 97,87 %
25.08.2017 20:14 23,4 C 23,9 C 71 % 1015,5 hPa 0,0 l/m 2,6 km/h (1 Bft) O 82 0 min 0,000 mm 0,0 UV-I 0 W/m 17,8 C 23,4 C 6,4 km/h (2 Bft) 97,14 %
25.08.2017 20:16 23,3 C 23,9 C 71 % 1015,5 hPa 0,0 l/m 4,5 km/h (1 Bft) O 82 0 min 0,000 mm 0,0 UV-I 0 W/m 17,7 C 23,3 C 8,0 km/h (2 Bft) 98,00 %
25.08.2017 20:18 23,1 C 23,9 C 72 % 1015,5 hPa 0,0 l/m 5,9 km/h (2 Bft) O-SO 102 0 min 0,000 mm 0,0 UV-I 0 W/m 17,8 C 23,1 C 9,7 km/h (2 Bft) 97,87 %
25.08.2017 20:20 22,9 C 23,9 C 72 % 1015,5 hPa 0,0 l/m 4,7 km/h (1 Bft) O 99 0 min 0,000 mm 0,0 UV-I 0 W/m 17,6 C 22,9 C 6,4 km/h (2 Bft) 97,87 %
25.08.2017 20:22 22,9 C 23,9 C 72 % 1015,5 hPa 0,0 l/m 4,0 km/h (1 Bft) O 99 0 min 0,000 mm 0,0 UV-I 0 W/m 17,6 C 22,9 C 4,8 km/h (1 Bft) 96,23 %
25.08.2017 20:24 22,7 C 23,9 C 74 % 1015,5 hPa 0,0 l/m 3,6 km/h (1 Bft) O 99 0 min 0,000 mm 0,0 UV-I 0 W/m 17,8 C 22,7 C 6,4 km/h (2 Bft) 95,74 %
25.08.2017 20:26 22,6 C 23,9 C 73 % 1015,6 hPa 0,0 l/m 4,6 km/h (1 Bft) O-NO 70 0 min 0,000 mm 0,0 UV-I 0 W/m 17,5 C 22,6 C 8,0 km/h (2 Bft) 97,87 %
25.08.2017 20:28 22,7 C 23,9 C 72 % 1015,6 hPa 0,0 l/m 4,4 km/h (1 Bft) O 82 0 min 0,000 mm 0,0 UV-I 0 W/m 17,4 C 22,7 C 6,4 km/h (2 Bft) 94,74 %
25.08.2017 20:30 22,8 C 23,9 C 71 % 1015,6 hPa 0,0 l/m 2,3 km/h (1 Bft) O 82 0 min 0,000 mm 0,0 UV-I 0 W/m 17,3 C 22,8 C 4,8 km/h (1 Bft) 95,74 %
25.08.2017 20:32 22,7 C 23,9 C 73 % 1015,7 hPa 0,0 l/m 0,1 km/h (0 Bft) O 82 0 min 0,000 mm 0,0 UV-I 0 W/m 17,6 C 22,7 C 1,6 km/h (1 Bft) 92,00 %
25.08.2017 20:34 22,5 C 23,9 C 75 % 1015,7 hPa 0,0 l/m 0,0 km/h (0 Bft) O 82 0 min 0,000 mm 0,0 UV-I 0 W/m 17,8 C 22,5 C 0,0 km/h (0 Bft) 95,74 %
25.08.2017 20:36 22,3 C 23,9 C 76 % 1015,8 hPa 0,0 l/m 0,0 km/h (0 Bft) O 82 0 min 0,000 mm 0,0 UV-I 0 W/m 17,9 C 22,3 C 0,0 km/h (0 Bft) 95,74 %
25.08.2017 20:38 22,1 C 23,9 C 77 % 1015,8 hPa 0,0 l/m 0,0 km/h (0 Bft) O 82 0 min 0,000 mm 0,0 UV-I 0 W/m 17,9 C 22,1 C 0,0 km/h (0 Bft) 97,92 %
25.08.2017 20:40 22,0 C 23,9 C 77 % 1015,8 hPa 0,0 l/m 0,0 km/h (0 Bft) O 82 0 min 0,000 mm 0,0 UV-I 0 W/m 17,8 C 22,0 C 0,0 km/h (0 Bft) 91,49 %
25.08.2017 20:42 21,8 C 23,9 C 78 % 1015,8 hPa 0,0 l/m 0,1 km/h (0 Bft) O 82 0 min 0,000 mm 0,0 UV-I 0 W/m 17,8 C 21,8 C 1,6 km/h (1 Bft) 97,87 %
25.08.2017 20:44 21,7 C 23,9 C 78 % 1015,8 hPa 0,0 l/m 2,3 km/h (1 Bft) O 82 0 min 0,000 mm 0,0 UV-I 0 W/m 17,7 C 21,7 C 3,2 km/h (1 Bft) 95,74 %
25.08.2017 20:46 21,4 C 23,9 C 78 % 1015,8 hPa 0,0 l/m 3,1 km/h (1 Bft) O 82 0 min 0,000 mm 0,0 UV-I 0 W/m 17,4 C 21,4 C 4,8 km/h (1 Bft) 97,87 %
25.08.2017 20:48 21,3 C 23,9 C 78 % 1015,8 hPa 0,0 l/m 3,4 km/h (1 Bft) O 83 0 min 0,000 mm 0,0 UV-I 0 W/m 17,3 C 21,3 C 4,8 km/h (1 Bft) 97,87 %
25.08.2017 20:50 21,2 C 23,9 C 79 % 1015,8 hPa 0,0 l/m 4,3 km/h (1 Bft) O 84 0 min 0,000 mm 0,0 UV-I 0 W/m 17,4 C 21,2 C 6,4 km/h (2 Bft) 98,00 %
25.08.2017 20:52 21,1 C 23,9 C 79 % 1015,8 hPa 0,0 l/m 2,5 km/h (1 Bft) O 84 0 min 0,000 mm 0,0 UV-I 0 W/m 17,3 C 21,1 C 4,8 km/h (1 Bft) 97,87 %
25.08.2017 20:54 20,9 C 23,9 C 79 % 1015,8 hPa 0,0 l/m 3,5 km/h (1 Bft) O 84 0 min 0,000 mm 0,0 UV-I 0 W/m 17,1 C 20,9 C 6,4 km/h (2 Bft) 95,74 %
25.08.2017 20:56 20,9 C 23,9 C 78 % 1015,8 hPa 0,0 l/m 2,6 km/h (1 Bft) O 96 0 min 0,000 mm 0,0 UV-I 0 W/m 16,9 C 20,9 C 4,8 km/h (1 Bft) 97,87 %
25.08.2017 20:58 20,9 C 23,9 C 78 % 1015,8 hPa 0,0 l/m 1,1 km/h (1 Bft) O 96 0 min 0,000 mm 0,0 UV-I 0 W/m 16,9 C 20,9 C 4,8 km/h (1 Bft) 97,87 %
25.08.2017 21:00 20,9 C 23,9 C 78 % 1015,8 hPa 0,0 l/m 0,6 km/h (0 Bft) O 96 0 min 0,025 mm 0,0 UV-I 0 W/m 16,9 C 20,9 C 3,2 km/h (1 Bft) 94,29 %
25.08.2017 21:02 20,9 C 23,9 C 79 % 1015,8 hPa 0,0 l/m 0,0 km/h (0 Bft) O 96 0 min 0,000 mm 0,0 UV-I 0 W/m 17,1 C 20,9 C 0,0 km/h (0 Bft) 98,00 %
25.08.2017 21:04 20,8 C 23,9 C 79 % 1015,8 hPa 0,0 l/m 0,3 km/h (0 Bft) O 96 0 min 0,000 mm 0,0 UV-I 0 W/m 17,0 C 20,8 C 3,2 km/h (1 Bft) 97,87 %
25.08.2017 21:06 20,7 C 23,9 C 79 % 1015,8 hPa 0,0 l/m 2,7 km/h (1 Bft) O 96 0 min 0,000 mm 0,0 UV-I 0 W/m 16,9 C 20,7 C 4,8 km/h (1 Bft) 94,00 %
25.08.2017 21:08 20,7 C 23,9 C 79 % 1015,8 hPa 0,0 l/m 2,8 km/h (1 Bft) O 96 0 min 0,000 mm 0,0 UV-I 0 W/m 16,9 C 20,7 C 4,8 km/h (1 Bft) 95,74 %
25.08.2017 21:10 20,7 C 23,9 C 79 % 1015,8 hPa 0,0 l/m 2,9 km/h (1 Bft) O 96 0 min 0,000 mm 0,0 UV-I 0 W/m 16,9 C 20,7 C 4,8 km/h (1 Bft) 97,87 %
25.08.2017 21:12 20,7 C 23,9 C 80 % 1015,9 hPa 0,0 l/m 2,6 km/h (1 Bft) O 96 0 min 0,000 mm 0,0 UV-I 0 W/m 17,1 C 20,7 C 4,8 km/h (1 Bft) 97,87 %
25.08.2017 21:14 20,7 C 23,9 C 80 % 1015,9 hPa 0,0 l/m 2,7 km/h (1 Bft) O 96 0 min 0,000 mm 0,0 UV-I 0 W/m 17,1 C 20,7 C 4,8 km/h (1 Bft) 97,87 %
25.08.2017 21:16 20,7 C 23,9 C 80 % 1015,8 hPa 0,0 l/m 1,8 km/h (1 Bft) O 96 0 min 0,000 mm 0,0 UV-I 0 W/m 17,1 C 20,7 C 3,2 km/h (1 Bft) 97,92 %
25.08.2017 21:18 20,6 C 23,9 C 80 % 1015,8 hPa 0,0 l/m 2,9 km/h (1 Bft) O 96 0 min 0,000 mm 0,0 UV-I 0 W/m 17,0 C 20,6 C 4,8 km/h (1 Bft) 97,96 %
25.08.2017 21:20 20,6 C 23,9 C 81 % 1015,8 hPa 0,0 l/m 4,2 km/h (1 Bft) O 98 0 min 0,000 mm 0,0 UV-I 0 W/m 17,2 C 20,6 C 6,4 km/h (2 Bft) 97,92 %
25.08.2017 21:22 20,6 C 23,9 C 81 % 1015,8 hPa 0,0 l/m 4,5 km/h (1 Bft) O-SO 115 0 min 0,000 mm 0,0 UV-I 0 W/m 17,2 C 20,6 C 6,4 km/h (2 Bft) 97,87 %
25.08.2017 21:24 20,6 C 23,9 C 81 % 1015,7 hPa 0,0 l/m 5,5 km/h (1 Bft) O-SO 115 0 min 0,000 mm 0,0 UV-I 0 W/m 17,2 C 20,6 C 9,7 km/h (2 Bft) 97,87 %
25.08.2017 21:26 20,6 C 23,9 C 81 % 1015,7 hPa 0,0 l/m 5,1 km/h (1 Bft) O-SO 117 0 min 0,000 mm 0,0 UV-I 0 W/m 17,2 C 20,6 C 6,4 km/h (2 Bft) 94,74 %
25.08.2017 21:28 20,6 C 23,9 C 81 % 1015,7 hPa 0,0 l/m 3,5 km/h (1 Bft) O-SO 117 0 min 0,000 mm 0,0 UV-I 0 W/m 17,2 C 20,6 C 4,8 km/h (1 Bft) 98,00 %
25.08.2017 21:30 20,6 C 23,9 C 81 % 1015,7 hPa 0,0 l/m 4,9 km/h (1 Bft) SO 133 0 min 0,000 mm 0,0 UV-I 0 W/m 17,2 C 20,6 C 6,4 km/h (2 Bft) 93,62 %
25.08.2017 21:32 20,6 C 23,9 C 81 % 1015,7 hPa 0,0 l/m 4,7 km/h (1 Bft) SO 126 0 min 0,000 mm 0,0 UV-I 0 W/m 17,2 C 20,6 C 6,4 km/h (2 Bft) 100,00 %
25.08.2017 21:34 20,6 C 23,9 C 81 % 1015,7 hPa 0,0 l/m 5,1 km/h (1 Bft) SO 139 0 min 0,000 mm 0,0 UV-I 0 W/m 17,2 C 20,6 C 6,4 km/h (2 Bft) 97,87 %
25.08.2017 21:36 20,7 C 23,9 C 81 % 1015,7 hPa 0,0 l/m 4,4 km/h (1 Bft) SO 136 0 min 0,000 mm 0,0 UV-I 0 W/m 17,3 C 20,7 C 8,0 km/h (2 Bft) 100,00 %
25.08.2017 21:38 20,7 C 23,9 C 81 % 1015,7 hPa 0,0 l/m 5,9 km/h (2 Bft) SO 130 0 min 0,000 mm 0,0 UV-I 0 W/m 17,3 C 20,7 C 8,0 km/h (2 Bft) 100,00 %
25.08.2017 21:40 20,7 C 23,9 C 81 % 1015,7 hPa 0,0 l/m 4,0 km/h (1 Bft) SO 132 0 min 0,000 mm 0,0 UV-I 0 W/m 17,3 C 20,7 C 6,4 km/h (2 Bft) 100,00 %
25.08.2017 21:42 20,8 C 23,9 C 81 % 1015,7 hPa 0,0 l/m 2,9 km/h (1 Bft) SO 132 0 min 0,000 mm 0,0 UV-I 0 W/m 17,4 C 20,8 C 6,4 km/h (2 Bft) 97,37 %
25.08.2017 21:44 20,8 C 23,9 C 81 % 1015,7 hPa 0,0 l/m 3,5 km/h (1 Bft) SO 131 0 min 0,000 mm 0,0 UV-I 0 W/m 17,4 C 20,8 C 6,4 km/h (2 Bft) 97,87 %
25.08.2017 21:46 20,9 C 23,9 C 81 % 1015,7 hPa 0,0 l/m 2,7 km/h (1 Bft) SO 132 0 min 0,000 mm 0,0 UV-I 0 W/m 17,5 C 20,9 C 6,4 km/h (2 Bft) 100,00 %
25.08.2017 21:48 20,9 C 23,9 C 81 % 1015,7 hPa 0,0 l/m 3,4 km/h (1 Bft) SO 136 0 min 0,000 mm 0,0 UV-I 0 W/m 17,5 C 20,9 C 6,4 km/h (2 Bft) 100,00 %
25.08.2017 21:50 20,9 C 23,9 C 81 % 1015,7 hPa 0,0 l/m 2,6 km/h (1 Bft) SO 136 0 min 0,000 mm 0,0 UV-I 0 W/m 17,5 C 20,9 C 4,8 km/h (1 Bft) 100,00 %
25.08.2017 21:52 20,9 C 23,9 C 81 % 1015,7 hPa 0,0 l/m 3,0 km/h (1 Bft) SO 136 0 min 0,000 mm 0,0 UV-I 0 W/m 17,5 C 20,9 C 4,8 km/h (1 Bft) 100,00 %
25.08.2017 21:54 20,9 C 23,9 C 81 % 1015,7 hPa 0,0 l/m 2,0 km/h (1 Bft) SO 136 0 min 0,000 mm 0,0 UV-I 0 W/m 17,5 C 20,9 C 4,8 km/h (1 Bft) 100,00 %
25.08.2017 21:56 20,8 C 23,9 C 81 % 1015,7 hPa 0,0 l/m 1,5 km/h (1 Bft) SO 137 0 min 0,000 mm 0,0 UV-I 0 W/m 17,4 C 20,8 C 4,8 km/h (1 Bft) 97,92 %
25.08.2017 21:58 20,7 C 23,9 C 81 % 1015,7 hPa 0,0 l/m 1,6 km/h (1 Bft) SO 137 0 min 0,000 mm 0,0 UV-I 0 W/m 17,3 C 20,7 C 3,2 km/h (1 Bft) 97,87 %
25.08.2017 22:00 20,6 C 23,9 C 82 % 1015,6 hPa 0,0 l/m 0,5 km/h (0 Bft) SO 137 0 min 0,026 mm 0,0 UV-I 0 W/m 17,4 C 20,6 C 3,2 km/h (1 Bft) 95,74 %
25.08.2017 22:02 20,4 C 23,9 C 83 % 1015,6 hPa 0,0 l/m 0,1 km/h (0 Bft) SO 137 0 min 0,000 mm 0,0 UV-I 0 W/m 17,4 C 20,4 C 1,6 km/h (1 Bft) 100,00 %
25.08.2017 22:04 20,3 C 23,9 C 83 % 1015,6 hPa 0,0 l/m 0,5 km/h (0 Bft) SO 137 0 min 0,000 mm 0,0 UV-I 0 W/m 17,3 C 20,3 C 1,6 km/h (1 Bft) 94,00 %
25.08.2017 22:06 20,3 C 23,9 C 83 % 1015,6 hPa 0,0 l/m 1,9 km/h (1 Bft) SO 137 0 min 0,000 mm 0,0 UV-I 0 W/m 17,3 C 20,3 C 3,2 km/h (1 Bft) 100,00 %
25.08.2017 22:08 20,2 C 23,9 C 84 % 1015,7 hPa 0,0 l/m 1,9 km/h (1 Bft) SO 137 0 min 0,000 mm 0,0 UV-I 0 W/m 17,4 C 20,2 C 3,2 km/h (1 Bft) 96,15 %
25.08.2017 22:10 20,2 C 23,9 C 84 % 1015,6 hPa 0,0 l/m 0,8 km/h (0 Bft) SO 137 0 min 0,000 mm 0,0 UV-I 0 W/m 17,4 C 20,2 C 1,6 km/h (1 Bft) 93,62 %
25.08.2017 22:12 20,1 C 23,9 C 84 % 1015,6 hPa 0,0 l/m 0,0 km/h (0 Bft) SO 137 0 min 0,000 mm 0,0 UV-I 0 W/m 17,3 C 20,1 C 0,0 km/h (0 Bft) 97,37 %
25.08.2017 22:14 20,0 C 23,9 C 84 % 1015,7 hPa 0,0 l/m 0,0 km/h (0 Bft) SO 137 0 min 0,000 mm 0,0 UV-I 0 W/m 17,2 C 20,0 C 0,0 km/h (0 Bft) 98,11 %
25.08.2017 22:16 19,9 C 23,9 C 85 % 1015,6 hPa 0,0 l/m 0,0 km/h (0 Bft) SO 137 0 min 0,000 mm 0,0 UV-I 0 W/m 17,3 C 19,9 C 0,0 km/h (0 Bft) 97,87 %
25.08.2017 22:18 19,9 C 23,9 C 85 % 1015,6 hPa 0,0 l/m 0,8 km/h (0 Bft) SO 137 0 min 0,000 mm 0,0 UV-I 0 W/m 17,3 C 19,9 C 1,6 km/h (1 Bft) 97,87 %
25.08.2017 22:20 19,8 C 23,9 C 85 % 1015,6 hPa 0,0 l/m 1,3 km/h (1 Bft) SO 137 0 min 0,000 mm 0,0 UV-I 0 W/m 17,2 C 19,8 C 3,2 km/h (1 Bft) 97,87 %
25.08.2017 22:22 19,9 C 23,9 C 85 % 1015,6 hPa 0,0 l/m 2,2 km/h (1 Bft) SO 137 0 min 0,000 mm 0,0 UV-I 0 W/m 17,3 C 19,9 C 3,2 km/h (1 Bft) 94,00 %
25.08.2017 22:24 19,9 C 23,9 C 85 % 1015,6 hPa 0,0 l/m 1,6 km/h (1 Bft) SO 137 0 min 0,000 mm 0,0 UV-I 0 W/m 17,3 C 19,9 C 3,2 km/h (1 Bft) 97,87 %
25.08.2017 22:26 19,8 C 23,9 C 85 % 1015,6 hPa 0,0 l/m 1,8 km/h (1 Bft) SO 137 0 min 0,000 mm 0,0 UV-I 0 W/m 17,2 C 19,8 C 3,2 km/h (1 Bft) 97,37 %
25.08.2017 22:28 19,8 C 23,9 C 85 % 1015,6 hPa 0,0 l/m 1,7 km/h (1 Bft) SO 137 0 min 0,000 mm 0,0 UV-I 0 W/m 17,2 C 19,8 C 3,2 km/h (1 Bft) 97,87 %
25.08.2017 22:30 19,7 C 23,9 C 85 % 1015,6 hPa 0,0 l/m 2,4 km/h (1 Bft) SO 138 0 min 0,000 mm 0,0 UV-I 0 W/m 17,1 C 19,7 C 3,2 km/h (1 Bft) 96,00 %
25.08.2017 22:32 19,7 C 23,9 C 86 % 1015,7 hPa 0,0 l/m 2,1 km/h (1 Bft) SO 138 0 min 0,000 mm 0,0 UV-I 0 W/m 17,3 C 19,7 C 3,2 km/h (1 Bft) 98,00 %
25.08.2017 22:34 19,6 C 23,9 C 86 % 1015,7 hPa 0,0 l/m 0,9 km/h (0 Bft) SO 138 0 min 0,000 mm 0,0 UV-I 0 W/m 17,2 C 19,6 C 3,2 km/h (1 Bft) 97,87 %
25.08.2017 22:36 19,4 C 23,9 C 86 % 1015,7 hPa 0,0 l/m 0,3 km/h (0 Bft) SO 138 0 min 0,000 mm 0,0 UV-I 0 W/m 17,0 C 19,4 C 1,6 km/h (1 Bft) 96,08 %
25.08.2017 22:38 19,2 C 23,9 C 86 % 1015,7 hPa 0,0 l/m 0,5 km/h (0 Bft) SO 138 0 min 0,000 mm 0,0 UV-I 0 W/m 16,8 C 19,2 C 1,6 km/h (1 Bft) 97,37 %
25.08.2017 22:40 19,1 C 23,9 C 87 % 1015,6 hPa 0,0 l/m 0,9 km/h (0 Bft) SO 138 0 min 0,000 mm 0,0 UV-I 0 W/m 16,9 C 19,1 C 3,2 km/h (1 Bft) 100,00 %
25.08.2017 22:42 19,0 C 23,9 C 88 % 1015,7 hPa 0,0 l/m 0,3 km/h (0 Bft) SO 138 0 min 0,000 mm 0,0 UV-I 0 W/m 17,0 C 19,0 C 3,2 km/h (1 Bft) 100,00 %
25.08.2017 22:44 19,0 C 23,9 C 88 % 1015,7 hPa 0,0 l/m 0,0 km/h (0 Bft) SO 138 0 min 0,000 mm 0,0 UV-I 0 W/m 17,0 C 19,0 C 1,6 km/h (1 Bft) 98,00 %
25.08.2017 22:46 19,0 C 23,9 C 89 % 1015,6 hPa 0,0 l/m 0,0 km/h (0 Bft) SO 138 0 min 0,000 mm 0,0 UV-I 0 W/m 17,1 C 19,0 C 0,0 km/h (0 Bft) 97,87 %
25.08.2017 22:48 19,0 C 23,9 C 89 % 1015,6 hPa 0,0 l/m 0,0 km/h (0 Bft) SO 138 0 min 0,000 mm 0,0 UV-I 0 W/m 17,1 C 19,0 C 0,0 km/h (0 Bft) 97,87 %
25.08.2017 22:50 19,0 C 23,9 C 89 % 1015,6 hPa 0,0 l/m 0,0 km/h (0 Bft) SO 138 0 min 0,000 mm 0,0 UV-I 0 W/m 17,1 C 19,0 C 0,0 km/h (0 Bft) 100,00 %
25.08.2017 22:52 19,1 C 23,9 C 89 % 1015,6 hPa 0,0 l/m 0,0 km/h (0 Bft) SO 138 0 min 0,000 mm 0,0 UV-I 0 W/m 17,2 C 19,1 C 0,0 km/h (0 Bft) 100,00 %
25.08.2017 22:54 19,1 C 23,9 C 89 % 1015,6 hPa 0,0 l/m 0,0 km/h (0 Bft) SO 138 0 min 0,000 mm 0,0 UV-I 0 W/m 17,2 C 19,1 C 0,0 km/h (0 Bft) 97,87 %
25.08.2017 22:56 19,1 C 23,9 C 88 % 1015,6 hPa 0,0 l/m 0,0 km/h (0 Bft) SO 138 0 min 0,000 mm 0,0 UV-I 0 W/m 17,1 C 19,1 C 0,0 km/h (0 Bft) 100,00 %
25.08.2017 22:58 19,1 C 23,9 C 88 % 1015,6 hPa 0,0 l/m 0,0 km/h (0 Bft) SO 138 0 min 0,000 mm 0,0 UV-I 0 W/m 17,1 C 19,1 C 0,0 km/h (0 Bft) 97,87 %
25.08.2017 23:00 19,1 C 23,9 C 88 % 1015,6 hPa 0,0 l/m 0,0 km/h (0 Bft) SO 138 0 min 0,000 mm 0,0 UV-I 0 W/m 17,1 C 19,1 C 0,0 km/h (0 Bft) 95,74 %
25.08.2017 23:02 19,0 C 23,9 C 88 % 1015,6 hPa 0,0 l/m 0,0 km/h (0 Bft) SO 138 0 min 0,000 mm 0,0 UV-I 0 W/m 17,0 C 19,0 C 0,0 km/h (0 Bft) 100,00 %
25.08.2017 23:04 18,9 C 23,9 C 88 % 1015,6 hPa 0,0 l/m 0,0 km/h (0 Bft) SO 138 0 min 0,000 mm 0,0 UV-I 0 W/m 16,9 C 18,9 C 0,0 km/h (0 Bft) 100,00 %
25.08.2017 23:06 18,8 C 23,9 C 88 % 1015,6 hPa 0,0 l/m 0,0 km/h (0 Bft) SO 138 0 min 0,000 mm 0,0 UV-I 0 W/m 16,8 C 18,8 C 0,0 km/h (0 Bft) 100,00 %
25.08.2017 23:08 18,8 C 23,9 C 88 % 1015,6 hPa 0,0 l/m 0,0 km/h (0 Bft) SO 138 0 min 0,000 mm 0,0 UV-I 0 W/m 16,8 C 18,8 C 0,0 km/h (0 Bft) 97,87 %
25.08.2017 23:10 18,8 C 23,9 C 88 % 1015,5 hPa 0,0 l/m 0,0 km/h (0 Bft) SO 138 0 min 0,000 mm 0,0 UV-I 0 W/m 16,8 C 18,8 C 0,0 km/h (0 Bft) 100,00 %
25.08.2017 23:12 18,7 C 23,9 C 89 % 1015,6 hPa 0,0 l/m 0,0 km/h (0 Bft) SO 138 0 min 0,000 mm 0,0 UV-I 0 W/m 16,8 C 18,7 C 0,0 km/h (0 Bft) 100,00 %
25.08.2017 23:14 18,7 C 23,9 C 89 % 1015,5 hPa 0,0 l/m 0,0 km/h (0 Bft) SO 138 0 min 0,000 mm 0,0 UV-I 0 W/m 16,8 C 18,7 C 0,0 km/h (0 Bft) 98,00 %
25.08.2017 23:16 18,7 C 23,9 C 89 % 1015,6 hPa 0,0 l/m 0,0 km/h (0 Bft) SO 138 0 min 0,000 mm 0,0 UV-I 0 W/m 16,8 C 18,7 C 0,0 km/h (0 Bft) 100,00 %
25.08.2017 23:18 18,6 C 23,9 C 89 % 1015,5 hPa 0,0 l/m 1,8 km/h (1 Bft) SO 138 0 min 0,000 mm 0,0 UV-I 0 W/m 16,7 C 18,6 C 3,2 km/h (1 Bft) 92,45 %
25.08.2017 23:20 18,6 C 23,9 C 89 % 1015,5 hPa 0,0 l/m 1,1 km/h (1 Bft) SO 138 0 min 0,000 mm 0,0 UV-I 0 W/m 16,7 C 18,6 C 3,2 km/h (1 Bft) 100,00 %
25.08.2017 23:22 18,6 C 23,9 C 90 % 1015,5 hPa 0,0 l/m 0,1 km/h (0 Bft) SO 138 0 min 0,000 mm 0,0 UV-I 0 W/m 16,9 C 18,6 C 1,6 km/h (1 Bft) 97,14 %
25.08.2017 23:24 18,5 C 23,9 C 89 % 1015,5 hPa 0,0 l/m 0,0 km/h (0 Bft) SO 138 0 min 0,000 mm 0,0 UV-I 0 W/m 16,7 C 18,5 C 0,0 km/h (0 Bft) 100,00 %
25.08.2017 23:26 18,5 C 23,9 C 89 % 1015,5 hPa 0,0 l/m 0,0 km/h (0 Bft) SO 138 0 min 0,000 mm 0,0 UV-I 0 W/m 16,7 C 18,5 C 0,0 km/h (0 Bft) 100,00 %
25.08.2017 23:28 18,4 C 23,9 C 90 % 1015,5 hPa 0,0 l/m 0,0 km/h (0 Bft) SO 138 0 min 0,000 mm 0,0 UV-I 0 W/m 16,7 C 18,4 C 0,0 km/h (0 Bft) 100,00 %
25.08.2017 23:30 18,4 C 23,9 C 90 % 1015,5 hPa 0,0 l/m 0,0 km/h (0 Bft) SO 138 0 min 0,000 mm 0,0 UV-I 0 W/m 16,7 C 18,4 C 0,0 km/h (0 Bft) 100,00 %
25.08.2017 23:32 18,5 C 23,9 C 90 % 1015,5 hPa 0,0 l/m 0,0 km/h (0 Bft) SO 138 0 min 0,000 mm 0,0 UV-I 0 W/m 16,8 C 18,5 C 0,0 km/h (0 Bft) 97,87 %
25.08.2017 23:34 18,6 C 23,9 C 90 % 1015,5 hPa 0,0 l/m 0,0 km/h (0 Bft) SO 138 0 min 0,000 mm 0,0 UV-I 0 W/m 16,9 C 18,6 C 0,0 km/h (0 Bft) 100,00 %
25.08.2017 23:36 18,6 C 23,9 C 90 % 1015,5 hPa 0,0 l/m 0,0 km/h (0 Bft) SO 138 0 min 0,000 mm 0,0 UV-I 0 W/m 16,9 C 18,6 C 0,0 km/h (0 Bft) 100,00 %
25.08.2017 23:38 18,5 C 23,9 C 90 % 1015,5 hPa 0,0 l/m 0,0 km/h (0 Bft) SO 138 0 min 0,000 mm 0,0 UV-I 0 W/m 16,8 C 18,5 C 0,0 km/h (0 Bft) 100,00 %
25.08.2017 23:40 18,5 C 23,9 C 90 % 1015,5 hPa 0,0 l/m 0,0 km/h (0 Bft) SO 138 0 min 0,000 mm 0,0 UV-I 0 W/m 16,8 C 18,5 C 0,0 km/h (0 Bft) 100,00 %
25.08.2017 23:42 18,4 C 23,9 C 90 % 1015,5 hPa 0,0 l/m 0,0 km/h (0 Bft) SO 138 0 min 0,000 mm 0,0 UV-I 0 W/m 16,7 C 18,4 C 0,0 km/h (0 Bft) 97,87 %
25.08.2017 23:44 18,3 C 23,9 C 89 % 1015,5 hPa 0,0 l/m 0,0 km/h (0 Bft) SO 138 0 min 0,000 mm 0,0 UV-I 0 W/m 16,5 C 18,3 C 0,0 km/h (0 Bft) 97,87 %
25.08.2017 23:46 18,3 C 23,9 C 89 % 1015,5 hPa 0,0 l/m 0,0 km/h (0 Bft) SO 138 0 min 0,000 mm 0,0 UV-I 0 W/m 16,5 C 18,3 C 0,0 km/h (0 Bft) 100,00 %
25.08.2017 23:48 18,2 C 23,9 C 90 % 1015,5 hPa 0,0 l/m 0,0 km/h (0 Bft) SO 138 0 min 0,000 mm 0,0 UV-I 0 W/m 16,5 C 18,2 C 0,0 km/h (0 Bft) 100,00 %
25.08.2017 23:50 18,2 C 23,9 C 90 % 1015,5 hPa 0,0 l/m 0,0 km/h (0 Bft) SO 138 0 min 0,000 mm 0,0 UV-I 0 W/m 16,5 C 18,2 C 0,0 km/h (0 Bft) 100,00 %
25.08.2017 23:52 18,2 C 23,9 C 90 % 1015,5 hPa 0,0 l/m 0,0 km/h (0 Bft) SO 138 0 min 0,000 mm 0,0 UV-I 0 W/m 16,5 C 18,2 C 0,0 km/h (0 Bft) 98,00 %
25.08.2017 23:54 18,2 C 23,9 C 90 % 1015,5 hPa 0,0 l/m 0,0 km/h (0 Bft) SO 138 0 min 0,000 mm 0,0 UV-I 0 W/m 16,5 C 18,2 C 0,0 km/h (0 Bft) 100,00 %
25.08.2017 23:56 18,3 C 23,9 C 90 % 1015,5 hPa 0,0 l/m 0,0 km/h (0 Bft) SO 138 0 min 0,000 mm 0,0 UV-I 0 W/m 16,6 C 18,3 C 0,0 km/h (0 Bft) 100,00 %
25.08.2017 23:58 18,3 C 23,9 C 90 % 1015,5 hPa 0,0 l/m 0,7 km/h (0 Bft) SO 138 0 min 0,000 mm 0,0 UV-I 0 W/m 16,6 C 18,3 C 3,2 km/h (1 Bft) 100,00 %
_ Min-Zeit 05:30 02:54 16:12 19:18 - 02:38 - - - - - - 05:30 01:54 07:30 03:42
Minimum _ 15,4 C 22,2 C 45 % 1015,4 hPa - 0,0 km/h (0 Bft) - - - - - - 14,1 C 15,2 C 0,0 km/h (0 Bft) 91,49 %
_ Max-Zeit 16:16 17:12 05:36 00:46 00:00 00:28 - - 14:03 13:00 12:50 13:10 19:32 16:16 00:00 00:08
Maximum _ 28,4 C 24,4 C 93 % 1019,6 hPa 0,0 l/m 23,5 km/h
W (4 Bft)
- - 3 min 0,483 mm 5,0 UV-I 764 W/m 19,2 C 28,4 C 38,6 km/h
W-SW (5 Bft)
100,00 %
Durchschnitt _ 21,5 C 23,1 C 74 % 1017,2 hPa #0,0 l/m 3,2 km/h (1 Bft) S-SW - #11:28 h #4,039 mm 2,9 UV-I 420 W/m 16,2 C 21,4 C 5,8 km/h (2 Bft) 97,88 %